[[{"header":{"parameterUnit":"m.s-1","parameterCategory":1,"la1":30.6,"la2":29.2853,"lo1":-89.7004,"lo2":-87.6739,"dy":0.0162,"dx":0.0183,"nx":112,"ny":82,"refTime":"2024-10-03T06:00:00:Z","depth":0,"parameterNumber":2,"parameterNumberName":"U-component_of_WINDS"},"data":[0.0,0.0,0.0,0.0,0.0,0.0,0.0,0.0,0.0,0.0,0.0,0.0,0.0,0.0,0.0,0.0,0.0,0.0,0.0,0.0,0.0,0.0,0.0,0.0,0.0,0.0,0.0,0.0,0.0,0.0,0.0,0.0,0.0,0.0,0.0,0.0,0.0,0.0,0.0,0.0,0.0,0.0,0.0,0.0,0.0,0.0,0.0,0.0,0.0,0.0,0.0,0.0,0.0,0.0,0.0,0.0,0.0,0.0,0.0,0.0,0.0,0.0,0.0,0.0,0.0,0.0,0.0,0.0,0.0,0.0,0.0,0.0,0.0,0.0,0.0,0.0,0.0,0.0,0.0,0.0,0.0,0.0,0.0,0.0,0.0,0.0,0.0,0.0,0.0,0.0,3.7815,4.0088,4.4486,4.7059,4.651,4.5563,4.291,3.8024,0.0,0.0,0.0,0.0,0.0,0.0,0.0,0.0,0.0,0.0,0.0,0.0,0.0,0.0,0.0,0.0,0.0,0.0,0.0,0.0,0.0,0.0,0.0,0.0,0.0,0.0,0.0,0.0,0.0,0.0,0.0,0.0,0.0,0.0,0.0,0.0,0.0,0.0,0.0,0.0,0.0,0.0,0.0,0.0,0.0,0.0,0.0,0.0,0.0,0.0,0.0,0.0,0.0,0.0,0.0,0.0,0.0,0.0,0.0,0.0,0.0,0.0,0.0,0.0,0.0,0.0,0.0,0.0,0.0,0.0,0.0,0.0,0.0,0.0,0.0,0.0,0.0,0.0,0.0,0.0,0.0,0.0,0.0,0.0,0.0,0.0,0.0,0.0,0.0,0.0,0.0,0.0,0.0,0.0,0.0,0.0,0.0,0.0,0.0,0.0,0.0,0.0,0.0,0.0,3.7362,4.3728,4.6142,4.7268,4.7149,4.5005,4.2372,3.9302,0.0,0.0,0.0,0.0,0.0,0.0,0.0,0.0,0.0,0.0,0.0,0.0,0.0,0.0,0.0,0.0,0.0,0.0,0.0,0.0,0.0,0.0,0.0,0.0,0.0,0.0,0.0,0.0,0.0,0.0,0.0,0.0,0.0,0.0,0.0,0.0,0.0,0.0,0.0,0.0,0.0,0.0,0.0,0.0,0.0,0.0,0.0,0.0,0.0,0.0,0.0,0.0,0.0,0.0,0.0,0.0,0.0,0.0,0.0,0.0,0.0,0.0,0.0,0.0,0.0,0.0,0.0,0.0,0.0,0.0,0.0,0.0,0.0,0.0,0.0,0.0,0.0,0.0,0.0,0.0,0.0,0.0,0.0,0.0,0.0,0.0,0.0,0.0,0.0,0.0,0.0,0.0,0.0,0.0,0.0,0.0,0.0,0.0,0.0,0.0,0.0,0.0,0.0,3.6823,3.9927,4.5753,4.6939,4.7309,4.7309,4.4875,4.2063,3.905,3.4472,0.0,0.0,0.0,0.0,0.0,0.0,0.0,0.0,0.0,0.0,0.0,0.0,0.0,0.0,0.0,0.0,0.0,0.0,0.0,0.0,0.0,0.0,0.0,0.0,0.0,0.0,0.0,0.0,0.0,0.0,0.0,0.0,0.0,0.0,0.0,0.0,0.0,0.0,0.0,0.0,0.0,0.0,0.0,0.0,0.0,0.0,0.0,0.0,0.0,0.0,0.0,0.0,0.0,0.0,0.0,0.0,0.0,0.0,0.0,0.0,0.0,0.0,0.0,0.0,0.0,0.0,0.0,0.0,0.0,0.0,0.0,0.0,0.0,0.0,0.0,0.0,0.0,0.0,0.0,0.0,0.0,0.0,0.0,0.0,0.0,0.0,0.0,0.0,0.0,0.0,0.0,0.0,0.0,0.0,0.0,0.0,0.0,0.0,0.0,0.0,0.0,0.0,4.1364,4.2851,4.6879,4.7309,4.7309,4.7309,4.4416,4.1395,3.858,3.3013,0.0,0.0,0.0,0.0,0.0,0.0,0.0,0.0,0.0,0.0,0.0,0.0,0.0,0.0,0.0,0.0,0.0,0.0,0.0,0.0,0.0,0.0,0.0,0.0,0.0,0.0,0.0,0.0,0.0,0.0,0.0,0.0,0.0,0.0,0.0,0.0,0.0,0.0,0.0,0.0,0.0,0.0,0.0,0.0,0.0,0.0,0.0,0.0,0.0,0.0,0.0,0.0,0.0,0.0,0.0,0.0,0.0,0.0,0.0,0.0,0.0,0.0,0.0,0.0,0.0,0.0,0.0,0.0,0.0,0.0,0.0,0.0,0.0,0.0,0.0,0.0,0.0,0.0,0.0,0.0,0.0,0.0,0.0,0.0,0.0,0.0,0.0,0.0,0.0,0.0,0.0,0.0,0.0,0.0,0.0,0.0,0.0,0.0,0.0,0.0,0.0,0.0,4.1803,4.4875,4.707,4.7309,4.7309,4.7309,4.318,3.9978,3.849,3.1741,0.0,0.0,0.0,0.0,0.0,0.0,0.0,0.0,0.0,0.0,0.0,0.0,0.0,0.0,0.0,0.0,0.0,0.0,0.0,0.0,0.0,0.0,0.0,0.0,0.0,0.0,0.0,0.0,0.0,0.0,0.0,0.0,0.0,0.0,0.0,0.0,0.0,0.0,0.0,0.0,0.0,0.0,0.0,0.0,0.0,0.0,0.0,0.0,0.0,0.0,0.0,0.0,0.0,0.0,0.0,0.0,0.0,0.0,0.0,0.0,0.0,0.0,0.0,0.0,0.0,0.0,0.0,0.0,0.0,0.0,0.0,0.0,0.0,0.0,0.0,0.0,0.0,0.0,0.0,0.0,0.0,0.0,0.0,0.0,0.0,0.0,0.0,0.0,0.0,0.0,0.0,0.0,0.0,0.0,0.0,0.0,0.0,0.0,0.0,0.0,0.0,0.0,4.1424,4.4177,4.6999,4.7309,4.6986,4.6188,4.37,4.0615,3.6832,0.0,0.0,0.0,0.0,0.0,0.0,0.0,0.0,0.0,0.0,0.0,0.0,0.0,0.0,0.0,0.0,0.0,0.0,0.0,0.0,0.0,0.0,0.0,0.0,0.0,0.0,0.0,0.0,0.0,0.0,0.0,0.0,0.0,0.0,0.0,0.0,0.0,0.0,0.0,0.0,0.0,0.0,0.0,0.0,0.0,0.0,0.0,0.0,0.0,0.0,0.0,0.0,0.0,0.0,0.0,0.0,0.0,0.0,0.0,0.0,0.0,0.0,0.0,0.0,0.0,0.0,0.0,0.0,0.0,0.0,0.0,0.0,0.0,0.0,0.0,0.0,0.0,0.0,0.0,0.0,0.0,0.0,0.0,0.0,0.0,0.0,0.0,0.0,0.0,0.0,0.0,0.0,0.0,0.0,0.0,0.0,0.0,0.0,0.0,0.0,0.0,0.0,3.8148,4.093,4.3369,4.5836,4.6099,4.5745,4.4875,4.2625,3.9537,3.5476,0.0,0.0,0.0,0.0,0.0,0.0,0.0,0.0,0.0,0.0,0.0,0.0,0.0,0.0,0.0,0.0,0.0,0.0,0.0,0.0,0.0,0.0,0.0,0.0,0.0,0.0,0.0,0.0,0.0,0.0,0.0,0.0,0.0,0.0,0.0,0.0,0.0,0.0,0.0,0.0,0.0,0.0,0.0,0.0,0.0,0.0,0.0,0.0,0.0,0.0,0.0,0.0,0.0,0.0,0.0,0.0,0.0,0.0,0.0,0.0,0.0,0.0,0.0,0.0,0.0,0.0,0.0,0.0,0.0,0.0,0.0,0.0,0.0,0.0,0.0,0.0,0.0,0.0,0.0,0.0,0.0,0.0,0.0,0.0,0.0,0.0,0.0,0.0,0.0,0.0,0.0,0.0,0.0,0.0,0.0,0.0,0.0,0.0,0.0,0.0,0.0,0.0,3.7082,4.0423,4.277,4.3448,4.3504,4.3492,4.348,3.9447,3.6274,0.0,0.0,0.0,0.0,0.0,0.0,0.0,0.0,0.0,0.0,0.0,0.0,0.0,0.0,0.0,0.0,0.0,0.0,0.0,0.0,0.0,0.0,0.0,0.0,0.0,0.0,0.0,0.0,0.0,0.0,0.0,0.0,0.0,0.0,0.0,0.0,0.0,0.0,0.0,0.0,0.0,0.0,0.0,0.0,0.0,0.0,0.0,0.0,0.0,0.0,0.0,0.0,0.0,0.0,0.0,0.0,0.0,0.0,0.0,0.0,0.0,0.0,0.0,0.0,0.0,0.0,0.0,0.0,0.0,0.0,0.0,0.0,0.0,0.0,0.0,0.0,0.0,0.0,0.0,0.0,0.0,0.0,0.0,0.0,0.0,0.0,0.0,0.0,0.0,0.0,0.0,0.0,0.0,0.0,0.0,0.0,0.0,0.0,0.0,0.0,0.0,0.0,0.0,3.772,4.0735,4.277,4.3448,4.3504,4.3146,4.2255,4.0237,3.7325,3.3353,0.0,0.0,0.0,0.0,0.0,0.0,0.0,0.0,0.0,0.0,0.0,0.0,0.0,0.0,0.0,0.0,0.0,0.0,0.0,0.0,0.0,0.0,0.0,0.0,0.0,0.0,0.0,0.0,0.0,0.0,0.0,0.0,0.0,0.0,0.0,0.0,0.0,0.0,0.0,0.0,0.0,0.0,0.0,0.0,0.0,0.0,0.0,0.0,0.0,0.0,0.0,0.0,0.0,0.0,0.0,0.0,0.0,0.0,0.0,0.0,0.0,0.0,0.0,0.0,0.0,0.0,0.0,0.0,0.0,0.0,0.0,0.0,0.0,0.0,0.0,0.0,0.0,0.0,0.0,0.0,0.0,0.0,0.0,0.0,0.0,0.0,0.0,0.0,0.0,0.0,0.0,0.0,0.0,0.0,0.0,0.0,0.0,0.0,0.0,0.0,0.0,0.0,3.7255,3.9868,4.1525,4.1932,4.1985,4.1665,4.092,3.9608,3.7083,3.3044,0.0,0.0,0.0,0.0,0.0,0.0,0.0,0.0,0.0,0.0,0.0,0.0,0.0,0.0,0.0,0.0,0.0,0.0,0.0,0.0,0.0,0.0,0.0,0.0,0.0,0.0,0.0,0.0,0.0,0.0,0.0,0.0,0.0,0.0,0.0,0.0,0.0,0.0,0.0,0.0,0.0,0.0,0.0,0.0,0.0,0.0,0.0,0.0,0.0,0.0,0.0,0.0,0.0,0.0,0.0,0.0,0.0,0.0,0.0,0.0,0.0,0.0,0.0,0.0,0.0,0.0,0.0,0.0,0.0,0.0,0.0,0.0,0.0,0.0,0.0,0.0,0.0,0.0,0.0,0.0,0.0,0.0,0.0,0.0,0.0,0.0,0.0,0.0,0.0,0.0,0.0,0.0,0.0,0.0,0.0,0.0,0.0,0.0,0.0,0.0,0.0,0.0,3.6218,3.8437,3.9735,3.9772,3.9722,3.9697,3.9697,3.8203,3.6134,3.3436,0.0,0.0,0.0,0.0,0.0,0.0,0.0,0.0,0.0,0.0,0.0,0.0,0.0,0.0,0.0,0.0,0.0,0.0,0.0,0.0,0.0,0.0,0.0,0.0,0.0,0.0,0.0,0.0,0.0,0.0,0.0,0.0,0.0,0.0,0.0,0.0,0.0,0.0,0.0,0.0,0.0,0.0,0.0,0.0,0.0,0.0,0.0,0.0,0.0,0.0,0.0,0.0,0.0,0.0,0.0,0.0,0.0,0.0,0.0,0.0,3.4839,3.2564,0.0,0.0,0.0,0.0,0.0,0.0,0.0,0.0,0.0,0.0,0.0,0.0,0.0,0.0,0.0,0.0,0.0,0.0,0.0,0.0,0.0,0.0,0.0,0.0,0.0,0.0,0.0,0.0,0.0,0.0,0.0,0.0,0.0,0.0,0.0,0.0,0.0,0.0,0.0,0.0,3.6532,3.8531,3.9848,4.0287,3.9948,3.9697,3.9697,3.8542,3.6668,3.3929,3.0907,0.0,0.0,0.0,0.0,0.0,0.0,0.0,0.0,0.0,0.0,0.0,0.0,0.0,0.0,0.0,0.0,0.0,0.0,0.0,0.0,0.0,0.0,0.0,0.0,0.0,0.0,0.0,0.0,0.0,0.0,0.0,0.0,0.0,0.0,0.0,0.0,0.0,0.0,0.0,0.0,0.0,0.0,0.0,0.0,0.0,0.0,0.0,0.0,0.0,0.0,0.0,0.0,0.0,0.0,0.0,0.0,0.0,0.0,0.0,4.0645,3.832,0.0,0.0,0.0,0.0,0.0,0.0,0.0,0.0,0.0,0.0,0.0,0.0,0.0,0.0,0.0,0.0,0.0,0.0,0.0,0.0,0.0,0.0,0.0,0.0,0.0,0.0,0.0,0.0,0.0,0.0,0.0,0.0,0.0,0.0,0.0,0.0,0.0,0.0,0.0,0.0,3.697,3.8947,4.0186,4.0462,4.0236,3.9973,3.9722,3.8931,3.76,3.5616,3.2903,0.0,0.0,0.0,0.0,0.0,0.0,0.0,0.0,0.0,0.0,0.0,0.0,0.0,0.0,0.0,0.0,0.0,0.0,0.0,0.0,0.0,0.0,0.0,0.0,0.0,0.0,0.0,0.0,0.0,0.0,0.0,0.0,0.0,0.0,0.0,0.0,0.0,0.0,0.0,0.0,0.0,0.0,0.0,0.0,0.0,0.0,0.0,0.0,0.0,0.0,0.0,0.0,0.0,4.7497,4.8824,4.9684,5.0354,5.1301,5.2133,4.726,4.5475,4.5734,4.2212,0.0,0.0,0.0,0.0,0.0,0.0,0.0,0.0,0.0,0.0,0.0,0.0,0.0,0.0,0.0,0.0,0.0,0.0,0.0,0.0,0.0,0.0,3.6315,3.7191,3.7985,3.7301,3.281,0.0,0.0,0.0,0.0,0.0,0.0,0.0,0.0,0.0,0.0,0.0,3.7554,3.9537,4.0688,4.0802,4.0613,4.0312,3.9873,3.9333,3.8542,3.7399,3.5114,3.2903,0.0,0.0,0.0,0.0,0.0,0.0,0.0,0.0,0.0,0.0,0.0,0.0,0.0,0.0,0.0,0.0,0.0,0.0,0.0,0.0,0.0,0.0,0.0,0.0,0.0,0.0,0.0,0.0,0.0,0.0,0.0,0.0,3.4927,3.6433,0.0,0.0,0.0,0.0,0.0,0.0,0.0,0.0,0.0,0.0,0.0,0.0,0.0,4.5773,4.711,5.072,5.2067,5.1199,5.4837,5.6077,5.5174,5.579,5.6496,5.7158,5.6363,0.0,4.8648,4.695,0.0,0.0,0.0,0.0,0.0,0.0,0.0,0.0,0.0,0.0,0.0,0.0,0.0,0.0,0.0,0.0,0.0,0.0,0.0,0.0,0.0,0.0,4.1249,4.1401,4.1863,4.172,3.9575,3.6478,3.348,3.1317,3.0159,2.909,0.0,0.0,0.0,0.0,0.0,0.0,3.8399,4.0164,4.1391,4.1909,4.1078,4.0462,4.0412,3.9898,3.9094,3.7965,3.7123,3.6081,3.4792,3.2305,0.0,0.0,0.0,0.0,0.0,0.0,0.0,0.0,0.0,0.0,0.0,0.0,0.0,0.0,0.0,0.0,0.0,0.0,0.0,0.0,0.0,0.0,0.0,0.0,0.0,0.0,0.0,0.0,0.0,3.4417,3.728,3.7888,3.7785,3.7007,0.0,0.0,0.0,0.0,0.0,0.0,0.0,0.0,0.0,4.8267,4.9901,5.1546,5.3246,5.5346,5.6483,5.6658,5.8786,5.9684,5.9532,6.019,6.0105,5.9433,5.9038,5.6682,5.2951,5.1298,4.8433,4.4851,0.0,0.0,0.0,0.0,4.162,4.191,4.3252,4.3224,4.2272,4.016,0.0,0.0,0.0,0.0,0.0,0.0,0.0,3.8747,3.9399,4.1273,4.3049,4.3078,4.3514,4.3614,4.2571,4.0974,3.8565,3.465,3.3725,3.2548,2.9241,2.9751,0.0,0.0,0.0,3.7113,3.9497,4.0978,4.1895,4.2174,4.1758,4.1304,4.0976,4.0725,4.0387,3.9897,3.9069,3.8253,3.7437,3.534,3.3291,0.0,0.0,0.0,0.0,0.0,0.0,0.0,0.0,0.0,0.0,0.0,0.0,0.0,0.0,0.0,0.0,0.0,0.0,0.0,0.0,0.0,0.0,0.0,0.0,0.0,0.0,0.0,0.0,3.7524,3.9918,3.9918,4.1115,4.0747,0.0,0.0,0.0,0.0,0.0,0.0,4.72,4.9235,5.145,5.3892,5.5256,5.654,5.77,5.8381,5.8986,5.9561,6.006,6.0647,6.1278,6.1615,6.1151,6.004,5.9398,5.8032,5.6102,5.4046,5.1529,4.8764,4.6751,4.5348,4.4601,4.5923,4.6017,4.5818,4.8408,4.8326,4.6731,4.482,4.3575,4.2023,3.7809,0.0,0.0,0.0,0.0,4.2038,4.2812,4.3789,4.4626,4.4807,4.5056,4.5116,4.4729,4.4443,4.2836,3.8116,3.7438,3.6334,3.2179,3.2706,0.0,3.3556,3.6093,3.8793,4.0877,4.1996,4.2576,4.2425,4.2274,4.2009,4.1567,4.1403,4.1289,4.1289,4.0563,3.9923,3.9534,3.8039,3.6331,3.4396,0.0,0.0,0.0,0.0,0.0,0.0,0.0,0.0,0.0,0.0,0.0,0.0,0.0,0.0,0.0,0.0,0.0,0.0,0.0,0.0,0.0,0.0,0.0,0.0,0.0,0.0,0.0,0.0,0.0,4.4007,4.6841,0.0,0.0,0.0,0.0,4.5852,4.8263,5.0637,5.2677,5.4725,5.6718,5.868,6.0043,6.0326,5.9388,6.0037,5.9626,5.8119,5.8146,5.8448,5.8938,5.8475,5.8483,5.8865,5.8321,5.7665,5.6736,5.4172,5.2623,5.1683,4.9679,4.9227,4.9649,4.9104,4.9677,5.0559,4.942,4.8712,4.8242,4.7795,4.6459,4.4718,4.3063,4.2527,0.0,0.0,4.3165,4.4659,4.5797,4.6512,4.7075,4.7581,4.734,4.6973,4.6948,4.6135,4.4708,4.2324,4.143,4.0474,3.8705,0.0,3.8065,3.912,3.9898,4.0953,4.2649,4.3377,4.3514,4.3,4.2487,4.2199,4.2149,4.1617,4.1289,4.1289,4.1239,4.1227,4.1188,4.0111,3.8969,3.7789,3.3986,0.0,0.0,0.0,0.0,0.0,0.0,0.0,0.0,0.0,0.0,0.0,0.0,0.0,0.0,0.0,0.0,0.0,0.0,0.0,0.0,0.0,0.0,0.0,0.0,0.0,0.0,0.0,0.0,4.8065,5.0679,0.0,4.8663,4.9811,5.093,5.1367,5.3808,5.5974,5.7556,5.8438,5.9407,6.0486,6.0276,5.9786,5.9058,5.9614,5.944,5.8521,5.8859,5.913,5.9306,5.8765,5.8019,5.7162,5.6578,5.5577,5.4287,5.3367,5.3011,5.299,5.2273,5.1544,5.0834,5.0596,5.0824,5.117,5.0656,5.0139,4.9532,4.875,4.7551,4.632,4.5787,4.5622,4.5537,4.5385,4.601,4.6813,4.7214,4.7465,4.7666,4.7842,4.7741,4.7616,4.7616,4.7315,4.6803,4.6024,4.4267,4.2395,4.0738,4.0877,4.1103,4.0789,4.1818,4.2947,4.3915,4.4202,4.4102,4.3564,4.3639,4.3463,4.2763,4.2836,4.2596,4.192,4.1517,4.1138,4.08,4.0099,3.9358,3.858,3.6495,3.352,0.0,0.0,0.0,0.0,0.0,0.0,0.0,0.0,0.0,0.0,0.0,0.0,0.0,0.0,0.0,0.0,0.0,0.0,0.0,0.0,0.0,0.0,0.0,0.0,0.0,4.732,5.1031,5.1176,5.4149,5.5329,5.3114,5.47,5.5964,5.6273,5.8075,5.9412,5.9903,6.0057,6.0309,6.0693,5.9984,5.915,5.8243,5.8574,5.8292,5.7394,5.7735,5.8012,5.8156,5.7618,5.6881,5.5968,5.5372,5.4501,5.3482,5.3482,5.3674,5.3904,5.3515,5.2735,5.1825,5.1825,5.1825,5.18,5.1624,5.1322,5.0845,4.9933,4.9113,4.852,4.852,4.852,4.8469,4.8253,4.8469,4.8695,4.8535,4.8485,4.8485,4.8485,4.8335,4.8259,4.8435,4.8184,4.7958,4.8159,4.6577,4.4704,4.3234,4.36,4.379,4.2872,4.365,4.4493,4.4855,4.4905,4.4679,4.4127,4.4227,4.4027,4.3327,4.3251,4.2964,4.2249,4.1455,4.0876,4.0499,3.9622,3.8944,3.8605,3.7123,3.4826,3.1702,0.0,0.0,0.0,0.0,0.0,0.0,0.0,0.0,0.0,0.0,0.0,0.0,0.0,0.0,0.0,0.0,0.0,0.0,0.0,0.0,0.0,0.0,0.0,4.651,5.1068,5.4162,5.3545,5.7496,5.9249,5.6623,5.9257,6.0933,6.0404,6.0914,6.0756,5.9658,5.9582,5.955,5.955,5.9512,5.8702,5.706,5.7053,5.6262,5.4622,5.4647,5.4906,5.5408,5.4856,5.4906,5.5383,5.483,5.4597,5.4597,5.4597,5.4597,5.4496,5.3364,5.292,5.292,5.2895,5.2895,5.2837,5.231,5.2126,5.2051,5.1515,5.1339,5.1314,5.1314,5.1314,5.1188,5.0578,5.0427,5.0302,4.9791,4.964,4.964,4.9615,4.9229,4.8994,4.9506,4.8736,4.8134,4.8702,4.8335,4.7616,4.6537,4.6336,4.6175,4.5638,4.5562,0.0,4.5537,4.5537,4.5296,4.4704,4.4177,4.3865,4.3815,4.2838,4.2224,4.2149,4.1078,4.0487,4.0487,3.8906,3.8065,3.809,3.5919,3.4539,3.3972,0.0,0.0,0.0,0.0,0.0,0.0,0.0,0.0,0.0,0.0,0.0,0.0,0.0,0.0,0.0,0.0,0.0,0.0,0.0,0.0,0.0,4.9093,5.2426,5.145,5.5448,5.8783,5.9561,6.2032,6.2867,6.0805,6.1428,6.1378,5.9918,5.9957,5.9915,5.9637,5.883,5.8377,5.8377,5.7564,5.6743,5.588,5.6252,5.6019,5.5182,5.5566,5.5842,5.5968,5.5415,5.5257,5.5383,5.483,5.4597,5.4597,5.4597,5.4597,5.4522,5.3758,5.3482,5.3414,5.3038,5.2895,5.2887,5.2737,5.2686,5.2661,5.2511,5.2201,5.1875,5.1875,5.1599,5.1264,5.1113,5.1046,5.1013,5.0862,5.0837,5.072,5.0277,5.0067,4.9891,4.964,4.9339,4.9163,4.9355,4.9238,4.8786,4.7641,4.7465,4.7265,4.6737,4.6662,4.6512,4.6125,4.6075,4.5874,4.5321,4.5472,4.5121,4.389,4.3528,4.2674,4.1078,4.03,3.9923,3.9923,3.9471,3.9421,3.981,3.8028,3.6634,0.0,0.0,0.0,0.0,0.0,0.0,0.0,0.0,0.0,0.0,0.0,0.0,0.0,0.0,0.0,0.0,0.0,0.0,0.0,0.0,0.0,0.0,5.3646,5.6223,5.6546,5.891,6.0998,6.2072,6.2729,6.2804,6.1997,6.2155,6.1672,6.0138,6.0028,5.9686,5.8935,5.8267,5.7903,5.7903,5.7272,5.6771,5.6445,5.652,5.6376,5.6068,5.615,5.62,5.6175,5.5892,5.5742,5.5717,5.5408,5.5282,5.5282,5.5282,5.5282,5.5182,0.0,0.0,0.0,0.0,5.3088,5.2895,5.2895,5.2895,5.2895,5.2895,5.2686,5.2435,5.2435,5.2226,5.1925,5.1699,5.1641,5.159,5.1364,5.1289,5.1214,5.087,5.077,5.0695,5.0385,5.0309,5.0234,4.9992,4.9941,0.0,4.8761,4.8426,4.8083,4.7516,4.744,4.7315,4.7014,4.6788,4.6512,4.6185,4.605,4.5573,4.4593,4.3865,0.0,0.0,0.0,3.9823,3.9383,3.9584,0.0,0.0,0.0,0.0,0.0,0.0,0.0,0.0,3.7551,3.75,0.0,0.0,0.0,0.0,0.0,0.0,0.0,0.0,0.0,0.0,0.0,0.0,0.0,0.0,0.0,0.0,5.7112,5.8621,6.1084,6.13,6.1452,6.2129,6.1373,6.0941,6.1288,6.1791,6.1593,6.0373,6.0299,5.9576,5.7995,5.7901,0.0,0.0,0.0,5.7901,5.7901,5.738,5.7085,5.7085,5.6627,5.6376,5.6394,5.6326,5.6276,5.6276,5.6244,5.62,5.62,5.62,5.62,5.6118,5.5082,5.4647,5.4547,5.4002,5.3507,5.3088,5.2995,0.0,0.0,5.2937,5.2895,5.2895,5.2895,5.2895,5.2795,5.231,5.2201,5.2076,5.1599,5.149,5.1465,5.1414,5.1389,5.1364,5.1314,5.1289,5.1138,5.0619,5.0503,5.0368,4.9866,4.928,4.8677,4.8083,4.8008,4.7983,4.7908,4.749,4.7199,4.7199,4.6351,0.0,4.5688,4.4256,4.3277,4.3101,4.1681,4.0475,3.9572,4.0187,4.0727,4.114,4.2286,4.3793,4.5673,4.6301,4.6863,4.7249,4.2247,4.1468,0.0,0.0,0.0,0.0,0.0,0.0,0.0,0.0,0.0,0.0,0.0,0.0,0.0,0.0,0.0,5.6475,5.8633,6.0421,6.1891,6.1318,6.0955,6.1497,6.2265,6.2234,6.0874,6.0864,6.0222,5.8562,5.8413,5.827,5.792,5.7901,5.7901,5.7901,5.7901,5.7901,5.7901,5.7775,5.7725,5.7706,5.7625,0.0,5.7549,5.7079,5.6835,5.6809,5.6376,5.62,5.62,5.62,5.62,5.6143,5.5509,5.4981,5.4597,5.4471,5.4353,5.4202,5.3708,5.3557,5.3464,5.3038,5.2895,5.2895,5.2895,5.2895,0.0,5.2787,5.2762,5.2737,5.2611,5.2586,5.2485,5.2051,5.195,5.1825,5.1389,5.1289,5.1264,5.1163,5.1138,5.1071,5.0987,5.0134,4.9254,4.8702,4.8626,4.8451,4.7958,4.7817,4.7741,4.7741,4.7556,4.7265,4.6838,4.6085,4.507,4.374,4.3338,4.3248,4.3474,4.4905,4.5518,4.5181,4.625,4.6803,4.6798,4.7823,4.8601,4.9063,4.7079,4.6502,0.0,0.0,0.0,0.0,0.0,0.0,0.0,0.0,0.0,0.0,0.0,4.9119,5.1416,0.0,5.5931,5.8825,5.972,6.0381,6.1331,6.0406,5.9992,6.0905,6.1015,6.0627,5.9739,5.9903,5.967,5.8756,5.8704,5.8704,5.8704,5.8704,5.8704,5.8704,5.8704,5.8704,5.8704,5.8428,5.8284,5.8284,5.8027,5.7901,5.7901,5.76,5.7455,5.743,5.7173,5.7047,5.7047,5.7047,5.7047,5.6997,5.6401,5.5717,5.5006,5.5006,5.483,5.4572,5.4253,5.4152,5.4077,5.3507,5.3289,5.3239,5.2988,5.2895,5.2895,5.2895,5.2895,5.2895,5.2895,5.2895,5.282,5.2561,5.2511,5.2435,5.2176,5.2101,5.2026,5.1749,5.1699,5.1615,5.1339,5.0837,5.036,5.0083,4.9807,4.949,4.9172,4.8686,4.835,4.835,4.8083,4.7792,4.75,4.7014,4.6235,4.5106,4.5307,4.5583,4.5844,4.7189,4.7832,4.7572,4.8595,4.9172,4.9213,5.0042,5.072,5.123,5.0653,5.0252,0.0,0.0,0.0,0.0,0.0,0.0,0.0,4.5544,4.679,5.0283,5.1937,5.3537,5.6065,5.6839,5.7988,6.0763,6.0199,5.965,6.0305,5.9512,5.9224,6.0252,5.9474,5.8861,5.8861,5.9257,5.9483,5.9483,5.9583,5.9659,5.9659,5.9659,5.9659,5.9659,5.9558,5.9483,5.9483,5.9062,5.8861,5.8836,5.8428,5.8202,5.8202,5.8102,5.8052,5.8052,5.7951,5.7901,5.7901,5.7901,5.7901,5.7851,5.7355,5.6671,5.586,5.5659,5.5358,5.5031,5.4823,5.4773,5.4647,5.3934,5.3708,5.3607,5.3063,5.2895,5.2895,5.2895,5.2895,5.2895,5.2895,5.2895,5.2895,5.2895,5.2895,5.2895,5.2895,5.2895,5.2787,5.2335,5.2277,5.2126,5.1691,5.1599,5.154,5.1339,5.0896,5.0553,5.0553,4.9715,4.9154,4.9254,4.8636,4.8284,4.8385,4.7977,4.7616,4.7305,4.7566,4.7801,4.7902,4.8903,4.943,4.943,5.0377,5.1105,5.1599,5.2051,5.2485,5.2895,5.2895,5.2661,4.0745,4.0834,4.2062,4.6153,4.5973,4.7249,0.0,5.6735,5.5863,5.9757,6.0735,6.0811,6.058,5.9841,5.9528,6.0373,5.9547,5.9009,5.9558,5.9492,5.946,5.9615,5.9492,5.9408,5.9408,5.9458,5.9483,5.9483,5.996,6.0217,6.0217,6.0217,6.0217,6.0217,5.9759,5.9483,5.9483,5.9433,5.9408,5.9408,5.9332,5.9307,5.9307,5.883,5.861,5.8585,5.8102,5.7901,5.7901,5.7901,5.7901,5.7901,5.7826,5.7725,5.7499,5.6477,5.6376,5.6602,5.5641,5.5308,5.5132,5.4059,5.3708,5.3607,5.3063,5.2895,5.2895,5.2895,5.2895,5.2895,5.2895,5.2895,5.2895,5.2895,5.2895,5.2895,5.2895,5.2895,5.287,5.2837,5.2795,5.2787,5.2737,5.2737,5.2385,5.144,5.1239,5.1214,5.1214,5.0619,5.0419,5.0962,5.0058,4.9615,5.0076,5.0076,5.0226,5.0711,5.0277,5.0252,5.0812,5.1398,5.1724,5.1724,5.231,5.2644,5.2737,5.2787,5.2845,5.2895,5.2895,5.2887,4.707,4.7978,4.8917,5.163,5.2815,5.4581,5.9428,6.007,6.0108,6.1805,6.2254,6.189,6.0525,5.9623,5.9169,5.9381,5.9275,5.9257,5.9458,5.9232,5.893,5.8604,5.8554,5.8805,5.9433,5.9483,5.9633,5.996,6.0166,6.0442,6.0814,6.0493,6.0442,6.0814,5.996,5.9659,5.994,5.9985,5.9809,5.9483,5.9834,5.9809,5.9483,5.9282,5.9182,5.9156,5.893,5.883,5.883,5.883,5.883,5.8805,5.8504,5.8554,5.8704,5.76,5.7104,5.6935,5.6502,5.6143,5.5742,5.4938,5.4687,5.4511,5.3615,5.3381,5.3289,5.2988,5.2895,5.2895,5.2895,5.2895,5.2895,5.2895,5.2895,5.2895,5.2895,5.2895,5.2895,5.2895,5.2895,5.2895,5.2895,5.2895,5.2762,5.2285,5.1975,5.1749,5.1749,5.1272,5.1021,5.1264,5.0862,5.0686,5.0896,5.0921,5.1021,5.1289,5.1348,5.1498,5.1749,5.2285,5.2561,5.2561,5.2787,5.3063,5.3381,5.3381,5.3557,5.3884,5.3884,5.3884,5.072,5.2408,5.3875,5.5568,5.8112,6.0475,6.1493,6.275,6.3639,6.3334,6.2947,6.2102,6.0225,5.9101,5.8535,5.8685,5.9012,5.9282,5.9282,5.8811,5.8259,5.7725,5.7524,5.7801,5.873,5.9106,5.9558,6.0242,6.0442,6.0814,6.1411,6.1014,6.0964,6.1411,6.0482,6.0161,6.0543,6.0563,6.0362,5.996,6.0362,6.0337,5.996,5.996,5.9885,5.9734,5.9734,5.9633,5.9483,5.9483,5.9483,5.9458,5.9062,5.9156,5.9408,5.8629,5.7957,5.7412,5.7111,5.6753,5.6301,5.5616,5.5408,5.5232,5.4235,5.3934,5.3833,5.3264,5.3239,5.3289,5.2988,5.3013,5.3088,5.2937,5.2895,5.2895,5.2895,5.2895,5.2895,5.2895,5.2895,5.2895,5.2895,5.2895,5.2895,5.2895,5.2561,5.231,5.231,5.1975,5.1641,5.1339,5.1548,5.1674,5.154,5.1649,5.1724,5.1724,5.2126,5.231,5.231,5.2686,5.2895,5.2895,5.3063,5.3314,5.3708,5.3858,5.4177,5.4597,5.4597,5.4672,4.9696,5.172,5.4777,5.7367,6.0505,6.3482,6.5383,6.6864,6.7458,6.6235,6.4584,6.28,6.0933,5.9105,5.8102,5.861,5.871,5.8736,5.8736,5.8278,5.77,5.7085,5.6577,5.6477,5.701,5.8083,5.9162,6.0217,6.0839,6.1411,6.1943,6.1969,6.1969,6.1994,6.1461,6.116,6.1185,6.1185,6.116,6.116,6.116,6.116,6.116,6.116,6.0814,6.0267,6.0267,5.9985,5.9483,5.9483,5.9483,5.9483,5.9483,5.9483,5.9483,5.9458,5.9106,5.8485,5.7387,5.6985,5.6784,5.5742,5.5408,5.5308,5.4748,5.4572,5.4446,5.3833,5.4102,5.4278,5.3188,5.3289,5.354,5.302,5.2895,5.2895,5.2895,5.2895,5.2895,5.2895,5.2895,5.2895,5.2895,5.2895,5.2895,5.2895,5.2887,5.2887,5.2887,5.2845,5.246,5.1414,5.2226,5.2636,5.2126,5.2561,5.2845,5.2845,5.2887,5.2887,5.2887,5.2895,5.2895,5.2895,5.3389,5.3683,5.3708,5.4278,5.4572,5.4597,5.4597,5.4881,5.3875,5.6585,5.9415,6.2033,6.4545,6.6305,6.6092,6.6468,6.5935,6.2529,6.1426,6.0377,5.8081,5.7187,5.7097,5.8027,5.8177,5.8284,5.866,5.8535,5.7807,5.6143,5.6401,5.6527,5.5993,5.6928,5.8334,6.0166,6.0493,6.117,6.245,6.2174,6.2149,6.2526,6.1667,6.1386,6.1718,6.1718,6.1542,6.121,6.121,6.121,6.121,6.121,6.111,6.0889,6.0889,6.0788,6.0632,6.0632,6.0387,6.0035,6.0035,5.9809,5.9483,5.9483,5.9382,5.9131,5.8384,5.7612,5.6935,5.6577,5.6226,5.5842,5.5308,5.5132,5.5006,5.4454,5.4429,5.4522,5.4127,5.4152,5.4253,5.4077,5.4027,5.4027,5.4027,5.3708,5.3414,5.3414,5.3138,5.2895,5.2895,5.2895,5.2895,5.2895,5.2895,5.2895,5.2895,5.2895,5.2744,5.241,5.2686,5.2837,5.2661,5.2812,5.2895,5.2895,5.2895,5.2895,5.2895,5.3239,5.3414,5.3414,5.4002,5.4479,5.4813,5.3642,5.3265,5.3586,5.3586,5.2952,5.7513,6.0146,6.251,6.5338,6.6864,6.7423,6.6401,6.5734,6.415,6.002,5.8787,5.7686,5.5186,5.4393,5.4745,5.6696,5.6997,5.7399,5.8535,5.8535,5.7826,5.6168,5.6577,5.6809,5.6344,5.7079,5.8284,5.989,6.0392,6.119,6.245,6.2375,6.2425,6.2802,6.2144,6.1943,6.2275,6.2275,6.2119,6.1768,6.1768,6.1768,6.1768,6.1768,6.1667,6.1512,6.1512,6.1386,6.121,6.121,6.0839,6.0292,6.0292,5.9966,5.9483,5.9483,5.9483,5.9408,5.8886,5.8234,5.7562,5.7361,5.7079,5.6721,5.6143,5.5968,5.5817,5.5082,5.5006,5.5082,5.4697,5.4748,5.4848,5.4647,5.4597,5.4597,5.4597,5.4303,5.3959,5.3733,5.3607,5.3381,5.297,5.2895,5.2895,5.2895,5.2895,5.2895,5.2895,5.2895,5.2895,5.2895,5.2895,5.2895,5.2895,5.2895,5.2895,5.2895,5.3088,5.3188,5.3188,5.3708,5.4027,5.4027,5.4579,5.5056,5.5408,5.3519,5.2748,5.3081,5.2487,5.1408,6.0386,6.2301,6.4126,6.7191,6.7526,6.6926,6.6189,6.4595,6.2247,5.8605,5.6566,5.4715,5.2253,5.103,5.1456,5.4737,5.5433,5.6269,5.8434,5.8334,5.7807,5.7161,5.7136,5.738,5.7901,5.8434,5.8987,5.9508,6.0582,6.1461,6.2019,6.2526,6.2802,6.2802,6.2802,6.2802,6.2802,6.2802,6.2802,6.2802,6.2802,6.2802,6.2802,6.2802,6.2526,6.2044,6.2044,6.1743,6.1285,6.1285,6.0914,6.0342,6.0342,6.001,5.9483,5.9483,5.9483,5.9433,5.8911,5.8736,5.861,5.8102,5.7926,5.7801,5.7179,5.6985,5.6784,5.5742,5.5817,5.5968,5.4949,5.5056,5.5308,5.4798,5.4672,5.4672,5.4672,5.4672,5.4471,5.3909,5.4228,5.4253,5.3163,5.2988,5.2988,5.2988,5.2988,5.2962,5.2895,5.2895,5.2895,5.2895,5.2895,5.2895,5.2895,5.2937,5.2945,5.2945,5.3439,5.3758,5.3758,5.4303,5.4647,5.4647,5.5067,5.5296,5.5303,5.3646,5.2826,5.2793,5.121,5.0206,6.263,6.5323,6.7466,6.737,6.7285,6.6354,6.2912,6.0496,5.7861,5.3884,5.1736,5.0003,4.8127,4.9222,5.108,5.3188,5.5641,5.775,5.9106,5.991,5.9834,5.8434,5.8987,5.9207,5.8548,5.9357,5.994,6.0111,6.0763,6.1592,6.2551,6.2727,6.2802,6.2802,6.2802,6.2802,6.2802,6.2802,6.2802,6.2802,6.2802,6.2802,6.2802,6.2802,6.2727,6.2601,6.2601,6.2526,6.2375,6.2375,6.1843,6.0964,6.0964,6.0362,5.9483,5.9483,5.9483,5.9483,5.9332,5.9037,5.8685,5.8535,5.8227,5.7801,5.7179,5.6985,5.686,5.6194,5.6075,5.6143,5.5867,5.5892,5.5968,5.5817,5.5792,5.5792,5.5792,5.5483,5.5157,5.5006,5.4755,5.4522,5.4202,5.4177,5.4177,5.4177,5.4177,5.3876,5.3013,5.2895,5.2895,5.2895,5.2895,5.2895,5.2895,5.3264,5.3507,5.3507,5.4052,5.4353,5.4353,5.4906,5.5207,5.5207,5.42,5.3814,5.4124,5.0614,4.9073,4.9359,4.894,4.7836,6.5503,6.7172,6.7995,6.733,6.5777,6.3367,5.945,5.6551,5.3502,4.9251,4.7405,4.6024,4.4116,4.621,4.8887,5.0795,5.431,5.7424,5.9232,6.0482,6.0839,5.991,6.0537,6.0814,6.0205,6.0914,6.1396,6.1396,6.1492,6.1818,6.2425,6.2676,6.2802,6.2802,6.2802,6.2802,6.2802,6.2802,6.2802,6.2802,6.2802,6.2802,6.2802,6.2802,6.2802,6.2802,6.2802,6.2802,6.2802,6.2802,6.23,6.1517,6.1285,6.0808,6.0211,5.996,5.9859,5.9859,5.9859,5.9508,5.9056,5.9056,5.8855,5.8504,5.7926,5.7732,5.7562,5.6778,5.6552,5.6502,5.6251,5.62,5.6251,5.6502,5.6376,5.6251,5.6502,5.6143,5.5742,5.5742,5.5132,5.4672,5.4906,5.4773,5.4597,5.4597,5.4597,5.4371,5.3733,5.3658,5.3658,5.3658,5.3658,5.3658,5.3658,5.3926,5.4102,5.4102,5.3777,5.358,5.358,5.3406,5.3287,5.3287,5.264,5.2418,5.2637,4.9356,4.7897,4.8066,4.7378,4.6324,6.8315,6.821,6.7156,6.689,6.3625,5.9554,5.601,5.2843,4.9389,4.5056,4.3625,4.2534,4.0538,4.2961,4.6065,4.8517,5.257,5.6394,5.9307,6.0658,6.1336,6.1411,6.1818,6.2119,6.2119,6.2601,6.2927,6.2927,6.2551,6.227,6.2119,6.2551,6.2802,6.2802,6.2802,6.2802,6.2802,6.2802,6.2802,6.2802,6.2802,6.2802,6.2802,6.2802,6.2802,6.2802,6.2802,6.2802,6.2802,6.2802,6.2476,6.1943,6.1512,6.126,6.1135,6.0613,6.0417,6.0417,6.0417,6.0111,5.9684,5.9533,5.9483,5.9382,5.8849,5.8704,5.8459,5.7311,5.706,5.6985,5.6451,5.6351,5.6527,5.7004,5.6753,5.6527,5.6928,5.6577,5.62,5.62,5.5458,5.4956,5.5433,5.5182,5.4906,5.4906,5.4999,5.5024,5.4931,5.4748,5.4597,5.4597,5.4597,5.4491,5.4199,5.4256,5.4181,5.3987,5.2762,5.2104,5.2151,5.1227,5.0696,5.0696,5.0821,5.0904,5.095,4.881,4.7817,4.7817,4.6427,4.5547,6.9528,6.8902,6.7312,6.4862,6.179,5.8114,5.3196,4.9519,4.616,4.2593,4.0752,3.9484,3.8592,4.153,4.5271,4.8878,5.2804,5.6689,6.0406,6.1441,6.2044,6.2476,6.2601,6.2676,6.2676,6.3199,6.355,6.355,6.3873,6.3672,6.2701,6.2752,6.2802,6.2802,6.2802,6.2802,6.2802,6.2802,6.2802,6.2802,6.2802,6.2802,6.2802,6.2802,6.2802,6.2802,6.2802,6.2802,6.2802,6.2802,6.2476,6.1994,6.1893,6.1592,6.1185,6.1085,6.104,6.104,6.104,6.0984,6.0758,5.9809,5.9483,5.9408,5.8861,5.8685,5.8459,5.7311,5.7355,5.7625,5.701,5.723,5.7625,5.7725,5.7675,5.7499,5.7104,5.6577,5.62,5.62,5.6068,5.5968,5.6068,5.6351,5.6577,5.6577,5.7022,5.7148,5.6652,5.5415,5.4597,5.4597,5.4597,5.3871,5.2115,5.2395,5.2121,5.0715,5.0792,5.1069,5.1459,5.1281,5.119,5.119,4.9521,4.8854,4.9235,4.7132,4.6285,4.6597,4.6327,4.6152,6.9008,6.7818,6.5785,6.2501,5.9193,5.5348,4.9916,4.6552,4.3463,3.9546,3.814,3.7336,3.6458,3.9684,4.3299,4.5763,4.9656,5.3934,5.8403,5.9508,6.0613,6.2576,6.3078,6.3274,6.3274,6.3776,6.4124,6.4124,6.435,6.4249,6.3701,6.3425,6.3274,6.3274,6.2952,6.2802,6.2802,6.2802,6.2802,6.2802,6.2802,6.2802,6.2802,6.2802,6.2802,6.2802,6.2802,6.2802,6.2802,6.2802,6.2651,6.2375,6.2119,6.2019,6.1994,6.1718,6.1617,6.1617,6.1617,6.1416,6.111,6.0557,6.0362,6.0261,5.9689,5.9539,5.9313,5.8208,5.8083,5.8183,5.7606,5.7681,5.7976,5.8234,5.8328,5.8158,5.7581,5.7273,5.7097,5.7097,5.7097,5.7097,5.7097,5.7305,5.7455,5.7455,5.7725,5.738,5.5936,5.5077,5.482,5.5357,5.4917,5.4052,5.2706,5.2092,5.1441,5.0627,4.9774,4.9408,4.9646,4.8814,4.838,4.838,4.7802,4.759,4.7814,4.6811,4.6404,4.6599,4.6599,4.6599,6.8081,6.6571,6.4319,6.0643,5.7052,5.2947,4.738,4.4217,4.1267,3.7085,3.6029,3.5653,3.5004,3.7915,4.1065,4.3011,4.6667,5.1005,5.6107,5.7631,5.9382,6.245,6.335,6.3747,6.3873,6.435,6.4651,6.4651,6.4777,6.4726,6.45,6.4099,6.3873,6.3873,6.3425,6.3153,6.3153,6.3053,6.2978,6.2978,6.2877,6.2802,6.2802,6.2802,6.2802,6.2802,6.2802,6.2802,6.2802,6.2802,6.2802,6.2777,6.2325,6.2425,6.2752,6.2325,6.2169,6.2169,6.2169,6.1893,6.1542,6.1542,6.1386,6.111,6.0638,6.0392,6.0091,5.9137,5.8861,5.8736,5.8202,5.8152,5.8353,5.8761,5.8786,5.8585,5.8177,5.7976,5.7901,5.7901,5.7901,5.7901,5.7901,5.7618,5.7364,5.7364,5.7057,5.6149,5.4308,5.4163,5.4482,5.5073,5.4382,5.3526,5.2576,5.1338,5.0482,5.0124,4.8607,4.7753,4.7835,4.6728,4.6115,4.6115,4.6738,4.7048,4.7048,4.7048,4.7048,4.7048,4.7048,4.7048,6.753,6.6215,6.4227,6.0189,5.6476,5.2327,4.6843,4.3062,3.9759,3.6297,3.4815,3.4399,3.5269,3.6597,3.9107,4.37,4.6486,4.9992,5.5498,5.8052,6.0211,6.2526,6.335,6.3898,6.4396,6.4902,6.5229,6.5229,6.5685,6.5534,6.4551,6.445,6.4446,6.4446,6.4375,6.435,6.435,6.3873,6.3626,6.3601,6.3053,6.2802,6.2802,6.2802,6.2802,6.2802,6.2802,6.2802,6.2802,6.2802,6.2802,6.2802,6.2752,6.2777,6.2802,6.2752,6.2727,6.2727,6.2727,6.2701,6.2651,6.2651,6.1994,6.1185,6.1135,6.0738,6.0166,5.9583,5.9433,5.9282,5.8774,5.9,5.9357,5.9408,5.9037,5.8685,5.8635,5.8234,5.7901,5.7901,5.7901,5.7901,5.7901,5.6661,5.5619,5.5619,5.4323,5.3121,5.2425,5.2763,5.2712,5.184,5.1658,5.0799,4.8805,4.8498,4.7775,4.6318,4.6369,4.6632,4.6983,4.7279,4.7425,4.7425,4.7503,4.7542,4.7542,4.7542,4.7542,4.7542,4.7542,4.7542,6.5374,6.4443,6.2538,5.8375,5.5264,5.1858,4.6677,4.266,3.927,3.6584,3.4901,3.4237,3.5294,3.617,3.7914,4.1542,4.2872,4.5382,5.0962,5.3055,5.5598,5.984,6.1723,6.3274,6.4827,6.5807,6.646,6.6789,6.6689,6.646,6.6033,6.5354,6.4978,6.4978,6.4651,6.4496,6.4496,6.4274,6.4174,6.4174,6.3601,6.335,6.335,6.2978,6.2802,6.2802,6.2802,6.2802,6.2802,6.2802,6.2802,6.2802,6.2802,6.2802,6.2802,6.2802,6.2802,6.2802,6.2802,6.2802,6.2802,6.2802,6.2501,6.2099,6.1768,6.1517,6.114,6.0217,5.9985,5.9935,5.9709,6.0085,6.0412,6.0085,5.9815,5.9564,5.9257,5.9006,5.8466,5.714,5.6882,5.6447,5.5122,5.4343,5.3916,5.3916,5.3343,5.2338,5.0792,5.0775,5.0336,4.881,4.9617,4.98,4.8609,4.782,4.7083,4.647,4.6836,4.7148,4.7305,4.7503,4.76,4.76,4.7832,4.7949,4.7949,4.7949,4.7949,4.7949,4.7949,4.7949,6.2875,6.239,6.0753,5.6931,5.4167,5.1205,4.6567,4.2498,3.9082,3.6845,3.5189,3.4413,3.5332,3.5983,3.7198,3.9647,4.0701,4.3011,4.809,5.0142,5.2962,5.7882,6.0136,6.2195,6.458,6.6284,6.7389,6.7769,6.7464,6.7163,6.7012,6.6234,6.5731,6.5534,6.5179,6.4978,6.4978,6.4802,6.4726,6.4726,6.4199,6.3847,6.3676,6.3425,6.3128,6.2827,6.2978,6.3078,6.3078,6.3078,6.3078,6.3078,6.3078,6.2952,6.2802,6.2802,6.2802,6.2802,6.2802,6.2802,6.2802,6.2802,6.2802,6.2727,6.235,6.2144,6.1843,6.102,6.0693,6.0588,6.0588,6.0889,6.0926,5.9801,5.9543,5.9192,5.8013,5.7753,5.7296,5.5725,5.5418,5.4954,5.3532,5.2722,5.2259,5.2127,5.167,5.0719,4.9033,4.892,4.8516,4.7226,4.8248,4.8858,4.8465,4.7618,4.7107,4.7107,4.7519,4.7796,4.7796,4.7913,4.7972,4.7972,4.8265,4.8398,4.8398,4.8398,4.8398,4.8398,4.8398,4.8398,6.0188,6.023,5.9199,5.6164,5.3348,5.0309,4.6391,4.2498,3.9082,3.6845,3.549,3.4853,3.5408,3.5981,3.6946,3.8642,4.1205,4.4346,4.8265,5.1147,5.4142,5.7499,5.8855,6.0638,6.345,6.6187,6.7794,6.7794,6.7794,6.7543,6.7037,6.6987,6.6689,6.609,6.6086,6.6065,6.6065,6.5559,6.5283,6.5304,6.4752,6.4199,6.3701,6.4249,6.3873,6.2852,6.3425,6.3676,6.3676,6.3676,6.3676,6.3676,6.3676,6.3324,6.2802,6.2802,6.2802,6.2802,6.2802,6.2802,6.2802,6.2802,6.2802,6.2802,6.2802,6.2425,6.1994,6.1994,6.1592,6.1185,6.1185,6.1185,6.0622,5.8273,5.7717,5.6978,5.4253,5.3661,5.3661,5.3619,5.3619,5.3755,5.4119,5.2369,5.0747,5.0308,4.8757,4.7469,4.6995,4.7349,4.7603,4.76,4.7623,4.7626,4.7603,4.7581,4.76,4.76,4.7969,4.8203,4.8203,4.8636,4.8894,4.8894,4.8894,4.8894,4.8894,4.8894,4.8894,4.8894,4.8894,4.8894,5.5001,5.5264,5.4592,5.0691,4.8796,4.7154,4.4407,4.1406,3.8831,3.7726,3.6296,3.5431,3.6018,3.6256,3.7675,4.1619,4.2975,4.4895,4.8802,5.2068,5.4863,5.7029,6.1642,6.5258,6.6868,6.7844,6.85,6.8876,6.855,6.8274,6.812,6.7744,6.7091,6.6115,6.609,6.609,6.609,6.5936,6.586,6.5835,6.5283,6.4953,6.4802,6.4576,6.43,6.3973,6.4149,6.4249,6.4249,6.4249,6.4249,6.4249,6.4249,6.4124,6.3973,6.3973,6.3726,6.3425,6.3425,6.3149,6.2802,6.2802,6.2802,6.2802,6.2802,6.2676,6.2476,6.2099,6.1893,6.1376,5.9776,5.9629,5.9218,5.6491,5.5849,5.5524,5.4287,5.4006,5.3561,5.2046,5.1745,5.1312,4.9927,4.9126,4.8597,4.8457,4.7931,4.7561,4.7383,4.7522,4.7718,4.7969,4.8008,4.7891,4.762,4.7851,4.8008,4.8008,4.8441,4.8675,4.8675,4.8812,4.8913,4.8913,4.8913,4.8913,4.8913,4.8913,4.8913,4.8913,4.8913,4.8913,5.1017,5.1085,5.0192,4.7722,4.622,4.4895,4.3115,4.0552,3.8404,3.7814,3.6709,3.5956,3.6343,3.6745,3.8014,4.1103,4.266,4.4784,4.8435,5.1825,5.5114,5.8208,6.3174,6.6689,6.7571,6.8424,6.9029,6.9381,6.908,6.8826,6.86,6.8274,6.7693,6.6789,6.6538,6.6538,6.6739,6.6291,6.619,6.6438,6.586,6.5484,6.5304,6.5179,6.4877,6.4521,6.4701,6.4802,0.0,6.4802,6.4802,6.4802,6.4802,6.4676,6.4496,6.4496,6.4274,6.3998,6.3998,6.3751,6.3255,6.2179,6.1081,6.0198,6.0198,6.0806,6.121,6.004,5.9715,5.9359,5.7862,5.7736,5.7298,5.4651,5.4019,5.3648,5.2235,5.1954,5.1539,5.015,4.9882,4.9498,4.8299,4.8089,4.803,4.7851,4.7972,4.803,4.7855,4.7991,4.8187,4.8441,4.8457,4.8363,4.8109,4.8323,4.8457,4.8457,4.8734,4.8913,4.8913,4.8913,4.8913,4.8913,4.8913,4.8913,4.8913,4.8913,4.8913,4.8913,4.8913,4.8968,0.0,4.7421,4.6008,4.6276,4.4855,4.3126,4.2135,3.9848,0.0,3.7299,3.6758,3.6443,3.6644,3.7374,3.8115,3.8605,4.1317,4.4507,4.7842,5.1331,5.5548,6.0984,6.3927,6.5735,6.6266,6.8176,6.9406,6.9406,6.9406,6.918,6.8675,6.865,6.8424,6.7919,6.7389,6.7317,6.7794,6.6764,6.6488,6.7037,6.6488,6.5936,6.5455,6.5936,6.5584,6.4626,6.5153,6.538,6.538,6.538,6.538,6.538,6.538,6.5053,6.4601,6.4601,6.4597,6.453,6.4337,6.427,6.3763,6.0861,5.8108,5.5857,5.5705,5.724,5.863,5.6508,5.5901,5.5857,5.5617,5.5573,5.4983,5.2679,5.2162,5.1428,4.8821,4.8262,4.8262,4.8262,4.8262,4.8379,4.8812,4.8913,4.8753,4.832,4.8617,4.8734,4.8301,4.8636,4.8913,4.8913,4.8913,4.8913,4.8913,4.8913,4.8913,4.8913,4.8913,4.8913,4.8913,4.8913,4.8913,4.8913,4.8913,4.8913,4.8929,4.8929,4.8972,4.8991,4.8991,4.9203,4.088,0.0,4.1772,3.95,3.9157,3.9295,0.0,3.8153,3.7349,3.7235,3.6758,3.7046,3.9145,3.8366,3.917,4.4694,4.6225,4.8058,5.1825,5.6696,6.1291,6.5179,6.694,6.8023,6.8553,6.908,6.9406,6.9406,6.9406,6.9331,6.9205,6.9205,6.9155,6.9027,6.85,6.8095,6.7794,6.7543,6.7467,6.7593,6.7467,6.7116,6.661,6.6736,6.6409,6.5735,6.586,6.5911,6.5911,6.5911,6.5911,6.5911,6.5911,6.5835,6.5735,6.5735,6.5459,6.4849,6.2954,6.1992,6.1193,5.8289,5.6698,5.5552,5.3771,5.4851,5.6595,5.6053,5.5901,5.5486,5.366,5.3215,5.2612,5.0299,4.9725,4.9544,4.8891,4.8757,4.8757,4.8757,4.8757,4.8753,4.8894,4.8913,4.8874,4.8753,4.8835,4.8874,4.8734,4.8835,4.8913,4.8913,4.8913,4.8913,4.8913,4.8913,4.8913,4.8913,4.8913,4.8913,4.8913,4.8913,4.8913,4.8913,4.8913,4.9046,4.9375,4.9375,4.9551,4.9887,4.9887,4.9945,3.7223,3.8867,4.0111,3.8653,3.8718,3.9157,3.9157,3.7952,3.6833,3.6833,3.6808,3.7311,3.9032,3.9434,4.0929,4.5321,4.7716,5.0854,5.6,6.0638,6.4479,6.7062,6.8299,6.908,6.9356,6.9406,6.9406,6.9406,6.9406,6.9406,6.9406,6.9406,6.9406,6.9406,6.9105,6.8826,6.8525,6.8045,6.7919,6.8148,6.7919,6.7643,6.7364,6.7113,6.6836,6.6488,6.6237,6.609,6.609,6.609,6.609,6.609,6.609,6.609,6.5983,6.4873,6.426,6.3644,6.1177,5.9267,5.7626,5.5837,5.4212,5.2682,5.1229,5.1667,5.2679,5.2679,5.2679,5.2409,5.1123,5.0803,5.0461,4.9216,4.8913,4.8913,4.8913,4.8913,4.8913,4.8913,4.8913,4.8913,4.8913,4.8913,4.8913,4.8913,4.8913,4.8913,4.8913,4.8913,4.8913,4.8913,4.8913,4.8913,4.8913,4.8913,4.8913,4.8913,4.8913,4.8913,4.8913,4.8913,4.8913,4.8913,4.9086,4.9277,4.9508,4.9726,4.9941,5.0199,5.0199,5.0297,3.612,3.8112,4.0149,3.9935,4.0186,4.0437,4.0186,3.8329,3.6632,3.6632,3.7085,3.7801,3.8944,4.1105,4.324,4.492,4.8771,5.3741,6.0041,6.3525,6.6036,6.7719,6.8801,6.9406,6.9406,6.9406,6.9406,6.9406,6.9406,6.9406,6.9406,6.9406,6.9406,6.9406,6.9406,6.9406,6.9406,6.85,6.8274,6.8726,6.8249,6.7995,6.7919,6.7464,6.7163,6.6962,6.6463,6.6187,6.609,6.609,6.609,6.609,6.609,6.585,6.5285,6.3245,6.2269,6.1576,5.9111,5.6363,5.3867,5.3472,5.1599,4.943,4.9105,4.8952,4.8913,4.8913,4.8913,4.8913,4.8913,4.8913,4.8913,4.8913,4.8913,4.8913,4.8913,4.8913,4.8913,4.8913,4.8913,4.8913,4.8913,4.8913,4.8913,4.8913,4.8913,4.8913,4.8913,4.8913,4.8913,4.8913,4.8913,4.8913,4.8913,4.8913,4.8913,4.8913,4.8913,4.8913,4.8913,4.8913,4.8933,4.8988,4.9336,4.9566,4.9703,5.0098,5.0312,5.0371,5.0371,5.0586,3.8351,4.0683,4.1594,3.7939,3.8781,4.0136,3.8705,3.8065,3.7739,3.7739,3.8228,3.9798,4.3653,4.4708,4.6426,5.0804,5.4443,5.8403,6.3194,6.5082,6.6614,6.8274,6.9004,6.9406,6.9406,6.9406,6.9406,6.9406,6.9406,6.9406,6.9406,6.9406,6.9406,6.9406,6.9406,6.9406,6.9406,6.923,6.918,6.928,6.918,6.8926,6.8475,6.8374,6.7869,6.6987,6.6912,6.6564,6.609,6.609,6.609,6.609,6.609,6.4848,6.3025,6.2625,6.1173,5.902,5.6548,5.3782,5.136,5.1277,5.0464,4.9488,4.943,4.916,4.8913,4.8913,4.8913,4.8913,4.8913,4.8913,4.8913,4.8913,4.8913,4.8913,4.8913,4.8913,4.8913,4.8913,4.8913,4.8913,4.8913,4.8913,4.8913,4.8913,4.8913,4.8913,4.8913,4.8913,4.8913,4.8913,4.8913,4.8913,4.8913,4.8913,4.8913,4.8913,4.8913,4.8913,4.8913,4.8913,4.9066,4.9391,4.9469,4.9859,5.0605,5.0683,5.0898,5.1206,5.1206,5.144,3.7037,3.9487,4.1317,3.9887,4.2046,4.4227,4.3173,4.2219,4.1567,4.1567,4.2032,4.3251,4.5884,4.7842,5.0795,5.605,5.9232,6.1943,6.4576,6.6137,6.7395,6.8475,6.9055,6.9406,6.9406,6.9406,6.9406,6.9406,6.9406,6.9406,6.9406,6.9406,6.9406,6.9406,6.9406,6.9406,6.9406,6.9406,6.9406,6.9406,6.9406,6.9255,6.9004,6.8726,6.8173,6.7439,6.7138,6.666,6.609,6.609,6.609,6.5983,6.4653,6.3466,6.218,5.9499,5.6944,5.464,5.3515,5.2215,5.1089,5.0879,5.0391,4.9844,4.9566,4.9219,4.8952,4.916,4.9066,4.8913,4.8913,4.8913,4.8913,4.8913,4.8913,4.8913,4.8913,4.8913,4.8913,4.8913,4.8913,4.8913,4.8913,4.8913,4.8913,4.8913,4.8913,4.8913,4.8913,4.8913,4.8913,4.8913,4.8913,4.8913,4.8913,4.8913,4.8988,4.9199,4.9219,4.9359,4.9594,4.9594,4.9691,4.9883,5.0074,5.041,5.0801,5.1011,5.1343,5.1777,5.1777,5.2012,3.6469,3.8743,4.1204,4.2462,4.4784,4.6878,4.739,4.611,4.5081,4.5984,4.6527,4.7179,4.8253,5.1306,5.5272,6.0267,6.2772,6.4479,6.571,6.7091,6.8246,6.8924,6.9253,6.9456,6.9604,6.9481,6.9406,6.9406,6.9406,6.9406,6.9406,6.9406,6.9406,6.9406,6.9406,6.9406,6.9406,6.9406,6.9406,6.9406,6.9406,6.9406,6.9381,6.8954,6.85,6.797,6.7417,6.684,6.6312,6.6162,6.609,6.585,6.3444,6.1778,6.0248,5.5847,5.3036,5.1401,5.1401,5.1401,5.1362,5.103,5.0664,5.0254,4.9898,4.9512,4.9261,4.959,4.9433,4.9187,4.9066,4.8968,4.8913,4.8913,4.8913,4.8913,4.8913,4.8913,4.8913,4.8913,4.8913,4.8913,4.8913,4.8913,4.8913,4.8913,4.8913,4.8913,4.8913,4.8968,4.8988,4.8913,4.9089,4.9183,4.9183,4.9105,4.9261,4.9762,4.9703,4.9824,5.0199,5.0199,5.0238,5.0336,5.0644,5.0859,5.0933,5.1245,5.1636,5.2114,5.2114,5.2363,3.9295,4.1091,4.2475,4.4027,4.389,4.4281,4.7848,4.6994,4.6466,5.0083,5.0862,5.1214,5.2268,5.5623,5.9363,6.2898,6.4429,6.5735,6.7392,6.817,6.8949,7.0051,6.9727,6.9629,7.0177,6.973,6.9406,6.9406,6.9406,6.9406,6.9406,6.9406,6.9406,6.9406,6.9406,6.9406,6.9406,6.9406,6.9406,6.9406,6.9406,6.9406,6.9406,6.9356,6.9029,6.85,6.797,6.7417,6.6887,6.6338,6.609,6.585,6.3444,5.9681,5.5306,5.2648,5.1547,5.1401,5.1401,5.1401,5.1401,5.1382,5.1069,5.0762,5.0723,5.041,5.0121,5.0141,5.0141,5.0023,4.9566,4.918,4.8913,4.8913,4.8913,4.8913,4.8913,4.8913,4.8913,4.8913,4.8913,4.8913,4.8913,4.8913,4.8913,4.8913,4.8913,4.8913,4.8913,4.9219,4.9316,4.8952,4.9613,5.0102,5.0102,4.9707,4.9801,5.0664,5.0351,5.016,5.0199,5.0199,5.0395,5.0762,5.0781,5.0972,5.1362,5.1382,5.1636,5.2114,5.2114,5.2544,3.7424,4.0276,4.3014,4.4278,4.5598,4.7245,4.9782,5.0761,5.2068,5.5239,5.5641,5.5717,5.6821,5.878,6.1014,6.3324,6.5183,6.6686,6.7668,6.855,6.9278,6.9679,6.9554,6.9481,6.9705,6.9529,6.9406,6.9406,6.9406,6.9406,6.9406,6.9406,6.9406,6.9406,6.9406,6.9406,6.9406,6.9406,6.9406,6.9406,6.9406,6.9406,6.9406,6.9406,6.8926,6.8095,6.7894,6.7292,6.6305,6.4574,6.3863,6.3466,5.9476,5.58,5.2696,5.1746,5.1401,5.1401,5.1401,5.1401,5.1401,5.1401,5.1128,5.0801,5.0801,5.0508,5.0258,5.0488,5.0395,5.016,4.998,4.9609,4.9277,4.9277,4.9086,4.8913,4.8913,4.8913,4.8913,4.8913,4.8913,4.8913,4.8913,4.8913,4.8913,4.8913,4.8913,4.8988,4.9238,4.9391,4.9547,4.9691,5.0004,5.0199,5.0199,5.0273,5.0445,5.0781,5.0664,5.0683,5.0957,5.0957,5.1011,5.1167,5.1465,5.168,5.1836,5.209,5.2461,5.2896,5.2896,5.3228,3.7436,4.0413,4.3603,4.5016,4.7365,4.9983,5.2503,5.4027,5.5885,5.9533,5.9558,5.9207,6.0111,6.0808,6.1813,6.3646,6.5681,6.7263,6.7945,6.8826,6.9456,6.9654,6.9506,6.9456,6.9679,6.9506,6.9406,6.9406,6.9406,6.9406,6.9406,6.9406,6.9406,6.9406,6.9406,6.9406,6.9406,6.9406,6.9406,6.9406,6.9406,6.9406,6.9406,6.9406,6.855,6.7108,6.6935,6.5849,6.4126,6.2263,6.0974,5.9817,5.641,5.3566,5.1401,5.1401,5.1401,5.1401,5.1401,5.1401,5.1421,5.1558,5.1323,5.1035,5.1172,5.0918,5.0644,5.0894,5.0801,5.0566,5.0566,5.0156,4.9703,4.9703,4.9492,4.9261,4.9125,4.9203,4.9261,4.9125,4.9086,4.9144,4.9281,4.9089,4.8929,4.9066,4.9086,4.918,4.9469,4.9742,5.0074,5.0527,5.0356,5.0317,5.0547,5.0723,5.0859,5.0972,5.0972,5.1109,5.1401,5.1401,5.1401,5.1401,5.1855,5.2114,5.2114,5.25,5.293,5.341,5.341,5.3619,4.0337,4.2119,4.4353,4.6547,4.8805,5.1632,5.6032,5.62,5.7016,6.2571,6.2391,6.1411,6.1918,6.1592,6.1939,6.4149,6.5907,6.7367,6.845,6.9055,6.9629,7.0202,6.9755,6.9629,7.0227,6.973,6.9406,6.9406,6.9406,6.9406,6.9406,6.9406,6.9406,6.9406,6.9406,6.9406,6.9406,6.9383,6.9361,6.9361,6.9361,6.9361,6.9361,6.9361,6.7966,6.5514,6.4991,6.306,6.0248,5.9616,5.7661,5.5047,5.5047,5.3566,5.1401,5.1401,5.1401,5.1401,5.1401,5.1401,5.1479,5.1933,5.1777,5.1499,5.1953,5.1777,5.1401,5.1401,5.1401,5.1401,5.1401,5.082,5.0219,5.0219,5.0199,5.0058,4.9605,4.9863,5.0039,4.9586,4.9508,4.9644,5.0121,4.9476,4.9046,4.9449,4.9508,4.9508,4.9508,5.025,5.0976,5.1362,5.0683,5.0527,5.1343,5.103,5.0996,5.1382,5.1401,5.1401,5.1401,5.1401,5.1401,5.1401,5.1855,5.2114,5.2114,5.2519,5.2949,5.341,5.341,5.3638,3.9006,4.2082,4.5884,4.7315,5.1707,5.6319,5.8761,5.9087,5.9885,6.3521,6.3873,6.3446,6.3224,6.337,6.3847,6.4902,6.6485,6.7819,6.85,6.9055,6.9456,6.9654,6.9506,6.9456,6.9654,6.9506,6.9406,6.9406,6.9406,6.9406,6.9406,6.9406,6.9406,6.9406,6.9406,6.9406,6.9406,6.7623,6.6723,6.67,6.4859,6.493,6.6723,6.6723,6.5115,6.2302,6.2119,6.1331,5.9989,5.7784,5.513,5.2499,5.2499,5.2041,5.1401,5.1401,5.1401,5.1401,5.1401,5.1616,5.1855,5.168,5.1738,5.1855,5.168,5.1499,5.1401,5.1401,5.1401,5.1401,5.1401,5.1226,5.0952,5.0683,5.0414,5.016,5.0019,5.0098,5.016,5.0019,4.998,5.0043,5.018,4.9984,4.9848,4.9961,4.998,5.0098,5.0391,5.0874,5.1265,5.1401,5.1187,5.1128,5.1382,5.1284,5.1284,5.1401,5.1401,5.1401,5.1401,5.1401,5.1401,5.1401,5.2148,5.2519,5.2519,5.3256,5.3685,5.3828,5.3828,5.3881,4.1793,4.5196,4.9122,5.1322,5.5239,5.9182,6.1718,6.2295,6.2822,6.4752,6.4978,6.4777,6.468,6.4906,6.5405,6.6162,6.7317,6.8321,6.8851,6.9205,6.9406,6.9406,6.9406,6.9406,6.9406,6.9406,6.9406,6.9406,6.9406,6.9406,6.9406,6.9406,6.9406,6.9406,6.9406,6.8928,6.7898,6.6376,6.507,6.4036,6.2444,6.1989,6.2564,6.3586,6.2453,5.9643,5.8452,5.7649,5.7013,5.5103,5.3169,5.1401,5.1401,5.1401,5.1401,5.1401,5.1401,5.1401,5.1401,5.1577,5.1836,5.1889,5.2012,5.2095,5.1948,5.1792,5.1636,5.146,5.1401,5.1401,5.1401,5.1401,5.1343,5.1089,5.0859,5.0625,5.0469,5.0566,5.0625,5.0449,5.043,5.0488,5.0644,5.0391,5.0258,5.0391,5.043,5.0586,5.0996,5.1245,5.1401,5.1401,5.1401,5.1401,5.1401,5.1401,5.1401,5.1401,5.1558,5.1699,5.1699,5.1499,5.1499,5.1655,5.2363,5.2793,5.2969,5.3666,5.3998,5.3998,5.3998,5.3998,4.6652,4.98,5.303,5.6872,5.8905,6.0889,6.453,6.5358,6.5509,6.6011,6.576,6.5584,6.6086,6.6241,6.6689,6.7693,6.8324,6.8851,6.9331,6.9406,6.9406,6.9406,6.9406,6.9406,6.9406,6.9406,6.9406,6.9406,6.9406,6.9406,6.9406,6.9406,6.9293,6.9064,6.9042,6.7829,6.5258,6.5,6.3705,6.1364,6.1122,5.9786,5.7634,6.0176,5.9957,5.7389,5.4624,5.313,5.2676,5.2271,5.1836,5.1401,5.1401,5.144,5.146,5.1421,5.146,5.1519,5.1479,5.1519,5.1714,5.248,5.248,5.229,5.2598,5.2422,5.1992,5.1577,5.144,5.1401,5.1401,5.1401,5.1401,5.1401,5.1401,5.1304,5.0937,5.1148,5.1284,5.0937,5.0859,5.0976,5.1343,5.0801,5.043,5.0801,5.0859,5.0996,5.1362,5.1401,5.1401,5.1401,5.1401,5.1401,5.1401,5.1401,5.1421,5.146,5.1855,5.2134,5.2129,5.1758,5.1714,5.2153,5.2558,5.2969,5.341,5.3808,5.3998,5.3998,5.3998,5.3998,4.5081,4.862,5.2929,5.6351,6.0337,6.3873,6.5559,6.5936,6.5939,6.6086,6.6388,6.666,6.6786,6.7493,6.8148,6.8374,6.8876,6.9255,6.9381,6.9406,6.9406,6.9406,6.9406,6.9406,6.9406,6.9406,6.9406,6.9406,6.9406,6.9406,6.9406,6.9406,6.8494,6.6492,6.6422,6.5164,6.2564,6.0541,5.9269,5.8701,5.6653,5.5361,5.4925,5.7534,5.7306,5.4778,5.3813,5.313,5.2676,5.2271,5.1836,5.1401,5.1401,5.1641,5.1894,5.1538,5.1831,5.2383,5.2051,5.2407,5.2955,5.2754,5.2871,5.3072,5.2793,5.2422,5.2095,5.1973,5.1675,5.1401,5.1401,5.1401,5.1401,5.1401,5.1401,5.1382,5.1284,5.1343,5.1382,5.1284,5.1265,5.1304,5.1382,5.1265,5.1167,5.1265,5.1265,5.1304,5.1401,5.1401,5.1401,5.1401,5.1401,5.1401,5.1401,5.1401,5.1558,5.1914,5.2031,5.2226,5.2558,5.2456,5.248,5.2578,5.3033,5.3287,5.341,5.3808,5.3998,5.3998,5.3998,5.3998,4.5899,5.0067,5.4737,5.9112,6.237,6.4701,6.5534,6.5936,6.609,6.609,6.6564,6.6987,6.6987,6.7869,6.86,6.86,6.8826,6.9027,6.9027,6.8801,6.8625,6.8625,6.8625,6.8726,6.8979,6.8776,6.8751,6.8979,6.8776,6.821,6.7254,6.7208,6.6134,6.38,6.3729,6.2492,5.9905,5.8553,5.7157,5.5746,5.4567,5.3998,5.4049,5.5411,5.5165,5.3691,5.3482,5.3013,5.2383,5.2192,5.1836,5.1401,5.1401,5.1699,5.2075,5.1836,5.2124,5.2637,5.2226,5.2525,5.3008,5.2773,5.3033,5.3345,5.3111,5.2896,5.2642,5.2232,5.1914,5.1675,5.146,5.1401,5.1401,5.1401,5.1401,5.1401,5.1401,5.1401,5.1401,5.1401,5.1401,5.1401,5.1401,5.1401,5.1401,5.1401,5.1401,5.1401,5.1401,5.1401,5.1401,5.1401,5.1401,5.1499,5.1719,5.1738,5.1933,5.2363,5.2603,5.2818,5.3033,5.3223,5.3242,5.3052,5.3267,5.3482,5.3691,5.39,5.3998,5.3998,5.3998,5.4115,4.6215,5.1314,5.6563,6.2044,6.3898,6.45,6.5053,6.5509,6.5835,6.5835,6.646,6.6987,6.6987,6.7794,6.845,6.845,6.845,6.845,6.845,6.8095,6.7794,6.7794,6.7794,6.797,6.8424,6.807,6.7995,6.8424,6.8045,6.7079,6.5391,6.5324,6.4107,6.1552,6.1522,6.014,5.7157,5.7132,5.5871,5.3384,5.373,5.3939,5.3998,5.392,5.3711,5.3384,5.3228,5.2759,5.2095,5.1992,5.1758,5.1401,5.1401,5.1714,5.2212,5.2134,5.2441,5.2871,5.2441,5.2578,5.2905,5.2905,5.3183,5.3502,5.3502,5.3384,5.313,5.2407,5.2114,5.1894,5.1499,5.1401,5.1401,5.1401,5.1401,5.1401,5.1401,5.1401,5.1401,5.1401,5.1401,5.1401,5.1401,5.1401,5.1401,5.1401,5.1401,5.1401,5.1401,5.1401,5.1401,5.1401,5.1401,5.1577,5.2075,5.2114,5.2329,5.2793,5.3189,5.3424,5.3502,5.3803,5.3822,5.3502,5.3502,5.3652,5.3998,5.3998,5.3998,5.3998,5.3998,5.4232,4.1854,4.8385,5.591,6.0964,6.3023,6.3948,6.4475,6.4651,6.4701,6.4701,6.5932,6.6987,6.6987,6.7514,6.7919,6.7919,6.7919,6.7919,6.7919,6.7844,6.7794,6.7794,6.7794,6.7819,6.7894,6.7844,6.7819,6.7894,6.7844,6.7687,6.7405,6.7383,6.5272,6.0613,6.085,5.8743,5.4047,5.3997,5.3801,5.341,5.3443,5.3652,5.3998,5.3633,5.3443,5.3371,5.2603,5.2212,5.2075,5.1655,5.146,5.1401,5.1401,5.1889,5.2578,5.2226,5.2832,5.3764,5.3365,5.3476,5.3822,5.3822,5.3861,5.392,5.392,5.3373,5.2773,5.2656,5.209,5.1479,5.1421,5.1401,5.1401,5.1401,5.1401,5.1401,5.1401,5.1401,5.1401,5.1401,5.1401,5.1401,5.1401,5.1401,5.1401,5.1401,5.1401,5.1401,5.1401,5.1401,5.1401,5.1401,5.1401,5.1577,5.2075,5.2114,5.2447,5.3248,5.339,5.356,5.39,5.3978,5.3978,5.392,5.392,5.3939,5.3998,5.3998,5.3998,5.3998,5.3998,5.4232,4.4378,4.9715,5.4913,6.0211,6.2144,6.2973,6.3847,6.4274,6.4496,6.4496,6.5099,6.5681,6.5982,6.6761,6.7364,6.7364,6.7364,6.7364,6.7364,6.7066,6.6865,6.6865,6.6865,6.699,6.7339,6.7041,6.699,6.7339,6.7041,6.6376,6.5228,6.3835,6.158,5.8209,5.6932,5.5368,5.3435,5.315,5.3013,5.3013,5.3013,5.3105,5.3256,5.3086,5.3013,5.2949,5.2368,5.1953,5.1675,5.1479,5.1401,5.144,5.1699,5.2168,5.2715,5.2798,5.332,5.3939,5.3541,5.3521,5.3652,5.3652,5.3652,5.3652,5.3652,5.3404,5.2994,5.25,5.209,5.1797,5.1797,5.1597,5.146,5.1738,5.1577,5.1401,5.1401,5.1401,5.1401,5.1401,5.1401,5.1479,5.1758,5.1558,5.1499,5.1758,5.1558,5.1401,5.1401,5.1401,5.1401,5.1401,5.1401,5.1675,5.2383,5.2441,5.2812,5.3672,5.373,5.3828,5.3998,5.3998,5.3998,5.3998,5.3998,5.3998,5.3998,5.3998,5.3998,5.3998,5.3998,5.4232,4.5321,4.9113,5.1983,5.7844,6.0136,6.1341,6.2747,6.3496,6.3898,6.4048,6.4199,6.4425,6.4827,6.5807,6.661,6.6761,6.6786,6.6786,6.6786,6.6388,6.609,6.609,6.609,6.6287,6.6736,6.6363,6.6287,6.6736,6.6363,6.5437,6.3932,6.1527,5.9207,5.7078,5.4711,5.3346,5.3077,5.2715,5.2558,5.2558,5.2558,5.2656,5.2871,5.2754,5.2715,5.2676,5.2148,5.1714,5.1401,5.1401,5.1401,5.144,5.1797,5.2168,5.2598,5.2935,5.3404,5.3789,5.3365,5.3365,5.3521,5.3287,5.3365,5.3521,5.3287,5.3228,5.3072,5.231,5.2114,5.2114,5.2114,5.1914,5.1792,5.2031,5.1836,5.1538,5.144,5.1401,5.1401,5.1401,5.1401,5.1538,5.2036,5.1816,5.1719,5.2056,5.1797,5.1538,5.1421,5.1401,5.1401,5.1401,5.1401,5.1753,5.2637,5.2715,5.3061,5.3939,5.3998,5.3998,5.3998,5.3998,5.3998,5.3998,5.3998,5.3998,5.3998,5.3998,5.3998,5.3998,5.3998,5.4232,4.0728,4.3416,4.5849,5.2452,5.6118,5.8679,6.0833,6.1743,6.227,6.2777,6.335,6.3751,6.3776,6.4655,6.5534,6.604,6.6162,6.6162,6.6162,6.6137,6.609,6.609,6.609,6.609,6.614,6.6137,6.609,6.614,6.6137,6.6047,6.5943,6.3646,6.122,5.8743,5.6712,5.4521,5.2198,5.2153,5.2134,5.2134,5.2134,5.2564,5.3345,5.2891,5.2715,5.2656,5.1792,5.1421,5.1401,5.1401,5.1401,5.1401,5.144,5.1714,5.2134,5.2173,5.2701,5.3365,5.2891,5.3301,5.3842,5.3008,5.3295,5.3803,5.3008,5.2754,5.2656,5.2207,5.2114,5.2114,5.2114,5.2363,5.2539,5.2168,5.2095,5.1933,5.1499,5.1401,5.1401,5.1401,5.1401,5.1538,5.2036,5.2095,5.2051,5.2095,5.2095,5.1894,5.146,5.1401,5.1401,5.1401,5.1401,5.1753,5.2637,5.2715,5.3061,5.3939,5.3998,5.3998,5.3998,5.3998,5.3998,5.3998,5.3998,5.3998,5.3998,5.3998,5.3998,5.3998,5.3998,5.4232,3.8379,4.1368,4.4457,4.933,5.2896,5.5691,5.7575,5.9784,6.1542,6.1743,6.2496,6.3229,6.3626,6.4601,6.5358,6.5559,6.5886,6.5986,6.5634,6.5584,6.5584,6.5584,6.5584,6.5735,6.6086,6.5785,6.5735,6.6065,6.5785,6.5067,6.3839,6.1464,5.8997,5.6502,5.4163,5.2684,5.2114,5.2661,5.2779,5.248,5.2798,5.2935,5.2974,5.3091,5.2969,5.2676,5.2109,5.1699,5.1401,5.1401,5.1401,5.144,5.1738,5.1953,5.2134,5.2383,5.2676,5.293,5.2754,5.2734,5.2812,5.3072,5.3144,5.3158,5.3144,5.293,5.2617,5.2207,5.2114,5.2173,5.2422,5.2598,5.2598,5.2212,5.2285,5.2363,5.1933,5.1855,5.1855,5.1855,5.207,5.228,5.2461,5.2266,5.2192,5.2441,5.2271,5.2056,5.1875,5.2065,5.2148,5.1875,5.209,5.248,5.3111,5.315,5.3379,5.3959,5.3998,5.3998,5.3998,5.3998,5.3998,5.3998,5.3998,5.3998,5.3998,5.3998,5.3998,5.3998,5.3998,5.4095,3.6019,3.8806,4.2185,4.6793,4.9314,5.1657,5.5573,5.7901,5.9578,6.0663,6.1768,6.2701,6.3299,6.4153,6.4806,6.5003,6.5333,6.5434,6.5078,6.5028,6.5028,6.5028,6.5028,6.5179,6.5534,6.5383,6.5434,6.581,6.566,6.4651,6.2625,6.0158,5.7663,5.5186,5.2696,5.1956,5.3088,5.3005,5.274,5.226,5.2896,5.2988,5.2734,5.3189,5.3228,5.291,5.2661,5.2266,5.1831,5.1675,5.1616,5.1699,5.2129,5.2109,5.1914,5.2344,5.25,5.248,5.2299,5.2285,5.2363,5.2818,5.2955,5.2949,5.313,5.2949,5.2656,5.2383,5.2285,5.2383,5.2812,5.293,5.2851,5.2603,5.2617,5.2637,5.2363,5.2285,5.2246,5.2134,5.2422,5.2656,5.2519,5.25,5.2583,5.2695,5.2622,5.2486,5.2305,5.2539,5.2598,5.2324,5.2539,5.2891,5.3345,5.341,5.358,5.3978,5.3998,5.3998,5.3998,5.3998,5.3998,5.3998,5.4154,5.4213,5.4213,5.4076,5.4076,5.4213,5.4076,5.3998,0.0,0.0,0.0,4.4568,4.5282,4.6647,5.4777,5.5874,5.6143,5.9463,6.1045,6.2024,6.2676,6.3229,6.3847,6.435,6.4496,6.4496,6.4496,6.4496,6.4496,6.4496,6.4496,6.4496,6.4496,6.4953,6.5279,6.5279,6.5696,6.4889,6.249,6.0044,5.764,5.5283,5.2836,5.2692,5.5112,5.3108,5.1894,5.146,5.2299,5.2715,5.2754,5.3189,5.341,5.3429,5.341,5.315,5.2715,5.2285,5.2134,5.2173,5.2558,5.2182,5.1499,5.1933,5.2114,5.2031,5.1577,5.1968,5.2637,5.2246,5.2701,5.3306,5.2871,5.2734,5.2734,5.2734,5.2734,5.2832,5.3287,5.3404,5.3404,5.3384,5.3072,5.2754,5.2734,5.2734,5.2598,5.2212,5.2461,5.2617,5.2192,5.2818,5.3248,5.2793,5.3111,5.3228,5.2773,5.2734,5.2709,5.2734,5.2734,5.293,5.3365,5.3404,5.3599,5.3978,5.3998,5.3998,5.3998,5.3998,5.3998,5.3998,5.4453,5.4713,5.4733,5.4277,5.4252,5.4713,5.4232,5.4017,3.3456,0.0,0.0,0.0,0.0,0.0,4.7239,4.9389,5.1791,5.5892,5.7323,5.871,6.1672,6.237,6.2647,6.3178,6.3973,6.435,6.3973,6.3923,6.3923,6.3923,6.3923,6.4073,6.445,6.4274,6.4279,6.4676,6.3182,6.1385,5.9338,5.7258,5.6642,5.7756,5.5691,5.4923,5.5619,5.3568,5.248,5.2338,5.2573,5.2871,5.3209,5.3326,5.356,5.3828,5.3521,5.3502,5.3588,5.2851,5.2539,5.2558,5.2656,5.2534,5.2299,5.2148,5.2266,5.248,5.2051,5.2246,5.2734,5.2974,5.3189,5.3424,5.3568,5.3437,5.3209,5.3209,5.3209,5.3306,5.373,5.3822,5.3769,5.3463,5.3516,5.3549,5.3267,5.3209,5.3072,5.2617,5.3119,5.3393,5.2656,5.3013,5.3371,5.3228,5.3306,5.3345,5.3228,5.3457,5.3535,5.3248,5.3476,5.3685,5.3803,5.3822,5.3861,5.3998,5.3998,5.3998,5.3998,5.3998,5.3998,5.3998,5.4453,5.4824,5.5137,5.5019,5.5019,5.5117,5.4707,5.4336,3.4837,3.6207,3.8266,3.9333,0.0,0.0,4.5512,4.7255,4.9339,5.3783,5.5491,5.7047,5.9784,6.0462,6.0864,6.1622,6.2521,6.3169,6.3299,6.3324,6.3324,6.3324,6.3324,6.345,6.3751,6.3747,6.3827,6.4149,6.2139,6.0043,5.8143,5.6175,5.6245,5.8722,5.6643,5.5514,5.5514,5.3468,5.2363,5.2163,5.2715,5.3033,5.313,5.3476,5.3789,5.3998,5.375,5.3789,5.3959,5.3451,5.3144,5.3008,5.3183,5.3002,5.2695,5.2661,5.2656,5.2676,5.2422,5.25,5.2773,5.3248,5.341,5.3463,5.3861,5.3711,5.3424,5.3594,5.3633,5.3691,5.3939,5.3998,5.3939,5.3711,5.3848,5.3939,5.3691,5.3633,5.3457,5.2832,5.31,5.3236,5.2558,5.2974,5.341,5.341,5.3541,5.3633,5.3633,5.3842,5.39,5.3672,5.3842,5.3998,5.3998,5.3998,5.3998,5.3998,5.3998,5.3998,5.3998,5.4173,5.4297,5.4297,5.4902,5.541,5.584,5.5488,5.5215,5.5039,5.483,5.4453,3.7487,3.7864,3.9371,4.2046,4.118,0.0,4.6532,4.7205,4.7801,5.195,5.3934,5.5347,5.6796,5.7618,5.8347,5.9238,6.0236,6.1341,6.2626,6.2802,6.2802,6.2802,6.2802,6.2802,6.2802,6.3299,6.3601,6.3601,6.1659,5.9774,5.8098,5.6391,5.6579,5.9021,5.6761,5.5377,5.5094,5.3048,5.1816,5.1421,5.2681,5.3072,5.2734,5.3549,5.3959,5.3998,5.3998,5.3998,5.3998,5.3998,5.3789,5.3502,5.3842,5.3529,5.2891,5.3267,5.317,5.2851,5.2793,5.2812,5.291,5.3326,5.3463,5.3541,5.3881,5.375,5.3541,5.39,5.3998,5.3998,5.3998,5.3998,5.3998,5.3998,5.3998,5.3998,5.3998,5.3959,5.3705,5.293,5.2812,5.2715,5.2329,5.2915,5.3463,5.3463,5.3769,5.3998,5.3998,5.3998,5.3998,5.3998,5.3998,5.3998,5.3998,5.3998,5.3998,5.3998,5.3998,5.3998,5.3998,5.4394,5.4655,5.4713,5.5481,5.6126,5.6609,5.582,5.5234,5.4824,5.4824,5.459,4.1507,4.2171,4.2947,4.1366,4.261,0.0,4.1895,4.2674,4.4432,4.6627,4.6963,4.7892,5.1256,5.3063,5.3966,5.3758,5.679,6.003,6.245,6.2802,6.2802,6.2802,6.2802,6.2802,6.2802,6.2902,6.2978,6.2978,5.9502,5.7397,5.747,5.7534,5.8661,6.0988,5.9113,5.713,5.5139,5.2728,5.1499,5.1421,5.2051,5.2486,5.2734,5.3287,5.3691,5.3998,5.3998,5.3998,5.3998,5.3998,5.3959,5.3881,5.3978,5.39,5.3705,5.3482,5.356,5.3705,5.3384,5.3476,5.3764,5.3842,5.3881,5.39,5.3978,5.3939,5.39,5.3978,5.3998,5.3998,5.3998,5.3998,5.3998,5.3998,5.3998,5.3998,5.3998,5.375,5.3463,5.3287,5.3516,5.3633,5.3209,5.3555,5.3881,5.3881,5.3939,5.3998,5.3998,5.3998,5.3998,5.3998,5.3998,5.3998,5.3998,5.3998,5.3998,5.3998,5.3998,5.3998,5.3998,5.4095,5.4316,5.4694,5.5481,5.6126,5.6609,5.6426,5.6113,5.5657,5.5657,5.5442,4.4522,4.4432,4.4844,4.4001,4.4227,0.0,0.0,4.3,4.3793,4.6567,4.5799,4.5708,4.9323,5.0226,5.0678,5.1548,5.4479,5.716,5.8504,6.0613,6.1994,6.1994,6.2225,6.24,6.24,6.2651,6.2327,6.1139,5.8219,5.7149,5.8671,5.8365,5.8661,5.9781,5.9136,5.7014,5.3299,5.2036,5.1401,5.1421,5.1875,5.2305,5.2734,5.3189,5.3638,5.3998,5.3998,5.3998,5.3998,5.3998,5.3998,5.3998,5.3998,5.3998,5.3978,5.3769,5.3828,5.3978,5.3769,5.3848,5.3998,5.3998,5.3998,5.3998,5.3998,5.3998,5.3998,5.3998,5.3998,5.3998,5.3998,5.3998,5.3998,5.3998,5.3998,5.3998,5.3998,5.3848,5.3691,5.3691,5.3842,5.3861,5.3463,5.358,5.3769,5.3978,5.3998,5.3998,5.3998,5.3998,5.3998,5.3998,5.3998,5.3998,5.3998,5.3998,5.3998,5.3998,5.3998,5.3998,5.3998,5.4213,5.4648,5.5293,5.5937,5.6367,5.6609,5.6609,5.6367,5.5911,5.5911,5.5677,4.7481,4.6919,4.7205,4.7014,4.6311,4.5648,0.0,0.0,0.0,4.6818,4.5533,4.4805,4.7506,4.7431,4.7481,4.9113,5.1766,5.3491,5.3064,5.6714,5.9603,6.003,6.0839,6.1416,6.1517,6.1622,6.1013,5.9427,5.6886,5.6766,5.9861,5.862,5.7828,5.7827,5.8819,5.6766,5.145,5.1867,5.1867,5.1421,5.1875,5.2305,5.2734,5.3189,5.3638,5.3998,5.3998,5.3998,5.3998,5.3998,5.3998,5.3998,5.3998,5.3998,5.3998,5.3998,5.3998,5.3998,5.3998,5.3998,5.3998,5.3998,5.3998,5.3998,5.3998,5.3998,5.3998,5.3998,5.3998,5.3998,5.3998,5.3998,5.3998,5.3998,5.3998,5.3998,5.3998,5.3998,5.3998,5.3998,5.3998,5.3881,5.358,5.3521,5.3638,5.3939,5.3998,5.3998,5.3998,5.3998,5.3998,5.3998,5.3998,5.3998,5.3998,5.3998,5.3998,5.3998,5.3998,5.3998,5.3998,5.4453,5.5039,5.5774,5.623,5.6504,5.6609,5.6609,5.6406,5.6028,5.6028,5.5852,5.1414,5.2068,5.2394,4.7606,4.9515,5.0695,4.351,0.0,4.4618,4.2582,0.0,4.1791,4.2167,0.0,0.0,4.2557,4.6788,4.9464,4.7531,5.0645,5.3858,5.5835,5.7851,5.9263,5.9734,5.8485,5.813,5.9216,5.4477,5.3851,5.9133,5.7794,5.6954,5.7179,5.9863,5.8116,5.145,5.3566,5.3566,5.1421,5.1875,5.2305,5.2734,5.3189,5.3638,5.3998,5.3998,5.3998,5.3998,5.3998,5.3998,5.3998,5.3998,5.3998,5.3998,5.3998,5.3998,5.3998,5.3998,5.3998,5.3998,5.3998,5.3998,5.3998,5.3998,5.3998,5.3998,5.3998,5.3998,5.3998,5.3998,5.3998,5.3998,5.3998,5.3998,5.3998,5.3998,5.3998,5.3998,5.3998,5.3998,5.3998,5.3939,5.392,5.3939,5.3998,5.3998,5.3998,5.3998,5.3998,5.3998,5.3998,5.3998,5.3998,5.3998,5.3998,5.3998,5.3998,5.3998,5.3998,5.3998,5.4453,5.4902,5.5371,5.5774,5.6165,5.6609,5.6609,5.6562,5.6504,5.6504,5.6511,5.1967,5.267,5.3223,4.9574,5.0017,5.0067,4.5282,4.389,4.3603,4.3714,0.0,0.0,0.0,0.0,0.0,0.0,4.4754,4.605,4.4181,4.6702,4.9816,5.267,5.3833,5.5114,5.6947,5.6495,5.6732,5.8374,5.4422,5.4269,5.9613,5.8811,5.7746,5.6776,5.9918,5.8187,5.1103,5.3733,5.3832,5.1401,5.1597,5.2051,5.2715,5.2891,5.3359,5.3998,5.3998,5.3998,5.3998,5.3998,5.3998,5.3998,5.3998,5.3998,5.3998,5.3998,5.3998,5.3998,5.3998,5.3998,5.3998,5.3998,5.3998,5.3998,5.3998,5.3998,5.3998,5.3998,5.3998,5.3998,5.3998,5.3998,5.3998,5.3998,5.3998,5.3998,5.3998,5.3998,5.3998,5.3998,5.3808,5.373,5.3959,5.3998,5.3998,5.3998,5.3998,5.3998,5.3998,5.3998,5.3998,5.3998,5.3998,5.3998,5.3998,5.3998,5.3998,5.3998,5.3998,5.3998,5.3998,5.4687,5.5117,5.5312,5.5957,5.6406,5.6609,5.6609,5.6609,5.6609,5.6609,5.6609,5.3097,5.3708,5.421,5.0603,4.9891,4.9254,4.61,4.4558,4.4044,4.506,4.4041,0.0,0.0,0.0,4.2571,4.2925,0.0,4.3926,4.2009,4.3729,4.619,4.8928,5.0184,5.1741,5.4052,5.3449,5.411,5.6997,5.33,5.3648,5.9949,5.9243,5.827,5.7495,6.0549,5.8814,5.1817,5.4521,5.4373,5.1401,5.1401,5.1792,5.2539,5.2656,5.3125,5.3848,5.3939,5.3998,5.3998,5.3998,5.3998,5.3998,5.3998,5.3998,5.3998,5.3998,5.3998,5.3998,5.3998,5.3998,5.3998,5.3998,5.3998,5.3998,5.3998,5.3998,5.3998,5.3998,5.3998,5.3998,5.3998,5.3998,5.3998,5.3998,5.3998,5.3998,5.3998,5.3998,5.3959,5.3867,5.3691,5.3638,5.3808,5.3848,5.3861,5.3978,5.3998,5.3998,5.3998,5.3998,5.3998,5.3998,5.3998,5.3998,5.3998,5.3998,5.3998,5.3998,5.3998,5.4056,5.4173,5.4805,5.5254,5.5442,5.6094,5.6465,5.6609,5.6609,5.6609,5.6609,5.6609,5.6609,5.6143,5.6872,5.6853,4.975,4.9631,4.9807,4.4346,4.5497,4.7114,4.5056,4.7114,4.8686,4.6612,4.5773,4.4859,0.0,4.3915,0.0,0.0,4.1569,4.2763,4.389,4.7355,5.0117,5.1314,4.8485,4.9063,5.5031,4.98,5.0428,5.9798,5.8185,5.7878,5.983,6.2314,6.0597,5.4259,5.6663,5.5723,5.1401,5.1401,5.1636,5.2134,5.2519,5.2949,5.3424,5.3848,5.3998,5.3998,5.3998,5.3998,5.3998,5.3998,5.3998,5.3998,5.3998,5.3998,5.3998,5.3998,5.3998,5.3998,5.3998,5.3998,5.3998,5.3998,5.3998,5.3998,5.3998,5.3998,5.3998,5.3998,5.3998,5.3998,5.3998,5.3998,5.3998,5.3998,5.3998,5.3881,5.3482,5.373,5.3842,5.3482,5.3404,5.356,5.3939,5.3998,5.3998,5.3998,5.3998,5.3998,5.3998,5.3998,5.3998,5.3998,5.3998,5.3998,5.3998,5.3998,5.4193,5.4674,5.4713,5.5078,5.5872,5.5911,5.6145,5.6609,5.6609,5.6609,5.6609,5.6609,5.6609,5.7349,5.8378,5.8459,5.308,5.2034,5.1105,4.6276,4.6602,4.7265,4.5056,4.7265,4.8912,4.6728,4.5849,4.4959,0.0,4.3014,4.2046,0.0,3.917,3.9986,4.1441,4.4744,4.6728,4.6376,4.6326,4.7757,5.1314,4.995,5.1474,5.7268,5.8591,5.8944,5.8483,6.1869,6.0515,5.3894,5.6603,5.5795,5.1401,5.1401,5.1772,5.25,5.2637,5.3105,5.3808,5.3939,5.3998,5.3998,5.3998,5.3998,5.3998,5.3998,5.3998,5.3998,5.3998,5.3998,5.3998,5.3998,5.3998,5.3998,5.3998,5.3998,5.3998,5.3998,5.3998,5.3998,5.3998,5.3998,5.3998,5.3998,5.3998,5.3998,5.3998,5.3998,5.3998,5.3998,5.3998,5.3959,5.3803,5.3691,5.3633,5.3769,5.358,5.3541,5.3939,5.3998,5.3998,5.3998,5.3998,5.3998,5.3998,5.3998,5.3998,5.3998,5.3998,5.3998,5.3998,5.3998,5.4193,5.4694,5.4941,5.5351,5.5891,5.6211,5.6445,5.6609,5.6609,5.6609,5.6609,5.6609,5.6609,5.893,5.9684,5.9608,5.5365,5.4192,5.2912,4.8485,4.8937,4.959,4.7164,4.8846,5.0469,4.9439,4.7506,4.5723,0.0,0.0,4.1281,0.0,3.8492,3.8944,3.9823,4.2183,4.3664,4.3528,4.379,4.5447,4.9053,4.9088,5.1055,5.5924,5.8453,5.9488,5.8952,6.1836,6.1063,5.6192,5.7154,5.5994,5.272,5.1818,5.2266,5.3802,5.3039,5.3592,5.5095,5.4327,5.3998,5.3998,5.3998,5.3998,5.3998,5.3998,5.3998,5.3998,5.3998,5.3998,5.3998,5.3998,5.3998,5.3998,5.3998,5.3998,5.3998,5.3998,5.3998,5.3998,5.3998,5.3998,5.3998,5.3998,5.3998,5.3998,5.3998,5.3998,5.3998,5.3998,5.3998,5.3959,5.3828,5.3691,5.3633,5.3769,5.3691,5.3691,5.3959,5.3998,5.3998,5.3998,5.3998,5.3998,5.3998,5.3998,5.3998,5.3998,5.3998,5.3998,5.3998,5.3998,5.4271,5.4883,5.5156,5.5586,5.6126,5.6445,5.6609,5.6609,5.6609,5.6609,5.6609,5.6609,5.6609]},{"header":{"parameterUnit":"m.s-1","parameterCategory":1,"la1":30.6,"la2":29.2853,"lo1":-89.7004,"lo2":-87.6739,"dy":0.0162,"dx":0.0183,"nx":112,"ny":82,"refTime":"2024-10-03T06:00:00:Z","depth":0,"parameterNumber":3,"parameterNumberName":"V-component_of_WINDS"},"data":[0.0,0.0,0.0,0.0,0.0,0.0,0.0,0.0,0.0,0.0,0.0,0.0,0.0,0.0,0.0,0.0,0.0,0.0,0.0,0.0,0.0,0.0,0.0,0.0,0.0,0.0,0.0,0.0,0.0,0.0,0.0,0.0,0.0,0.0,0.0,0.0,0.0,0.0,0.0,0.0,0.0,0.0,0.0,0.0,0.0,0.0,0.0,0.0,0.0,0.0,0.0,0.0,0.0,0.0,0.0,0.0,0.0,0.0,0.0,0.0,0.0,0.0,0.0,0.0,0.0,0.0,0.0,0.0,0.0,0.0,0.0,0.0,0.0,0.0,0.0,0.0,0.0,0.0,0.0,0.0,0.0,0.0,0.0,0.0,0.0,0.0,0.0,0.0,0.0,0.0,3.1748,3.3657,3.7349,3.9509,3.907,3.8253,3.6006,3.1924,0.0,0.0,0.0,0.0,0.0,0.0,0.0,0.0,0.0,0.0,0.0,0.0,0.0,0.0,0.0,0.0,0.0,0.0,0.0,0.0,0.0,0.0,0.0,0.0,0.0,0.0,0.0,0.0,0.0,0.0,0.0,0.0,0.0,0.0,0.0,0.0,0.0,0.0,0.0,0.0,0.0,0.0,0.0,0.0,0.0,0.0,0.0,0.0,0.0,0.0,0.0,0.0,0.0,0.0,0.0,0.0,0.0,0.0,0.0,0.0,0.0,0.0,0.0,0.0,0.0,0.0,0.0,0.0,0.0,0.0,0.0,0.0,0.0,0.0,0.0,0.0,0.0,0.0,0.0,0.0,0.0,0.0,0.0,0.0,0.0,0.0,0.0,0.0,0.0,0.0,0.0,0.0,0.0,0.0,0.0,0.0,0.0,0.0,0.0,0.0,0.0,0.0,0.0,0.0,3.1315,3.6672,3.8718,3.9685,3.9584,3.7764,3.5554,3.3014,0.0,0.0,0.0,0.0,0.0,0.0,0.0,0.0,0.0,0.0,0.0,0.0,0.0,0.0,0.0,0.0,0.0,0.0,0.0,0.0,0.0,0.0,0.0,0.0,0.0,0.0,0.0,0.0,0.0,0.0,0.0,0.0,0.0,0.0,0.0,0.0,0.0,0.0,0.0,0.0,0.0,0.0,0.0,0.0,0.0,0.0,0.0,0.0,0.0,0.0,0.0,0.0,0.0,0.0,0.0,0.0,0.0,0.0,0.0,0.0,0.0,0.0,0.0,0.0,0.0,0.0,0.0,0.0,0.0,0.0,0.0,0.0,0.0,0.0,0.0,0.0,0.0,0.0,0.0,0.0,0.0,0.0,0.0,0.0,0.0,0.0,0.0,0.0,0.0,0.0,0.0,0.0,0.0,0.0,0.0,0.0,0.0,0.0,0.0,0.0,0.0,0.0,0.0,3.0864,3.3484,3.8391,3.9409,3.9697,3.9697,3.7675,3.5314,3.2767,2.8925,0.0,0.0,0.0,0.0,0.0,0.0,0.0,0.0,0.0,0.0,0.0,0.0,0.0,0.0,0.0,0.0,0.0,0.0,0.0,0.0,0.0,0.0,0.0,0.0,0.0,0.0,0.0,0.0,0.0,0.0,0.0,0.0,0.0,0.0,0.0,0.0,0.0,0.0,0.0,0.0,0.0,0.0,0.0,0.0,0.0,0.0,0.0,0.0,0.0,0.0,0.0,0.0,0.0,0.0,0.0,0.0,0.0,0.0,0.0,0.0,0.0,0.0,0.0,0.0,0.0,0.0,0.0,0.0,0.0,0.0,0.0,0.0,0.0,0.0,0.0,0.0,0.0,0.0,0.0,0.0,0.0,0.0,0.0,0.0,0.0,0.0,0.0,0.0,0.0,0.0,0.0,0.0,0.0,0.0,0.0,0.0,0.0,0.0,0.0,0.0,0.0,0.0,3.4689,3.5956,3.9358,3.9697,3.9697,3.9697,3.7311,3.4773,3.2355,2.7686,0.0,0.0,0.0,0.0,0.0,0.0,0.0,0.0,0.0,0.0,0.0,0.0,0.0,0.0,0.0,0.0,0.0,0.0,0.0,0.0,0.0,0.0,0.0,0.0,0.0,0.0,0.0,0.0,0.0,0.0,0.0,0.0,0.0,0.0,0.0,0.0,0.0,0.0,0.0,0.0,0.0,0.0,0.0,0.0,0.0,0.0,0.0,0.0,0.0,0.0,0.0,0.0,0.0,0.0,0.0,0.0,0.0,0.0,0.0,0.0,0.0,0.0,0.0,0.0,0.0,0.0,0.0,0.0,0.0,0.0,0.0,0.0,0.0,0.0,0.0,0.0,0.0,0.0,0.0,0.0,0.0,0.0,0.0,0.0,0.0,0.0,0.0,0.0,0.0,0.0,0.0,0.0,0.0,0.0,0.0,0.0,0.0,0.0,0.0,0.0,0.0,0.0,3.5077,3.7675,3.9496,3.9697,3.9697,3.9697,3.6232,3.3545,3.2279,2.6589,0.0,0.0,0.0,0.0,0.0,0.0,0.0,0.0,0.0,0.0,0.0,0.0,0.0,0.0,0.0,0.0,0.0,0.0,0.0,0.0,0.0,0.0,0.0,0.0,0.0,0.0,0.0,0.0,0.0,0.0,0.0,0.0,0.0,0.0,0.0,0.0,0.0,0.0,0.0,0.0,0.0,0.0,0.0,0.0,0.0,0.0,0.0,0.0,0.0,0.0,0.0,0.0,0.0,0.0,0.0,0.0,0.0,0.0,0.0,0.0,0.0,0.0,0.0,0.0,0.0,0.0,0.0,0.0,0.0,0.0,0.0,0.0,0.0,0.0,0.0,0.0,0.0,0.0,0.0,0.0,0.0,0.0,0.0,0.0,0.0,0.0,0.0,0.0,0.0,0.0,0.0,0.0,0.0,0.0,0.0,0.0,0.0,0.0,0.0,0.0,0.0,0.0,3.4739,3.7049,3.9459,3.9697,4.0019,4.0819,3.7551,3.4727,3.3,0.0,0.0,0.0,0.0,0.0,0.0,0.0,0.0,0.0,0.0,0.0,0.0,0.0,0.0,0.0,0.0,0.0,0.0,0.0,0.0,0.0,0.0,0.0,0.0,0.0,0.0,0.0,0.0,0.0,0.0,0.0,0.0,0.0,0.0,0.0,0.0,0.0,0.0,0.0,0.0,0.0,0.0,0.0,0.0,0.0,0.0,0.0,0.0,0.0,0.0,0.0,0.0,0.0,0.0,0.0,0.0,0.0,0.0,0.0,0.0,0.0,0.0,0.0,0.0,0.0,0.0,0.0,0.0,0.0,0.0,0.0,0.0,0.0,0.0,0.0,0.0,0.0,0.0,0.0,0.0,0.0,0.0,0.0,0.0,0.0,0.0,0.0,0.0,0.0,0.0,0.0,0.0,0.0,0.0,0.0,0.0,0.0,0.0,0.0,0.0,0.0,0.0,3.3162,3.6092,3.8581,4.0686,4.092,4.1257,4.2145,3.8824,3.5658,3.3209,0.0,0.0,0.0,0.0,0.0,0.0,0.0,0.0,0.0,0.0,0.0,0.0,0.0,0.0,0.0,0.0,0.0,0.0,0.0,0.0,0.0,0.0,0.0,0.0,0.0,0.0,0.0,0.0,0.0,0.0,0.0,0.0,0.0,0.0,0.0,0.0,0.0,0.0,0.0,0.0,0.0,0.0,0.0,0.0,0.0,0.0,0.0,0.0,0.0,0.0,0.0,0.0,0.0,0.0,0.0,0.0,0.0,0.0,0.0,0.0,0.0,0.0,0.0,0.0,0.0,0.0,0.0,0.0,0.0,0.0,0.0,0.0,0.0,0.0,0.0,0.0,0.0,0.0,0.0,0.0,0.0,0.0,0.0,0.0,0.0,0.0,0.0,0.0,0.0,0.0,0.0,0.0,0.0,0.0,0.0,0.0,0.0,0.0,0.0,0.0,0.0,0.0,3.4636,3.9508,4.2911,4.3448,4.3504,4.3515,4.3527,3.9771,3.6038,0.0,0.0,0.0,0.0,0.0,0.0,0.0,0.0,0.0,0.0,0.0,0.0,0.0,0.0,0.0,0.0,0.0,0.0,0.0,0.0,0.0,0.0,0.0,0.0,0.0,0.0,0.0,0.0,0.0,0.0,0.0,0.0,0.0,0.0,0.0,0.0,0.0,0.0,0.0,0.0,0.0,0.0,0.0,0.0,0.0,0.0,0.0,0.0,0.0,0.0,0.0,0.0,0.0,0.0,0.0,0.0,0.0,0.0,0.0,0.0,0.0,0.0,0.0,0.0,0.0,0.0,0.0,0.0,0.0,0.0,0.0,0.0,0.0,0.0,0.0,0.0,0.0,0.0,0.0,0.0,0.0,0.0,0.0,0.0,0.0,0.0,0.0,0.0,0.0,0.0,0.0,0.0,0.0,0.0,0.0,0.0,0.0,0.0,0.0,0.0,0.0,0.0,0.0,3.5155,3.9747,4.2911,4.3448,4.3504,4.3858,4.4771,4.1349,3.8023,3.534,0.0,0.0,0.0,0.0,0.0,0.0,0.0,0.0,0.0,0.0,0.0,0.0,0.0,0.0,0.0,0.0,0.0,0.0,0.0,0.0,0.0,0.0,0.0,0.0,0.0,0.0,0.0,0.0,0.0,0.0,0.0,0.0,0.0,0.0,0.0,0.0,0.0,0.0,0.0,0.0,0.0,0.0,0.0,0.0,0.0,0.0,0.0,0.0,0.0,0.0,0.0,0.0,0.0,0.0,0.0,0.0,0.0,0.0,0.0,0.0,0.0,0.0,0.0,0.0,0.0,0.0,0.0,0.0,0.0,0.0,0.0,0.0,0.0,0.0,0.0,0.0,0.0,0.0,0.0,0.0,0.0,0.0,0.0,0.0,0.0,0.0,0.0,0.0,0.0,0.0,0.0,0.0,0.0,0.0,0.0,0.0,0.0,0.0,0.0,0.0,0.0,0.0,3.6154,4.1217,4.4652,4.4967,4.5024,4.532,4.6099,4.3391,4.0248,3.7002,0.0,0.0,0.0,0.0,0.0,0.0,0.0,0.0,0.0,0.0,0.0,0.0,0.0,0.0,0.0,0.0,0.0,0.0,0.0,0.0,0.0,0.0,0.0,0.0,0.0,0.0,0.0,0.0,0.0,0.0,0.0,0.0,0.0,0.0,0.0,0.0,0.0,0.0,0.0,0.0,0.0,0.0,0.0,0.0,0.0,0.0,0.0,0.0,0.0,0.0,0.0,0.0,0.0,0.0,0.0,0.0,0.0,0.0,0.0,0.0,0.0,0.0,0.0,0.0,0.0,0.0,0.0,0.0,0.0,0.0,0.0,0.0,0.0,0.0,0.0,0.0,0.0,0.0,0.0,0.0,0.0,0.0,0.0,0.0,0.0,0.0,0.0,0.0,0.0,0.0,0.0,0.0,0.0,0.0,0.0,0.0,0.0,0.0,0.0,0.0,0.0,0.0,3.7628,4.3445,4.7328,4.7399,4.7339,4.7309,4.7309,4.5503,4.2495,3.8064,0.0,0.0,0.0,0.0,0.0,0.0,0.0,0.0,0.0,0.0,0.0,0.0,0.0,0.0,0.0,0.0,0.0,0.0,0.0,0.0,0.0,0.0,0.0,0.0,0.0,0.0,0.0,0.0,0.0,0.0,0.0,0.0,0.0,0.0,0.0,0.0,0.0,0.0,0.0,0.0,0.0,0.0,0.0,0.0,0.0,0.0,0.0,0.0,0.0,0.0,0.0,0.0,0.0,0.0,0.0,0.0,0.0,0.0,0.0,0.0,2.9217,2.731,0.0,0.0,0.0,0.0,0.0,0.0,0.0,0.0,0.0,0.0,0.0,0.0,0.0,0.0,0.0,0.0,0.0,0.0,0.0,0.0,0.0,0.0,0.0,0.0,0.0,0.0,0.0,0.0,0.0,0.0,0.0,0.0,0.0,0.0,0.0,0.0,0.0,0.0,0.0,0.0,3.9693,4.435,4.7489,4.8038,4.7608,4.7309,4.7309,4.5933,4.3579,4.0012,3.6428,0.0,0.0,0.0,0.0,0.0,0.0,0.0,0.0,0.0,0.0,0.0,0.0,0.0,0.0,0.0,0.0,0.0,0.0,0.0,0.0,0.0,0.0,0.0,0.0,0.0,0.0,0.0,0.0,0.0,0.0,0.0,0.0,0.0,0.0,0.0,0.0,0.0,0.0,0.0,0.0,0.0,0.0,0.0,0.0,0.0,0.0,0.0,0.0,0.0,0.0,0.0,0.0,0.0,0.0,0.0,0.0,0.0,0.0,0.0,3.4087,3.2118,0.0,0.0,0.0,0.0,0.0,0.0,0.0,0.0,0.0,0.0,0.0,0.0,0.0,0.0,0.0,0.0,0.0,0.0,0.0,0.0,0.0,0.0,0.0,0.0,0.0,0.0,0.0,0.0,0.0,0.0,0.0,0.0,0.0,0.0,0.0,0.0,0.0,0.0,0.0,0.0,4.0879,4.5126,4.7919,4.8248,4.7978,4.7638,4.7339,4.6371,4.4785,4.2422,3.9191,0.0,0.0,0.0,0.0,0.0,0.0,0.0,0.0,0.0,0.0,0.0,0.0,0.0,0.0,0.0,0.0,0.0,0.0,0.0,0.0,0.0,0.0,0.0,0.0,0.0,0.0,0.0,0.0,0.0,0.0,0.0,0.0,0.0,0.0,0.0,0.0,0.0,0.0,0.0,0.0,0.0,0.0,0.0,0.0,0.0,0.0,0.0,0.0,0.0,0.0,0.0,0.0,0.0,3.9899,4.0991,4.1667,4.2206,4.3023,4.3793,3.9634,3.8116,3.8354,3.544,0.0,0.0,0.0,0.0,0.0,0.0,0.0,0.0,0.0,0.0,0.0,0.0,0.0,0.0,0.0,0.0,0.0,0.0,0.0,0.0,0.0,0.0,3.8667,3.9774,4.191,4.1999,3.5845,0.0,0.0,0.0,0.0,0.0,0.0,0.0,0.0,0.0,0.0,0.0,4.2192,4.6062,4.8517,4.8626,4.8427,4.8068,4.7519,4.685,4.5882,4.4546,4.1824,3.9191,0.0,0.0,0.0,0.0,0.0,0.0,0.0,0.0,0.0,0.0,0.0,0.0,0.0,0.0,0.0,0.0,0.0,0.0,0.0,0.0,0.0,0.0,0.0,0.0,0.0,0.0,0.0,0.0,0.0,0.0,0.0,0.0,2.7876,3.0234,0.0,0.0,0.0,0.0,0.0,0.0,0.0,0.0,0.0,0.0,0.0,0.0,0.0,3.8429,3.9508,4.2559,4.3689,4.2961,4.6039,4.7054,4.6245,4.6788,4.7405,4.8014,4.732,0.0,4.0775,3.9396,0.0,0.0,0.0,0.0,0.0,0.0,0.0,0.0,0.0,0.0,0.0,0.0,0.0,0.0,0.0,0.0,0.0,0.0,0.0,0.0,0.0,0.0,4.835,4.8528,4.9314,4.9282,4.6645,4.0691,3.5166,3.2857,3.1694,3.0554,0.0,0.0,0.0,0.0,0.0,0.0,4.5133,4.7733,4.9355,4.989,4.8955,4.8248,4.8188,4.7549,4.6591,4.5244,4.4217,4.3,4.1532,3.852,0.0,0.0,0.0,0.0,0.0,0.0,0.0,0.0,0.0,0.0,0.0,0.0,0.0,0.0,0.0,0.0,0.0,0.0,0.0,0.0,0.0,0.0,0.0,0.0,0.0,0.0,0.0,0.0,0.0,2.8073,3.068,3.1721,3.1723,3.107,0.0,0.0,0.0,0.0,0.0,0.0,0.0,0.0,0.0,4.0501,4.1895,4.3277,4.4654,4.6466,4.7421,4.7516,4.9355,5.0108,4.9925,5.0477,5.1363,5.2495,5.2175,5.1177,4.935,4.447,4.1572,4.0031,0.0,0.0,0.0,0.0,3.9843,4.0274,4.2481,4.2732,4.1973,4.1315,0.0,0.0,0.0,0.0,0.0,0.0,0.0,4.2008,4.3949,4.6882,4.9687,5.0999,5.1858,5.1977,5.0762,4.7711,4.3854,3.9337,3.833,3.6972,3.3014,3.3553,0.0,0.0,0.0,4.3406,4.6967,4.8835,4.9901,5.0177,4.971,4.9224,4.8887,4.8588,4.8158,4.76,4.6561,4.5563,4.4616,4.2093,3.9631,0.0,0.0,0.0,0.0,0.0,0.0,0.0,0.0,0.0,0.0,0.0,0.0,0.0,0.0,0.0,0.0,0.0,0.0,0.0,0.0,0.0,0.0,0.0,0.0,0.0,0.0,0.0,0.0,3.1486,3.3495,3.3495,3.45,3.4209,0.0,0.0,0.0,0.0,0.0,0.0,3.9584,4.1291,4.3148,4.5221,4.6391,4.7838,4.9608,5.0194,5.1107,5.2349,5.2787,5.3303,5.3887,5.4095,5.497,5.6295,5.5724,5.5858,5.6041,4.9605,4.6857,4.6503,4.4877,4.5028,4.6312,4.7425,4.7497,4.7472,5.0292,5.0263,4.8816,4.7775,4.6372,4.4453,4.1171,0.0,0.0,0.0,0.0,4.5826,4.8284,4.9767,5.1111,5.3016,5.3725,5.3827,5.3336,5.2965,5.105,4.5475,4.4666,4.3349,3.8371,3.8999,0.0,3.9969,4.299,4.6232,4.8716,5.0021,5.0656,5.0476,5.0297,5.0009,4.9565,4.9396,4.9288,4.9288,4.8368,4.7578,4.7089,4.5284,4.325,4.0947,0.0,0.0,0.0,0.0,0.0,0.0,0.0,0.0,0.0,0.0,0.0,0.0,0.0,0.0,0.0,0.0,0.0,0.0,0.0,0.0,0.0,0.0,0.0,0.0,0.0,0.0,0.0,0.0,0.0,3.6947,3.9283,0.0,0.0,0.0,0.0,3.8517,4.0565,4.2537,4.4177,4.5869,4.7566,4.9238,5.041,5.2066,5.424,5.4803,5.5938,5.7614,5.7641,5.8003,5.8618,5.803,5.8133,5.8801,5.813,5.7571,5.6953,5.4379,5.3055,5.2392,5.0747,5.0478,5.0994,5.0489,5.0967,5.2071,5.3579,5.3539,5.3227,5.5653,5.371,5.0406,5.0448,4.9002,0.0,0.0,5.113,5.2987,5.4428,5.5308,5.6008,5.6705,5.6449,5.6042,5.6013,5.5012,5.3252,5.0357,4.9374,4.8289,4.6102,0.0,4.5364,4.6621,4.7549,4.8805,5.0799,5.1666,5.1858,5.1217,5.0578,5.0207,5.0147,4.9625,4.9288,4.9288,4.9228,4.9187,4.9168,4.7829,4.6441,4.5035,4.0526,0.0,0.0,0.0,0.0,0.0,0.0,0.0,0.0,0.0,0.0,0.0,0.0,0.0,0.0,0.0,0.0,0.0,0.0,0.0,0.0,0.0,0.0,0.0,0.0,0.0,0.0,0.0,0.0,4.0376,4.2548,0.0,4.0879,4.182,4.2735,4.3126,4.52,4.6994,4.8269,5.1023,5.2994,5.3956,5.5871,5.7076,5.7438,5.8042,5.8443,5.8649,5.9084,5.9421,5.9631,5.8957,5.9364,6.0566,5.9882,6.0123,6.0924,6.0122,5.8552,5.6607,5.5994,5.656,5.7616,5.7409,5.7573,5.7997,5.8498,5.8222,5.7611,5.7713,5.6169,5.4293,5.4386,5.3861,5.3317,5.3908,5.4862,5.582,5.6299,5.6598,5.6838,5.7047,5.6928,5.6778,5.6778,5.6419,5.5777,5.485,5.2755,5.0552,4.8577,4.8716,4.8985,4.8637,4.9864,5.1211,5.2336,5.2707,5.2588,5.1917,5.2007,5.1798,5.0907,5.105,5.0792,4.9931,4.9505,4.9108,4.8678,4.7788,4.6879,4.5952,4.3469,3.9948,0.0,0.0,0.0,0.0,0.0,0.0,0.0,0.0,0.0,0.0,0.0,0.0,0.0,0.0,0.0,0.0,0.0,0.0,0.0,0.0,0.0,0.0,0.0,0.0,0.0,3.9684,4.2797,4.2989,4.5462,4.6426,4.4568,4.5899,4.743,4.881,5.0428,5.2046,5.3554,5.582,5.7263,5.7596,5.9172,6.006,6.0181,6.0622,6.0893,6.1045,6.1475,6.1804,6.1991,6.1317,6.1736,6.2983,6.2312,6.2661,6.3737,6.3737,6.2601,6.0794,6.0355,6.0832,6.1762,6.1762,6.1762,6.1732,6.1523,6.1164,6.0595,5.9474,5.853,5.7855,5.7855,5.7855,5.7796,5.7569,5.7796,5.8065,5.7842,5.7782,5.7782,5.7782,5.7603,5.7513,5.7723,5.7423,5.7154,5.7393,5.5508,5.3306,5.1582,5.1989,5.2187,5.1121,5.2049,5.3025,5.3486,5.3545,5.3276,5.2618,5.2737,5.2498,5.1606,5.1517,5.1146,5.0267,4.9404,4.8768,4.8319,4.7219,4.6411,4.5982,4.4217,4.1504,3.7802,0.0,0.0,0.0,0.0,0.0,0.0,0.0,0.0,0.0,0.0,0.0,0.0,0.0,0.0,0.0,0.0,0.0,0.0,0.0,0.0,0.0,0.0,0.0,3.907,4.2875,4.5447,4.4905,4.8218,4.9715,4.7618,4.9888,5.2677,5.5502,5.6216,5.753,5.9886,6.0072,6.0104,6.0104,6.0197,6.0987,6.2578,6.2638,6.3453,6.5024,6.5054,6.5398,6.5996,6.5338,6.5398,6.5966,6.5308,6.4994,6.4994,6.4994,6.4994,6.4874,6.3632,6.3138,6.3138,6.3108,6.3108,6.3003,6.2375,6.2121,6.2032,6.1359,6.115,6.112,6.112,6.112,6.097,6.031,6.013,5.998,5.9338,5.9159,5.9159,5.9129,5.8637,5.8324,5.8966,5.8082,5.7363,5.8008,5.7603,5.6778,5.5491,5.5251,5.5029,5.4359,5.4269,0.0,5.4239,5.4239,5.3982,5.3306,5.2677,5.2276,5.2217,5.0996,5.0237,5.0147,4.8955,4.8278,4.8278,4.6392,4.5364,4.5394,4.283,4.1184,4.0487,0.0,0.0,0.0,0.0,0.0,0.0,0.0,0.0,0.0,0.0,0.0,0.0,0.0,0.0,0.0,0.0,0.0,0.0,0.0,0.0,0.0,4.1217,4.3991,4.3148,4.6527,4.9298,4.995,5.2051,5.3723,5.442,5.5188,5.652,5.8625,5.892,5.9297,5.9963,6.1622,6.2533,6.2533,6.4177,6.506,6.5031,6.5536,6.5735,6.5727,6.6221,6.655,6.67,6.6041,6.5817,6.5966,6.5308,6.4994,6.4994,6.4994,6.4994,6.4904,6.4066,6.3737,6.3692,6.3243,6.3108,6.3063,6.2884,6.2824,6.2794,6.2614,6.2211,6.1822,6.1822,6.1493,6.106,6.088,6.0835,6.0761,6.0581,6.0551,6.0446,5.9951,5.9668,5.9458,5.9159,5.88,5.859,5.8786,5.868,5.8141,5.6808,5.6598,5.6359,5.573,5.5641,5.5461,5.497,5.491,5.467,5.4012,5.4192,5.3773,5.2306,5.1846,5.0828,4.8955,4.8027,4.7578,4.7578,4.704,4.698,4.747,4.5345,4.3658,0.0,0.0,0.0,0.0,0.0,0.0,0.0,0.0,0.0,0.0,0.0,0.0,0.0,0.0,0.0,0.0,0.0,0.0,0.0,0.0,0.0,0.0,4.6174,4.9225,4.9508,5.1492,5.3258,5.4166,5.6019,5.7739,5.9059,5.9403,6.0407,6.2479,6.2638,6.2964,6.3721,6.5068,6.5809,6.5809,6.7131,6.7657,6.7268,6.7358,6.7224,6.6819,6.6954,6.7014,6.6984,6.661,6.643,6.64,6.5996,6.5847,6.5847,6.5847,6.5847,6.5727,0.0,0.0,0.0,0.0,6.3303,6.3108,6.3108,6.3108,6.3108,6.3108,6.2824,6.2525,6.2525,6.2241,6.1882,6.1613,6.1509,6.1449,6.118,6.109,6.1,6.0625,6.0505,6.0416,6.0013,5.9923,5.9833,5.9578,5.9518,0.0,5.8112,5.7679,5.7304,5.6658,5.6568,5.6419,5.606,5.579,5.5461,5.5072,5.488,5.4311,5.3144,5.2276,0.0,0.0,0.0,4.7459,4.6909,4.7149,0.0,0.0,0.0,0.0,0.0,0.0,0.0,0.0,4.4776,4.4716,0.0,0.0,0.0,0.0,0.0,0.0,0.0,0.0,0.0,0.0,0.0,0.0,0.0,0.0,0.0,0.0,5.1283,5.4725,5.6838,5.7351,5.7588,5.7779,5.9819,6.1475,6.2231,6.2777,6.406,6.643,6.6603,6.7302,6.8925,6.9004,0.0,0.0,0.0,6.9004,6.9004,6.8421,6.8107,6.8107,6.7523,6.7224,6.7208,6.7164,6.7104,6.7104,6.7029,6.7014,6.7014,6.7014,6.7014,6.6879,6.5607,6.5054,6.4934,6.4321,6.3767,6.3303,6.3227,0.0,0.0,6.3123,6.3108,6.3108,6.3108,6.3108,6.2988,6.2375,6.2211,6.2061,6.1493,6.1329,6.1299,6.1239,6.121,6.118,6.112,6.109,6.091,6.0326,6.022,6.0027,5.9428,5.8697,5.7979,5.7304,5.7214,5.7184,5.7094,5.6628,5.6312,5.6312,5.5239,0.0,5.4418,5.2713,5.1546,5.1337,4.9673,4.8237,4.7108,4.7867,4.8536,4.9056,5.0338,5.2133,5.4431,5.5179,5.588,5.6372,5.032,4.9392,0.0,0.0,0.0,0.0,0.0,0.0,0.0,0.0,0.0,0.0,0.0,0.0,0.0,0.0,0.0,5.1637,5.619,5.9896,6.1354,6.3185,6.3535,6.1196,6.2197,6.3711,6.5279,6.5555,6.6409,6.8341,6.8468,6.8641,6.8988,6.9004,6.9004,6.9004,6.9004,6.9004,6.9004,6.8854,6.8794,6.881,6.8675,0.0,6.8585,6.8062,6.7808,6.7778,6.7224,6.7014,6.7014,6.7014,6.7014,6.6909,6.6116,6.5488,6.4994,6.4845,6.474,6.456,6.4006,6.3827,6.3752,6.3243,6.3108,6.3108,6.3108,6.3108,0.0,6.2944,6.2914,6.2884,6.2734,6.2704,6.2584,6.2032,6.1912,6.1762,6.121,6.109,6.106,6.094,6.091,6.0864,6.0731,5.9714,5.8667,5.8008,5.7919,5.7709,5.7154,5.7017,5.6928,5.6928,5.6675,5.6359,5.585,5.4952,5.3713,5.2127,5.1648,5.157,5.1839,5.3545,5.4306,5.3875,5.5119,5.5777,5.5833,5.6961,5.7889,5.8471,5.6107,5.5418,0.0,0.0,0.0,0.0,0.0,0.0,0.0,0.0,0.0,0.0,0.0,4.3696,4.5639,0.0,5.4545,5.7117,6.0705,6.3489,6.4418,6.6611,6.7141,6.4392,6.5681,6.7149,6.8044,6.8419,6.8984,6.9867,6.9961,6.9961,6.9961,6.9961,6.9961,6.9961,6.9961,6.9961,6.9961,6.9632,6.9498,6.9498,6.9153,6.9004,6.9004,6.8645,6.8511,6.8481,6.8136,6.7986,6.7986,6.7986,6.7986,6.7926,6.7254,6.64,6.5518,6.5518,6.5308,6.4964,6.462,6.45,6.4411,6.3767,6.3542,6.3482,6.3183,6.3108,6.3108,6.3108,6.3108,6.3108,6.3108,6.3108,6.3018,6.2674,6.2614,6.2525,6.2181,6.2091,6.2002,6.1672,6.1613,6.1479,6.115,6.0551,5.9983,5.9654,5.9325,5.8979,5.8634,5.8022,5.759,5.759,5.7304,5.6987,5.6671,5.606,5.5132,5.3785,5.4024,5.4354,5.4695,5.6269,5.7004,5.6662,5.7945,5.8634,5.865,5.9638,6.0446,6.1088,6.04,5.9921,0.0,0.0,0.0,0.0,0.0,0.0,0.0,3.8216,3.9283,4.2169,4.6229,4.9924,5.2082,5.613,5.9885,6.2307,6.4733,6.6503,6.7123,6.8915,6.9419,6.7433,6.8947,7.0187,7.0187,7.062,7.0889,7.0889,7.1009,7.1098,7.1098,7.1098,7.1098,7.1098,7.0979,7.0889,7.0889,7.0426,7.0187,7.0157,6.9632,6.9363,6.9363,6.9243,6.9183,6.9183,6.9064,6.9004,6.9004,6.9004,6.9004,6.8944,6.8391,6.7537,6.6535,6.6295,6.5936,6.5547,6.5263,6.5203,6.5054,6.4276,6.4006,6.3887,6.3273,6.3108,6.3108,6.3108,6.3108,6.3108,6.3108,6.3108,6.3108,6.3108,6.3108,6.3108,6.3108,6.3108,6.2944,6.2405,6.2301,6.2121,6.1569,6.1493,6.1389,6.115,6.0655,6.028,6.028,5.9249,5.8547,5.8667,5.7962,5.7543,5.7663,5.724,5.6778,5.6376,5.6718,5.703,5.715,5.8248,5.8876,5.8876,6.007,6.0938,6.1493,6.2032,6.2584,6.3108,6.3108,6.2794,3.4151,3.4226,3.5255,3.8705,3.8555,3.9647,0.0,4.7606,4.6823,5.0142,5.3734,5.6213,5.606,6.0695,6.4821,6.5742,6.79,6.9704,7.0314,7.0626,7.0704,7.042,7.0626,7.0799,7.0799,7.0859,7.0889,7.0889,7.1457,7.1803,7.1803,7.1803,7.1803,7.1803,7.1218,7.0889,7.0889,7.0829,7.0799,7.0799,7.0709,7.0679,7.0679,7.0111,6.9887,6.9858,6.9243,6.9004,6.9004,6.9004,6.9004,6.9004,6.8914,6.8794,6.8525,6.7343,6.7224,6.7493,6.6311,6.5877,6.5667,6.4425,6.4006,6.3887,6.3273,6.3108,6.3108,6.3108,6.3108,6.3108,6.3108,6.3108,6.3108,6.3108,6.3108,6.3108,6.3108,6.3108,6.3078,6.3003,6.2988,6.2944,6.2884,6.2884,6.2465,6.1269,6.103,6.1,6.1,6.0326,6.0086,6.0701,5.9624,5.9129,5.9711,5.9711,5.9891,6.0402,5.9951,5.9921,6.0521,6.1253,6.1642,6.1642,6.2375,6.2808,6.2884,6.2944,6.3048,6.3108,6.3108,6.3063,3.9496,4.0236,4.1001,4.3299,4.4317,4.5799,4.9866,5.0377,5.0998,5.447,5.7989,6.0687,6.1557,6.521,6.8178,6.846,6.9632,7.062,7.0859,7.059,7.0231,6.9842,6.9782,7.0081,7.0829,7.0889,7.1068,7.1457,7.1743,7.2072,7.2475,7.2132,7.2072,7.2475,7.1457,7.1098,7.1474,7.1487,7.1278,7.0889,7.1308,7.1278,7.0889,7.0649,7.053,7.05,7.0231,7.0111,7.0111,7.0111,7.0111,7.0081,6.9722,6.9782,6.9961,6.8645,6.8092,6.7928,6.7373,6.6909,6.643,6.5473,6.5173,6.4964,6.3931,6.3617,6.3542,6.3183,6.3108,6.3108,6.3108,6.3108,6.3108,6.3108,6.3108,6.3108,6.3108,6.3108,6.3108,6.3108,6.3108,6.3108,6.3108,6.3108,6.2914,6.2345,6.1942,6.1672,6.1672,6.1104,6.0805,6.106,6.0581,6.0372,6.0655,6.0685,6.0805,6.109,6.1194,6.1373,6.1672,6.2345,6.2674,6.2674,6.2944,6.3273,6.3617,6.3617,6.3827,6.4216,6.4216,6.4216,4.2559,4.3951,4.5181,4.6627,4.8761,5.0745,5.1599,5.2653,5.4383,5.7623,6.0721,6.3403,6.5294,6.7875,6.9798,6.9977,7.0366,7.0649,7.0649,7.0127,6.9468,6.8794,6.8555,6.8884,6.9991,7.044,7.0979,7.1833,7.2072,7.2475,7.3146,7.2714,7.2654,7.3146,7.2039,7.1697,7.2192,7.2176,7.1936,7.1457,7.1936,7.1906,7.1457,7.1457,7.1368,7.1188,7.1188,7.1068,7.0889,7.0889,7.0889,7.0859,7.0426,7.05,7.0799,6.9871,6.9109,6.8496,6.8137,6.7673,6.7134,6.6281,6.5996,6.5787,6.4635,6.4276,6.4156,6.3512,6.3482,6.3542,6.3183,6.3213,6.3303,6.3123,6.3108,6.3108,6.3108,6.3108,6.3108,6.3108,6.3108,6.3108,6.3108,6.3108,6.3108,6.3108,6.2674,6.2375,6.2375,6.1942,6.1509,6.115,6.1433,6.1583,6.1389,6.1553,6.1642,6.1642,6.2121,6.2375,6.2375,6.2824,6.3108,6.3108,6.3273,6.3572,6.4006,6.4186,6.453,6.4994,6.4994,6.5084,4.1654,4.3374,4.5989,4.819,5.077,5.3239,5.4863,5.6075,5.7551,6.0065,6.2062,6.3976,6.5917,6.7768,6.9243,6.9887,7.0007,7.0037,7.0037,6.9453,6.8764,6.8107,6.7463,6.7343,6.8017,6.9259,7.0546,7.1803,7.2505,7.3146,7.3821,7.3851,7.3851,7.3881,7.3206,7.2847,7.2877,7.2877,7.2847,7.2847,7.2847,7.2847,7.2847,7.2847,7.2475,7.1863,7.1863,7.1487,7.0889,7.0889,7.0889,7.0889,7.0889,7.0889,7.0889,7.0859,7.044,6.9738,6.8466,6.7987,6.7748,6.643,6.5996,6.5877,6.5174,6.4964,6.4815,6.4156,6.4441,6.465,6.3422,6.3542,6.3842,6.3257,6.3108,6.3108,6.3108,6.3108,6.3108,6.3108,6.3108,6.3108,6.3108,6.3108,6.3108,6.3108,6.3063,6.3063,6.3063,6.3048,6.2555,6.1239,6.2241,6.2764,6.2121,6.2674,6.3048,6.3048,6.3063,6.3063,6.3063,6.3108,6.3108,6.3108,6.3662,6.3977,6.4006,6.465,6.4964,6.4994,6.4994,6.5368,4.5181,4.7481,4.9882,5.211,5.416,5.6193,5.8409,5.9162,6.022,6.3146,6.4166,6.4994,6.6484,6.7254,6.8046,6.9153,6.9333,6.9498,6.9947,6.9798,6.893,6.6909,6.7254,6.7403,6.6729,6.7882,6.9558,7.1743,7.2132,7.294,7.4467,7.4138,7.4108,7.4557,7.3492,7.3116,7.3552,7.3552,7.3343,7.2907,7.2907,7.2907,7.2907,7.2907,7.2787,7.2565,7.2565,7.2445,7.2219,7.2219,7.1966,7.1547,7.1547,7.1278,7.0889,7.0889,7.0769,7.047,6.9618,6.8736,6.7928,6.7463,6.7044,6.655,6.5877,6.5667,6.5518,6.4859,6.4829,6.4904,6.447,6.45,6.462,6.4411,6.4351,6.4351,6.4351,6.4006,6.3692,6.3692,6.3363,6.3108,6.3108,6.3108,6.3108,6.3108,6.3108,6.3108,6.3108,6.3108,6.2928,6.2495,6.2824,6.3003,6.2794,6.2974,6.3108,6.3108,6.3108,6.3108,6.3108,6.3482,6.3692,6.3692,6.4321,6.4889,6.5323,6.6539,6.734,6.7783,6.7783,6.8427,4.8259,5.0469,5.2452,5.4856,5.7044,5.8966,6.0347,6.113,6.2118,6.4152,6.391,6.3751,6.5008,6.4859,6.5278,6.7567,6.7926,6.8405,6.9798,6.9798,6.8914,6.6939,6.7463,6.7778,6.7148,6.8062,6.9498,7.1414,7.2013,7.2924,7.4467,7.4377,7.4437,7.4886,7.4061,7.3821,7.4257,7.4257,7.4031,7.3612,7.3612,7.3612,7.3612,7.3612,7.3492,7.3266,7.3266,7.3116,7.2907,7.2907,7.2505,7.1893,7.1893,7.1504,7.0889,7.0889,7.0889,7.0799,7.0217,6.9439,6.8676,6.8437,6.8062,6.7597,6.6909,6.67,6.652,6.5607,6.5518,6.5607,6.5114,6.5174,6.5293,6.5054,6.4994,6.4994,6.4994,6.468,6.4306,6.4036,6.3887,6.3617,6.3197,6.3108,6.3108,6.3108,6.3108,6.3108,6.3108,6.3108,6.3108,6.3108,6.3108,6.3108,6.3108,6.3108,6.3108,6.3108,6.3303,6.3422,6.3422,6.4006,6.4351,6.4351,6.5009,6.5577,6.5996,6.7736,6.8782,6.9216,7.0009,7.0757,5.067,5.2277,5.3808,5.6536,5.9382,6.1394,6.0984,6.2107,6.3205,6.3121,6.1495,6.0435,6.1554,6.0848,6.1357,6.5233,6.6026,6.7059,6.9678,6.9558,6.893,6.8197,6.8167,6.8421,6.9004,6.9678,7.0336,7.0919,7.2159,7.3206,7.3911,7.4557,7.4886,7.4886,7.4886,7.4886,7.4886,7.4886,7.4886,7.4886,7.4886,7.4886,7.4886,7.4886,7.4557,7.3941,7.3941,7.3582,7.2997,7.2997,7.2595,7.1953,7.1953,7.1517,7.0889,7.0889,7.0889,7.0829,7.0247,7.0037,6.9887,6.9243,6.9034,6.8884,6.8181,6.7987,6.7748,6.643,6.652,6.67,6.5413,6.5577,6.5877,6.5233,6.5084,6.5084,6.5084,6.5084,6.4845,6.4246,6.459,6.462,6.3393,6.3183,6.3183,6.3183,6.3183,6.3153,6.3108,6.3108,6.3108,6.3108,6.3108,6.3108,6.3108,6.3123,6.3168,6.3168,6.3722,6.4066,6.4066,6.468,6.5054,6.5054,6.5772,6.6192,6.6237,6.8432,6.9509,6.9583,7.167,7.233,5.2553,5.4813,5.724,5.9735,6.0884,6.2012,6.4195,6.3541,6.232,6.1748,6.0043,5.8288,5.7165,5.8693,6.0908,6.3422,6.6311,6.8824,7.044,7.1398,7.1308,6.9678,7.0336,7.056,6.9736,7.0739,7.1474,7.1637,7.2415,7.3402,7.4587,7.4796,7.4886,7.4886,7.4886,7.4886,7.4886,7.4886,7.4886,7.4886,7.4886,7.4886,7.4886,7.4886,7.4796,7.4646,7.4646,7.4557,7.4377,7.4377,7.3702,7.2654,7.2654,7.1936,7.0889,7.0889,7.0889,7.0889,7.0709,7.0396,6.9977,6.9798,6.9393,6.8884,6.8181,6.7987,6.7838,6.6969,6.6864,6.6909,6.658,6.661,6.67,6.652,6.649,6.649,6.649,6.6086,6.5697,6.5518,6.5218,6.4904,6.456,6.453,6.453,6.453,6.453,6.4171,6.3213,6.3108,6.3108,6.3108,6.3108,6.3108,6.3108,6.3512,6.3767,6.3767,6.4381,6.474,6.474,6.5398,6.5757,6.5757,6.7494,6.8647,6.9198,7.1949,7.3573,7.4133,7.4691,7.545,5.4963,5.7465,5.9794,6.1125,6.2454,6.347,6.3509,6.2566,6.094,5.821,5.6496,5.485,5.2576,5.5102,5.8261,6.0535,6.4725,6.8435,7.059,7.2039,7.2505,7.1398,7.2146,7.2475,7.171,7.2595,7.321,7.321,7.3283,7.3672,7.4437,7.4736,7.4886,7.4886,7.4886,7.4886,7.4886,7.4886,7.4886,7.4886,7.4886,7.4886,7.4886,7.4886,7.4886,7.4886,7.4886,7.4886,7.4886,7.4886,7.4287,7.3313,7.2997,7.2428,7.1757,7.1457,7.1338,7.1338,7.1338,7.0919,7.038,7.038,7.0141,6.9722,6.9034,6.884,6.8676,6.7703,6.7433,6.7373,6.7074,6.7014,6.7074,6.7373,6.7224,6.7074,6.7373,6.6909,6.643,6.643,6.5667,6.5084,6.5398,6.5203,6.4994,6.4994,6.4994,6.4725,6.4036,6.3947,6.3947,6.3947,6.3947,6.3947,6.3947,6.4231,6.4441,6.4441,6.5674,6.6388,6.6388,6.7974,6.886,6.886,7.0334,7.1326,7.1746,7.4042,7.541,7.5812,7.6796,7.7527,5.7323,5.9786,6.1605,6.1664,6.3764,6.485,6.1157,6.0323,5.886,5.3725,5.2019,5.069,4.8338,5.1199,5.4867,5.7756,6.2616,6.7208,7.0679,7.2249,7.3057,7.3146,7.3672,7.4031,7.4031,7.4646,7.5035,7.5035,7.4587,7.421,7.4031,7.4587,7.4886,7.4886,7.4886,7.4886,7.4886,7.4886,7.4886,7.4886,7.4886,7.4886,7.4886,7.4886,7.4886,7.4886,7.4886,7.4886,7.4886,7.4886,7.4497,7.3821,7.3266,7.2967,7.2817,7.2235,7.2042,7.2042,7.2042,7.1637,7.1128,7.0949,7.0889,7.0769,7.0095,6.9961,6.9708,6.8377,6.8077,6.7987,6.7313,6.7194,6.7403,6.7972,6.7673,6.7403,6.7882,6.7463,6.7014,6.7014,6.6056,6.5458,6.6026,6.5727,6.5398,6.5398,6.5473,6.5503,6.5428,6.5174,6.4994,6.4994,6.4994,6.5083,6.5276,6.5381,6.5544,6.5856,6.7685,6.8831,6.8893,7.1322,7.2655,7.2655,7.3472,7.3936,7.4047,7.5521,7.6292,7.6431,7.8329,7.8889,5.8309,6.0359,6.2359,6.2842,6.3707,6.3838,6.1466,5.8494,5.5042,5.0845,4.8566,4.7029,4.5992,4.9494,5.3952,5.8218,6.2929,6.7522,7.195,7.3223,7.3941,7.4497,7.4646,7.4736,7.4736,7.5318,7.5736,7.5736,7.6078,7.5839,7.4766,7.4826,7.4886,7.4886,7.4886,7.4886,7.4886,7.4886,7.4886,7.4886,7.4886,7.4886,7.4886,7.4886,7.4886,7.4886,7.4886,7.4886,7.4886,7.4886,7.4497,7.3881,7.3762,7.3402,7.2877,7.2757,7.2744,7.2744,7.2744,7.2638,7.2368,7.1278,7.0889,7.0799,7.0187,6.9977,6.9708,6.8377,6.8391,6.8675,6.8017,6.8241,6.8675,6.8794,6.8734,6.8525,6.8092,6.7463,6.7014,6.7014,6.6819,6.67,6.6819,6.7194,6.7463,6.7463,6.7956,6.8106,6.7553,6.6041,6.4994,6.4994,6.4994,6.5496,6.6704,6.7327,6.8426,7.0246,7.1249,7.2011,7.2644,7.3152,7.3405,7.3405,7.4729,7.5725,7.6316,7.7815,7.8821,7.9453,7.9837,7.9938,6.012,6.2212,6.3911,6.4159,6.4386,6.3426,5.9029,5.5478,5.1798,4.713,4.5403,4.4446,4.3449,4.732,5.163,5.4508,5.9145,6.4276,6.9602,7.0919,7.2235,7.4616,7.5215,7.5407,7.5407,7.6006,7.6377,7.6377,7.6647,7.6527,7.5916,7.5587,7.5407,7.5407,7.5065,7.4886,7.4886,7.4886,7.4886,7.4886,7.4886,7.4886,7.4886,7.4886,7.4886,7.4886,7.4886,7.4886,7.4886,7.4886,7.4706,7.4377,7.4031,7.3911,7.3881,7.3552,7.3432,7.3432,7.3432,7.3193,7.2787,7.2129,7.1936,7.1816,7.1174,7.0995,7.0726,6.9409,6.9259,6.9379,6.869,6.878,6.9093,6.9439,6.9512,6.9349,6.866,6.8256,6.8046,6.8046,6.8046,6.8046,6.8046,6.8331,6.8511,6.8511,6.8794,6.9184,6.9656,6.8893,6.7697,6.6192,6.7365,6.8411,6.8765,7.0158,7.1456,7.2513,7.362,7.4382,7.474,7.5844,7.6446,7.6446,7.791,7.8862,7.9184,7.9917,8.0424,8.0763,8.0763,8.0763,6.1401,6.3658,6.5167,6.496,6.4841,6.3064,5.6466,5.2695,4.9153,4.4147,4.2891,4.2442,4.1762,4.5235,4.8966,5.1259,5.5585,6.0819,6.694,6.872,7.0769,7.4467,7.5497,7.5929,7.6078,7.6647,7.7006,7.7006,7.7155,7.7095,7.6826,7.6347,7.6078,7.6078,7.5587,7.5305,7.5305,7.5185,7.5095,7.5095,7.4976,7.4886,7.4886,7.4886,7.4886,7.4886,7.4886,7.4886,7.4886,7.4886,7.4886,7.4856,7.4317,7.4437,7.4826,7.4317,7.4091,7.4091,7.4091,7.3762,7.3343,7.3343,7.3116,7.2787,7.2265,7.2013,7.1653,7.0516,7.0187,7.0037,6.9363,6.9303,6.9542,7.0067,7.0097,6.9858,6.9333,6.9093,6.9004,6.9004,6.9004,6.9004,6.9004,6.9393,6.9704,6.9704,7.0107,7.0786,7.1865,7.2122,7.1243,6.8696,7.0433,7.172,7.15,7.3064,7.4273,7.475,7.6023,7.6793,7.6972,7.8787,7.9824,7.9824,8.0953,8.1541,8.1541,8.1541,8.1541,8.1541,8.1541,8.1541,6.0904,6.3352,6.5038,6.4368,6.4151,6.2361,5.5795,5.1319,4.741,4.3329,4.1513,4.0995,4.2101,4.3639,4.658,5.2109,5.5431,5.9578,6.6176,6.9183,7.1757,7.4557,7.5497,7.6108,7.6659,7.7305,7.7694,7.7694,7.828,7.81,7.6886,7.6766,7.6719,7.6719,7.6676,7.6647,7.6647,7.6078,7.5826,7.5796,7.5185,7.4886,7.4886,7.4886,7.4886,7.4886,7.4886,7.4886,7.4886,7.4886,7.4886,7.4886,7.4826,7.4856,7.4886,7.4826,7.4796,7.4796,7.4796,7.4766,7.4706,7.4706,7.3881,7.2877,7.2817,7.2385,7.1743,7.1009,7.0829,7.0649,7.0005,7.0274,7.0739,7.0799,7.0396,6.9977,6.9917,6.9439,6.9004,6.9004,6.9004,6.9004,6.9004,7.0677,7.1995,7.1995,7.3707,7.4817,7.4352,7.4831,7.4628,7.314,7.3221,7.3914,7.5199,7.549,7.6457,7.8485,7.9361,8.0111,8.0766,8.1633,8.209,8.209,8.2225,8.2293,8.2293,8.2293,8.2293,8.2293,8.2293,8.2293,6.231,6.5044,6.6771,6.6017,6.4634,6.1836,5.5628,5.084,4.68,4.3599,4.1594,4.0825,4.2131,4.313,4.5185,4.9535,5.1121,5.4114,6.0701,6.3228,6.6296,7.1354,7.3599,7.5407,7.7215,7.8382,7.916,7.9597,7.9477,7.916,7.8651,7.7843,7.7394,7.7394,7.7006,7.6779,7.6779,7.6557,7.6437,7.6437,7.5796,7.5497,7.5497,7.5095,7.4886,7.4886,7.4886,7.4886,7.4886,7.4886,7.4886,7.4886,7.4886,7.4886,7.4886,7.4886,7.4886,7.4886,7.4886,7.4886,7.4886,7.4886,7.4527,7.4048,7.3612,7.3313,7.2864,7.1803,7.1487,7.1427,7.1158,7.1607,7.1996,7.1607,7.1324,7.1025,7.062,7.032,7.0415,7.1395,7.1551,7.1844,7.2818,7.3692,7.4294,7.4294,7.5043,7.5842,7.6511,7.6804,7.7325,7.8159,7.7,7.6275,7.6439,7.8083,7.9484,8.0386,8.1122,8.1663,8.1934,8.2225,8.2395,8.2395,8.2847,8.305,8.305,8.305,8.305,8.305,8.305,8.305,6.2193,6.5244,6.714,6.6805,6.459,6.1058,5.5466,5.0619,4.655,4.3838,4.1913,4.1035,4.2201,4.293,4.4307,4.7249,4.8506,5.1259,5.7247,5.9757,6.3153,6.9019,7.1667,7.4121,7.6963,7.895,8.0266,8.0764,8.0356,7.9997,7.9818,7.889,7.8292,7.81,7.7634,7.7394,7.7394,7.7185,7.7095,7.7095,7.6467,7.6048,7.5886,7.5587,7.5275,7.4916,7.5095,7.5215,7.5215,7.5215,7.5215,7.5215,7.5215,7.5065,7.4886,7.4886,7.4886,7.4886,7.4886,7.4886,7.4886,7.4886,7.4886,7.4796,7.4347,7.4061,7.3702,7.2761,7.2372,7.2206,7.2206,7.2565,7.289,7.2909,7.2918,7.2852,7.2647,7.2605,7.2966,7.4075,7.4256,7.4649,7.601,7.6621,7.6843,7.6649,7.7193,7.7915,7.8803,7.9103,7.9854,8.1438,8.0199,7.9049,7.8557,8.0438,8.1642,8.1642,8.2306,8.2733,8.2733,8.2936,8.3037,8.3037,8.3545,8.3828,8.3828,8.3828,8.3828,8.3828,8.3828,8.3828,5.9632,6.2986,6.528,6.5868,6.3543,5.9923,5.5256,5.0619,4.655,4.3838,4.2272,4.1583,4.2291,4.288,4.3957,4.6001,4.9052,5.2791,5.7457,6.0954,6.456,6.8525,7.0141,7.2265,7.5617,7.8878,8.0794,8.0794,8.0794,8.0494,7.9848,7.9788,7.9477,7.8807,7.8759,7.8777,7.8777,7.813,7.7801,7.7783,7.7125,7.6467,7.5916,7.6527,7.6078,7.4946,7.5587,7.5886,7.5886,7.5886,7.5886,7.5886,7.5886,7.5467,7.4886,7.4886,7.4886,7.4886,7.4886,7.4886,7.4886,7.4886,7.4886,7.4886,7.4886,7.4437,7.3881,7.3881,7.3402,7.2877,7.2877,7.2877,7.3295,7.488,7.526,7.5527,7.6457,7.6635,7.6635,7.6665,7.6665,7.6903,7.765,7.9028,7.9801,7.9062,8.0896,8.2064,8.1346,8.1908,8.2348,8.2395,8.2382,8.2335,8.2348,8.2361,8.2395,8.2395,8.3084,8.349,8.349,8.4187,8.458,8.458,8.458,8.458,8.458,8.458,8.458,8.458,8.458,8.458,5.4434,5.7951,6.0598,5.9549,5.8185,5.6196,5.2893,4.9291,4.6251,4.4935,4.3279,4.2271,4.2901,4.316,4.4825,4.9572,5.1187,5.3503,5.8128,6.2017,6.5383,6.8002,7.3462,7.7771,7.9735,8.0853,8.168,8.2129,8.174,8.1411,8.1183,8.0734,7.9956,7.8837,7.8807,7.8807,7.8807,7.8579,7.8489,7.846,7.7801,7.7365,7.7185,7.6916,7.6587,7.6198,7.6407,7.6527,7.6527,7.6527,7.6527,7.6527,7.6527,7.6377,7.6198,7.6198,7.5946,7.5587,7.5587,7.5258,7.4886,7.4886,7.4886,7.4886,7.4886,7.4736,7.4497,7.4048,7.3762,7.3837,7.4939,7.5554,7.6223,7.7397,7.7669,7.7662,7.7484,7.7443,7.7751,7.882,7.9018,7.9439,8.073,8.1357,8.1583,8.1348,8.1931,8.2327,8.2069,8.2259,8.2598,8.3084,8.3152,8.2949,8.2428,8.2881,8.3152,8.3152,8.3849,8.4255,8.4255,8.4492,8.4614,8.4614,8.4614,8.4614,8.4614,8.4614,8.4614,8.4614,8.4614,8.4614,5.0518,5.4484,5.7296,5.6434,5.5144,5.3503,5.1325,4.8274,4.5743,4.5065,4.3748,4.2851,4.324,4.3718,4.5254,4.8985,5.084,5.3341,5.7723,6.1762,6.5682,6.9409,7.5288,7.9477,8.0573,8.159,8.2357,8.2776,8.2417,8.2069,8.18,8.1411,8.0674,7.9597,7.9297,7.9297,7.9537,7.9046,7.8926,7.9178,7.8489,7.8041,7.7783,7.7634,7.7275,7.6808,7.7065,7.7185,0.0,7.7185,7.7185,7.7185,7.7185,7.7035,7.6779,7.6779,7.6557,7.6228,7.6228,7.5976,7.5678,7.6061,7.6446,7.6747,7.6747,7.6316,7.5841,7.6075,7.6132,7.6361,7.7355,7.7936,7.8549,7.9798,8.0086,8.0053,7.9957,7.9954,8.0222,8.119,8.14,8.1771,8.3028,8.324,8.3139,8.2881,8.3037,8.3139,8.2834,8.3071,8.3409,8.3849,8.393,8.3714,8.3274,8.3646,8.393,8.393,8.4356,8.4614,8.4614,8.4614,8.4614,8.4614,8.4614,8.4614,8.4614,8.4614,8.4614,8.4614,8.4614,8.4762,0.0,5.1808,5.4558,5.5149,5.3486,5.1367,5.0159,4.7437,0.0,4.4426,4.3758,4.3359,4.3599,4.4516,4.5424,4.6033,4.9213,5.3012,5.7047,6.1208,6.6236,7.2638,7.6185,7.834,7.9016,8.1339,8.2806,8.2806,8.2806,8.2537,8.189,8.186,8.159,8.0943,8.0266,8.0225,8.0794,7.9567,7.9238,7.9848,7.9238,7.8579,7.7963,7.8579,7.816,7.6976,7.7604,7.7873,7.7873,7.7873,7.7873,7.7873,7.7873,7.7484,7.6946,7.6946,7.6898,7.6904,7.7014,7.7019,7.7136,7.8162,7.9069,7.9818,7.9925,7.8784,7.7804,7.9359,7.9788,7.9818,7.9938,7.9969,8.0376,8.1997,8.2373,8.2603,8.3402,8.3592,8.3592,8.3592,8.3592,8.3795,8.4492,8.4614,8.439,8.3693,8.4153,8.4356,8.3659,8.4187,8.4614,8.4614,8.4614,8.4614,8.4614,8.4614,8.4614,8.4614,8.4614,8.4614,8.4614,8.4614,8.4614,8.4614,8.4614,8.4614,8.4695,8.4695,8.4715,8.4749,8.4749,8.5168,4.088,0.0,4.6648,4.6402,4.664,4.683,0.0,4.5443,4.4486,4.4326,4.3758,4.4077,4.6651,4.5723,4.6681,5.3264,5.5089,5.7274,6.1762,6.7567,7.3043,7.7634,7.9776,8.1111,8.1789,8.2417,8.2806,8.2806,8.2806,8.2717,8.2567,8.2567,8.2507,8.2309,8.168,8.1153,8.0794,8.0494,8.0405,8.0554,8.0405,7.9986,7.9339,7.9489,7.91,7.834,7.8489,7.8549,7.8549,7.8549,7.8549,7.8549,7.8549,7.846,7.834,7.834,7.8011,7.7757,7.9099,7.9212,7.8943,7.9953,8.0086,8.0031,8.1239,8.0513,7.9297,7.9681,7.9788,8.0076,8.1312,8.165,8.204,8.366,8.4049,8.411,8.431,8.4343,8.4343,8.4343,8.4343,8.439,8.458,8.4614,8.4546,8.439,8.4478,8.4546,8.4356,8.4478,8.4614,8.4614,8.4614,8.4614,8.4614,8.4614,8.4614,8.4614,8.4614,8.4614,8.4614,8.4614,8.4614,8.4614,8.4614,8.4898,8.552,8.552,8.5824,8.6352,8.6352,8.6453,3.8504,4.2162,4.5562,4.5583,4.6142,4.6691,4.6691,4.5204,4.3848,4.3848,4.3818,4.4416,4.6542,4.6969,4.8723,5.4012,5.6898,6.0639,6.6775,7.2265,7.6844,7.9878,8.1441,8.2417,8.2747,8.2806,8.2806,8.2806,8.2806,8.2806,8.2806,8.2806,8.2806,8.2806,8.2447,8.2069,8.171,8.1093,8.0943,8.1261,8.0943,8.0614,8.0237,7.9937,7.9608,7.9238,7.8938,7.8807,7.8807,7.8807,7.8807,7.8807,7.8807,7.8807,7.8897,7.9711,7.9755,7.9698,8.1461,8.2091,8.2204,8.2393,8.2491,8.2644,8.314,8.2684,8.1997,8.1997,8.1997,8.2216,8.3068,8.331,8.3517,8.4392,8.4614,8.4614,8.4614,8.4614,8.4614,8.4614,8.4614,8.4614,8.4614,8.4614,8.4614,8.4614,8.4614,8.4614,8.4614,8.4614,8.4614,8.4614,8.4614,8.4614,8.4614,8.4614,8.4614,8.4614,8.4614,8.4614,8.4614,8.4614,8.4614,8.4614,8.4965,8.5351,8.5804,8.6129,8.6501,8.6893,8.6893,8.7062,3.901,4.3627,4.7848,4.7619,4.7919,4.8218,4.7919,4.5653,4.3609,4.3609,4.4147,4.5025,4.6411,4.8933,5.1475,5.3533,5.8155,6.4081,7.1593,7.5707,7.8699,8.0704,8.2039,8.2806,8.2806,8.2806,8.2806,8.2806,8.2806,8.2806,8.2806,8.2806,8.2806,8.2806,8.2806,8.2806,8.2806,8.168,8.1411,8.1949,8.1381,8.1033,8.0943,8.0356,7.9997,7.9758,7.9208,7.8878,7.8807,7.8807,7.8807,7.8807,7.8807,7.8957,7.9374,8.086,8.1565,8.204,8.3786,8.5004,8.5685,8.5057,8.5294,8.5669,8.4999,8.4681,8.4614,8.4614,8.4614,8.4614,8.4614,8.4614,8.4614,8.4614,8.4614,8.4614,8.4614,8.4614,8.4614,8.4614,8.4614,8.4614,8.4614,8.4614,8.4614,8.4614,8.4614,8.4614,8.4614,8.4614,8.4614,8.4614,8.4614,8.4614,8.4614,8.4614,8.4614,8.4614,8.4614,8.4614,8.4614,8.4614,8.4647,8.4796,8.5452,8.5905,8.6142,8.6771,8.7144,8.7245,8.7245,8.7617,4.2105,4.6672,4.9542,4.5164,4.6191,4.7859,4.6153,4.5364,4.4975,4.4975,4.5533,4.7377,5.1995,5.3252,5.5329,6.0579,6.4919,6.9602,7.527,7.7562,7.9387,8.1411,8.2327,8.2806,8.2806,8.2806,8.2806,8.2806,8.2806,8.2806,8.2806,8.2806,8.2806,8.2806,8.2806,8.2806,8.2806,8.2597,8.2537,8.2657,8.2537,8.2189,8.165,8.153,8.0883,7.9788,7.9698,7.9327,7.8807,7.8807,7.8807,7.8807,7.8807,7.9681,8.1032,8.1292,8.2341,8.385,8.5537,8.6752,8.7574,8.7486,8.6695,8.577,8.5669,8.5148,8.4614,8.4614,8.4614,8.4614,8.4614,8.4614,8.4614,8.4614,8.4614,8.4614,8.4614,8.4614,8.4614,8.4614,8.4614,8.4614,8.4614,8.4614,8.4614,8.4614,8.4614,8.4614,8.4614,8.4614,8.4614,8.4614,8.4614,8.4614,8.4614,8.4614,8.4614,8.4614,8.4614,8.4614,8.4614,8.4614,8.4931,8.5601,8.5736,8.6413,8.7651,8.7786,8.8158,8.8748,8.8748,8.9154,4.2232,4.6259,4.9213,4.7456,5.0081,5.2737,5.148,5.0343,4.9565,4.9565,5.0092,5.1517,5.4713,5.7047,6.0535,6.6835,7.059,7.3821,7.6916,7.8819,8.0363,8.165,8.2387,8.2806,8.2806,8.2806,8.2806,8.2806,8.2806,8.2806,8.2806,8.2806,8.2806,8.2806,8.2806,8.2806,8.2806,8.2806,8.2806,8.2806,8.2806,8.2627,8.2327,8.1949,8.1291,8.0326,7.9967,7.9399,7.8807,7.8807,7.8807,7.8897,7.9839,8.0687,8.1632,8.3463,8.5273,8.6861,8.765,8.8203,8.8545,8.8125,8.7279,8.6332,8.5905,8.5249,8.4681,8.5148,8.4931,8.4614,8.4614,8.4614,8.4614,8.4614,8.4614,8.4614,8.4614,8.4614,8.4614,8.4614,8.4614,8.4614,8.4614,8.4614,8.4614,8.4614,8.4614,8.4614,8.4614,8.4614,8.4614,8.4614,8.4614,8.4614,8.4614,8.4614,8.4796,8.5215,8.5249,8.5439,8.5845,8.5845,8.6014,8.6399,8.6785,8.7313,8.7989,8.8409,8.8984,8.9681,8.9681,9.0087,4.3031,4.6223,4.9105,5.0548,5.3341,5.5867,5.6509,5.4982,5.3755,5.4832,5.5448,5.6226,5.7569,6.1178,6.5907,7.1863,7.4809,7.6844,7.831,7.9956,8.1332,8.214,8.2578,8.2866,8.2997,8.2896,8.2806,8.2806,8.2806,8.2806,8.2806,8.2806,8.2806,8.2806,8.2806,8.2806,8.2806,8.2806,8.2806,8.2806,8.2806,8.2806,8.2776,8.2268,8.168,8.1003,8.0345,7.9656,7.9028,7.8849,7.8807,7.8957,8.0704,8.1889,8.2972,8.5996,8.794,8.9086,8.9086,8.9086,8.9018,8.8443,8.7753,8.7042,8.6481,8.5757,8.527,8.5892,8.5621,8.5087,8.4931,8.4762,8.4614,8.4614,8.4614,8.4614,8.4614,8.4614,8.4614,8.4614,8.4614,8.4614,8.4614,8.4614,8.4614,8.4614,8.4614,8.4614,8.4614,8.4762,8.4796,8.4614,8.4918,8.5134,8.5134,8.4999,8.527,8.6244,8.6142,8.6298,8.6893,8.6893,8.6961,8.713,8.7719,8.8091,8.8274,8.8815,8.9492,9.0208,9.0208,9.0696,4.683,4.8944,5.0536,5.2498,5.2306,5.2743,5.6991,5.5974,5.5346,5.9654,6.0581,6.1,6.2359,6.6326,7.0785,7.4958,7.6784,7.834,8.0315,8.1242,8.217,8.3438,8.3098,8.3027,8.3587,8.3147,8.2806,8.2806,8.2806,8.2806,8.2806,8.2806,8.2806,8.2806,8.2806,8.2806,8.2806,8.2806,8.2806,8.2806,8.2806,8.2806,8.2806,8.2747,8.2357,8.168,8.1003,8.0345,7.9668,7.9058,7.8807,7.8957,8.0704,8.3333,8.6345,8.8219,8.9002,8.9086,8.9086,8.9086,8.9086,8.9052,8.8511,8.7922,8.7854,8.7313,8.6758,8.6792,8.6792,8.6589,8.5905,8.5182,8.4614,8.4614,8.4614,8.4614,8.4614,8.4614,8.4614,8.4614,8.4614,8.4614,8.4614,8.4614,8.4614,8.4614,8.4614,8.4614,8.4614,8.5249,8.5418,8.4681,8.5878,8.6724,8.6724,8.6095,8.6311,8.7753,8.7211,8.6825,8.6893,8.6893,8.7231,8.7922,8.7955,8.8342,8.9018,8.9052,8.9492,9.0208,9.0208,9.0952,4.4576,4.7945,5.1206,5.2797,5.4341,5.6273,5.9295,6.0462,6.2017,6.5832,6.6311,6.64,6.7717,7.0051,7.2714,7.5467,7.7682,7.9429,8.0644,8.174,8.2608,8.3087,8.2937,8.2896,8.3117,8.2907,8.2806,8.2806,8.2806,8.2806,8.2806,8.2806,8.2806,8.2806,8.2806,8.2806,8.2806,8.2806,8.2806,8.2806,8.2806,8.2806,8.2806,8.2806,8.2189,8.1153,8.0913,8.0195,7.9238,8.0054,8.0422,8.0687,8.3479,8.6027,8.819,8.8841,8.9086,8.9086,8.9086,8.9086,8.9086,8.9086,8.8612,8.7989,8.7989,8.7482,8.6995,8.7448,8.7231,8.6825,8.6569,8.5926,8.5351,8.5351,8.4965,8.4614,8.4614,8.4614,8.4614,8.4614,8.4614,8.4614,8.4614,8.4614,8.4614,8.4614,8.4614,8.4796,8.5283,8.5601,8.5872,8.6014,8.6555,8.6893,8.6893,8.7076,8.7428,8.7955,8.7753,8.7786,8.826,8.826,8.8409,8.868,8.914,8.9512,8.9782,9.0222,9.0865,9.1561,9.1561,9.2136,4.4566,4.8136,5.1935,5.3707,5.6479,5.9534,6.257,6.4351,6.6565,7.0949,7.0979,7.056,7.1637,7.2428,7.3625,7.5809,7.8232,8.0117,8.0973,8.2069,8.2866,8.3057,8.2926,8.2866,8.3087,8.2926,8.2806,8.2806,8.2806,8.2806,8.2806,8.2806,8.2806,8.2806,8.2806,8.2806,8.2806,8.2806,8.2806,8.2806,8.2806,8.2806,8.2806,8.2806,8.2605,8.2273,8.2062,8.1635,8.1161,8.2158,8.2731,8.3235,8.5581,8.7572,8.9086,8.9086,8.9086,8.9086,8.9086,8.9086,8.912,8.9357,8.8951,8.8395,8.8632,8.8192,8.7719,8.8206,8.7989,8.7583,8.7583,8.6873,8.6142,8.6142,8.5723,8.527,8.5033,8.5168,8.527,8.5033,8.4965,8.5067,8.5303,8.4918,8.4695,8.4931,8.4965,8.5182,8.5736,8.621,8.6785,8.7516,8.7164,8.7096,8.755,8.7854,8.8091,8.8342,8.8342,8.8578,8.9086,8.9086,8.9086,8.9086,8.9816,9.0208,9.0208,9.0932,9.1677,9.2392,9.2392,9.2812,4.8098,5.0223,5.2887,5.5534,5.8228,6.1567,6.685,6.7014,6.7911,7.4569,7.4313,7.3146,7.3791,7.3402,7.3775,7.6407,7.8501,8.0285,8.162,8.2387,8.3027,8.3617,8.3177,8.3027,8.3647,8.3147,8.2806,8.2806,8.2806,8.2806,8.2806,8.2806,8.2806,8.2806,8.2806,8.2806,8.2806,8.2825,8.2844,8.2844,8.2844,8.2844,8.2844,8.2844,8.3791,8.5476,8.4794,8.5124,8.6043,8.5388,8.5687,8.651,8.651,8.7572,8.9086,8.9086,8.9086,8.9086,8.9086,8.9086,8.9221,8.9951,8.9681,8.9255,8.9985,8.9681,8.9086,8.9086,8.9086,8.9086,8.9086,8.8023,8.6927,8.6927,8.6893,8.6704,8.5973,8.6366,8.667,8.5939,8.5804,8.6041,8.6758,8.5642,8.4898,8.5702,8.5804,8.5804,8.5804,8.709,8.8294,8.9018,8.7786,8.7516,8.8984,8.8443,8.8328,8.9052,8.9086,8.9086,8.9086,8.9086,8.9086,8.9086,8.9816,9.0208,9.0208,9.0966,9.1711,9.2392,9.2392,9.2846,4.6512,5.0152,5.4713,5.6419,6.1657,6.7119,7.0067,7.0456,7.1368,7.5659,7.6078,7.557,7.5347,7.548,7.6048,7.7305,7.9189,8.0823,8.168,8.2387,8.2866,8.3057,8.2926,8.2866,8.3057,8.2926,8.2806,8.2806,8.2806,8.2806,8.2806,8.2806,8.2806,8.2806,8.2806,8.2806,8.2806,8.4068,8.4685,8.4703,8.5974,8.5921,8.4685,8.4685,8.5437,8.6693,8.6488,8.6331,8.6223,8.6685,8.7429,8.8353,8.8353,8.8623,8.9086,8.9086,8.9086,8.9086,8.9086,8.9458,8.9816,8.9512,8.9613,8.9816,8.9512,8.9255,8.9086,8.9086,8.9086,8.9086,8.9086,8.8781,8.8308,8.7786,8.7265,8.6825,8.6636,8.6771,8.6825,8.6636,8.6569,8.6623,8.6859,8.6521,8.6284,8.6535,8.6569,8.6771,8.7279,8.8172,8.8849,8.9086,8.8714,8.8612,8.9052,8.8883,8.8883,8.9086,8.9086,8.9086,8.9086,8.9086,8.9086,8.9086,9.0324,9.0966,9.0966,9.23,9.3045,9.3233,9.3233,9.3383,4.9834,5.3862,5.8574,6.1164,6.5832,7.053,7.3552,7.424,7.4869,7.7125,7.7394,7.7155,7.7083,7.7352,7.7903,7.8849,8.0225,8.1422,8.2099,8.2567,8.2806,8.2806,8.2806,8.2806,8.2806,8.2806,8.2806,8.2806,8.2806,8.2806,8.2806,8.2806,8.2806,8.2806,8.2806,8.3154,8.3847,8.4957,8.5863,8.6589,8.7696,8.8018,8.761,8.692,8.7354,8.8685,8.9101,8.8878,8.8266,8.8506,8.8817,8.9086,8.9086,8.9086,8.9086,8.9086,8.9086,8.9086,8.9086,8.939,8.9782,8.9932,9.0087,9.0174,9.0033,8.9763,8.9492,8.9187,8.9086,8.9086,8.9086,8.9086,8.8984,8.8545,8.8091,8.7685,8.7414,8.7583,8.7685,8.738,8.7347,8.7448,8.7719,8.7279,8.6995,8.7279,8.7347,8.7617,8.8328,8.8815,8.9086,8.9086,8.9086,8.9086,8.9086,8.9086,8.9086,8.9086,8.9357,8.9545,8.9545,8.9255,8.9255,8.9526,9.0696,9.144,9.1744,9.3011,9.3586,9.3586,9.3586,9.3586,5.5598,5.9382,6.3199,6.7777,7.0201,7.2565,7.6904,7.7891,7.8071,7.8669,7.837,7.816,7.8759,7.8986,7.9477,8.0674,8.1471,8.2099,8.2717,8.2806,8.2806,8.2806,8.2806,8.2806,8.2806,8.2806,8.2806,8.2806,8.2806,8.2806,8.2806,8.2806,8.2901,8.3041,8.306,8.3902,8.5721,8.5916,8.6833,8.8455,8.8622,8.9529,9.1068,8.9267,8.9415,9.1176,9.2043,9.1967,9.1237,9.0478,8.9782,8.9086,8.9086,8.9154,8.9187,8.912,8.9187,8.9289,8.9221,8.9289,8.9627,9.0899,9.0899,9.0512,9.1102,9.0797,9.0053,8.939,8.9154,8.9086,8.9086,8.9086,8.9086,8.9086,8.9086,8.8917,8.8226,8.8646,8.8883,8.8226,8.8091,8.8294,8.8984,8.7989,8.7347,8.7989,8.8091,8.8328,8.9018,8.9086,8.9086,8.9086,8.9086,8.9086,8.9086,8.9086,8.912,8.9187,8.9816,9.0242,9.029,8.9647,8.9627,9.0275,9.1034,9.1744,9.2392,9.3199,9.3586,9.3586,9.3586,9.3586,5.3755,5.7975,6.3079,6.7194,7.1906,7.6078,7.813,7.8579,7.8627,7.8759,7.9118,7.9399,7.9548,8.0434,8.1261,8.153,8.2129,8.2627,8.2776,8.2806,8.2806,8.2806,8.2806,8.2806,8.2806,8.2806,8.2806,8.2806,8.2806,8.2806,8.2806,8.2806,8.3461,8.4867,8.4921,8.5792,8.761,8.902,8.9919,9.0337,9.1773,9.265,9.2954,9.1131,9.1321,9.2995,9.2564,9.1967,9.1237,9.0478,8.9782,8.9086,8.9086,8.9444,8.9884,8.9323,8.983,9.0729,9.0154,9.0715,9.1662,9.1372,9.1575,9.1865,9.144,9.0797,9.0174,9.0019,8.956,8.9086,8.9086,8.9086,8.9086,8.9086,8.9086,8.9052,8.8883,8.8984,8.9052,8.8883,8.8849,8.8917,8.9052,8.8849,8.868,8.8849,8.8849,8.8917,8.9086,8.9086,8.9086,8.9086,8.9086,8.9086,8.9086,8.9086,8.9357,8.9918,9.0121,9.0459,9.1034,9.0913,9.0899,9.1068,9.1798,9.2237,9.2392,9.3199,9.3586,9.3586,9.3586,9.3586,5.47,5.9668,6.5233,7.0486,7.433,7.7065,7.81,7.8579,7.8807,7.8807,7.9327,7.9788,7.9788,8.0883,8.18,8.18,8.2069,8.2309,8.2309,8.2039,8.183,8.183,8.183,8.1949,8.2297,8.2009,8.1979,8.2297,8.2009,8.2379,8.3563,8.36,8.4601,8.6714,8.6766,8.7661,8.9496,9.0433,9.1138,9.1642,9.2984,9.3586,9.3556,9.262,9.2494,9.2996,9.2575,9.1764,9.0729,9.0343,8.9782,8.9086,8.9086,8.9545,9.014,8.9782,9.0338,9.1169,9.0459,9.0918,9.1812,9.1406,9.1798,9.2339,9.1933,9.1561,9.1121,9.0411,8.9918,8.956,8.9187,8.9086,8.9086,8.9086,8.9086,8.9086,8.9086,8.9086,8.9086,8.9086,8.9086,8.9086,8.9086,8.9086,8.9086,8.9086,8.9086,8.9086,8.9086,8.9086,8.9086,8.9086,8.9086,8.9255,8.9579,8.9613,8.9951,9.0696,9.1053,9.1425,9.1798,9.2184,9.2218,9.1831,9.2203,9.2575,9.2996,9.3417,9.3586,9.3586,9.3586,9.3789,5.5047,6.112,6.7372,7.3941,7.6108,7.6826,7.7484,7.8071,7.846,7.846,7.916,7.9788,7.9788,8.0794,8.162,8.162,8.162,8.162,8.162,8.1153,8.0794,8.0794,8.0794,8.1003,8.159,8.1123,8.1033,8.159,8.1093,8.1691,8.3744,8.3846,8.5073,8.7752,8.7964,8.9056,9.1138,9.1153,9.1566,9.2406,9.3064,9.3484,9.3586,9.3451,9.303,9.2406,9.2136,9.1324,9.0174,9.0053,8.9647,8.9086,8.9086,8.9627,9.0377,9.0242,9.0831,9.1575,9.0831,9.1068,9.1691,9.1691,9.2116,9.2609,9.2609,9.2406,9.1967,9.0715,9.0208,8.9884,8.9255,8.9086,8.9086,8.9086,8.9086,8.9086,8.9086,8.9086,8.9086,8.9086,8.9086,8.9086,8.9086,8.9086,8.9086,8.9086,8.9086,8.9086,8.9086,8.9086,8.9086,8.9086,8.9086,8.939,9.014,9.0208,9.058,9.144,9.2068,9.2474,9.2609,9.3248,9.3281,9.2609,9.2609,9.2928,9.3586,9.3586,9.3586,9.3586,9.3586,9.3992,4.9935,5.7663,6.6595,7.2654,7.5108,7.6168,7.6796,7.7006,7.7065,7.7065,7.8531,7.9788,7.9788,8.0416,8.0943,8.0943,8.0943,8.0943,8.0943,8.0853,8.0794,8.0794,8.0794,8.0823,8.0913,8.0853,8.0823,8.0913,8.0853,8.0934,8.1271,8.1289,8.2844,8.6264,8.7004,8.8909,9.2156,9.2186,9.2255,9.2392,9.2508,9.2928,9.3586,9.2895,9.2508,9.2324,9.1053,9.0377,9.014,8.9526,8.9187,8.9086,8.9086,8.9932,9.1068,9.0459,9.1508,9.318,9.2373,9.2624,9.3281,9.3281,9.3349,9.3451,9.3451,9.2503,9.1406,9.1203,9.0222,8.9221,8.912,8.9086,8.9086,8.9086,8.9086,8.9086,8.9086,8.9086,8.9086,8.9086,8.9086,8.9086,8.9086,8.9086,8.9086,8.9086,8.9086,8.9086,8.9086,8.9086,8.9086,8.9086,8.9086,8.939,9.014,9.0208,9.0783,9.217,9.2358,9.2711,9.3417,9.3552,9.3552,9.3451,9.3451,9.3484,9.3586,9.3586,9.3586,9.3586,9.3586,9.3992,5.2917,5.9249,6.5443,7.1757,7.4061,7.5048,7.6048,7.6557,7.6779,7.6779,7.7496,7.8232,7.8591,7.9519,8.0237,8.0237,8.0237,8.0237,8.0237,7.9926,7.9686,7.9686,7.9686,7.9836,8.0207,7.9896,7.9836,8.0207,7.9896,8.0297,8.1682,8.2677,8.4563,8.7529,8.8829,9.0408,9.2377,9.2,9.1764,9.1764,9.1764,9.1981,9.23,9.1947,9.1764,9.1711,9.0648,8.9985,8.956,8.9221,8.9086,8.9154,8.9545,9.0357,9.1305,9.1392,9.2353,9.3484,9.2677,9.2643,9.2928,9.2928,9.2928,9.2928,9.2928,9.244,9.173,9.0932,9.0222,8.9715,8.9715,8.9424,8.9187,8.9613,8.939,8.9086,8.9086,8.9086,8.9086,8.9086,8.9086,8.9221,8.9647,8.9357,8.9255,8.9647,8.9357,8.9086,8.9086,8.9086,8.9086,8.9086,8.9086,8.956,9.0729,9.0831,9.1474,9.2962,9.3064,9.3233,9.3586,9.3586,9.3586,9.3586,9.3586,9.3586,9.3586,9.3586,9.3586,9.3586,9.3586,9.3992,5.4012,5.853,6.1986,6.8898,7.1667,7.3103,7.4779,7.5629,7.6108,7.6288,7.6467,7.6736,7.7215,7.8382,7.9339,7.9519,7.9548,7.9548,7.9548,7.9118,7.8807,7.8807,7.8807,7.8998,7.9489,7.9088,7.8998,7.9489,7.9088,7.9603,8.1463,8.3197,8.5197,8.7526,8.939,9.0847,9.1817,9.1305,9.1034,9.1034,9.1034,9.1203,9.1575,9.1372,9.1305,9.1237,9.0324,8.9627,8.9086,8.9086,8.9086,8.9154,8.9715,9.0357,9.1102,9.1628,9.244,9.3165,9.2373,9.2373,9.2643,9.2237,9.2373,9.2643,9.2237,9.2136,9.1865,9.0546,9.0208,9.0208,9.0208,8.9918,8.9763,9.0121,8.9782,8.9323,8.9154,8.9086,8.9086,8.9086,8.9086,8.9323,9.0073,8.9748,8.9579,9.0106,8.9715,8.9323,8.912,8.9086,8.9086,8.9086,8.9086,8.9695,9.1169,9.1305,9.1962,9.3484,9.3586,9.3586,9.3586,9.3586,9.3586,9.3586,9.3586,9.3586,9.3586,9.3586,9.3586,9.3586,9.3586,9.3992,4.8484,5.1684,5.464,6.251,6.6879,6.9931,7.2458,7.3582,7.421,7.4856,7.5497,7.5976,7.6006,7.7053,7.81,7.8747,7.8849,7.8849,7.8849,7.8819,7.8807,7.8807,7.8807,7.8807,7.8867,7.8819,7.8807,7.8867,7.8819,7.8843,7.8981,8.0644,8.2404,8.4187,8.6551,8.859,9.0295,9.0275,9.0242,9.0242,9.0242,9.0986,9.2339,9.1609,9.1305,9.1203,8.9763,8.912,8.9086,8.9086,8.9086,8.9086,8.9154,8.9627,9.0242,9.0309,9.1223,9.2373,9.1609,9.2319,9.3315,9.1812,9.2368,9.3248,9.1812,9.1372,9.1203,9.0425,9.0208,9.0208,9.0208,9.0696,9.1,9.0357,9.0174,8.9951,8.9255,8.9086,8.9086,8.9086,8.9086,8.9323,9.0073,9.0174,9.0154,9.0174,9.0174,8.9884,8.9187,8.9086,8.9086,8.9086,8.9086,8.9695,9.1169,9.1305,9.1962,9.3484,9.3586,9.3586,9.3586,9.3586,9.3586,9.3586,9.3586,9.3586,9.3586,9.3586,9.3586,9.3586,9.3586,9.3992,4.5713,4.9273,5.2953,5.8756,6.3005,6.637,6.8615,7.1248,7.3343,7.3582,7.448,7.5395,7.5826,7.6946,7.7891,7.813,7.8519,7.8639,7.822,7.816,7.816,7.816,7.816,7.834,7.8759,7.84,7.834,7.8777,7.84,7.8845,8.0392,8.2124,8.3866,8.5567,8.7526,8.9106,9.0208,9.1155,9.1358,9.0899,9.1392,9.1628,9.1696,9.1899,9.1744,9.1237,9.0256,8.9545,8.9086,8.9086,8.9086,8.9154,8.9613,8.9985,9.0242,9.0729,9.1237,9.1677,9.1372,9.1338,9.1474,9.1865,9.2049,9.2131,9.2049,9.1677,9.1135,9.0425,9.0208,9.0309,9.0797,9.1102,9.1102,9.0377,9.056,9.0696,8.9951,8.9816,8.9816,8.9816,9.0188,9.0608,9.0865,9.0527,9.0343,9.0831,9.0478,9.0106,8.985,9.0236,9.0324,8.985,9.0222,9.0899,9.1933,9.2,9.2455,9.3518,9.3586,9.3586,9.3586,9.3586,9.3586,9.3586,9.3586,9.3586,9.3586,9.3586,9.3586,9.3586,9.3586,9.3755,4.295,4.6221,5.0219,5.5735,5.877,6.1597,6.6266,6.9004,7.0962,7.2295,7.3612,7.4766,7.5437,7.6455,7.7233,7.7424,7.7861,7.7981,7.7514,7.7454,7.7454,7.7454,7.7454,7.7634,7.81,7.7921,7.7981,7.843,7.825,7.9085,8.1292,8.3038,8.4789,8.6468,8.819,8.9035,8.8957,9.0775,9.129,9.0575,9.1561,9.1778,9.1338,9.2068,9.2136,9.1643,9.1155,9.0527,8.983,8.956,8.9458,8.9545,9.029,9.0256,8.9918,9.0662,9.0932,9.0899,9.0642,9.056,9.0696,9.1425,9.1662,9.1711,9.1967,9.1711,9.1203,9.0729,9.056,9.0729,9.1474,9.1677,9.1541,9.1053,9.1135,9.1169,9.0696,9.056,9.0493,9.0242,9.0797,9.1203,9.0966,9.0932,9.102,9.1271,9.1087,9.085,9.0594,9.1,9.1102,9.0628,9.1,9.1609,9.2339,9.2392,9.2745,9.3552,9.3586,9.3586,9.3586,9.3586,9.3586,9.3586,9.3857,9.3958,9.3958,9.3721,9.3721,9.3958,9.3721,9.3586,0.0,0.0,0.0,5.3114,5.3994,5.5653,6.5353,6.6625,6.6909,7.0905,7.2791,7.3958,7.4736,7.5395,7.6048,7.6647,7.6779,7.6779,7.6779,7.6779,7.6779,7.6779,7.6779,7.6779,7.6779,7.7365,7.7753,7.7753,7.8424,7.9597,8.1346,8.312,8.4805,8.636,8.8152,8.8238,8.6561,8.899,8.9884,8.9187,9.0642,9.1305,9.1372,9.2068,9.2392,9.2426,9.2392,9.2,9.1305,9.056,9.0242,9.0309,9.1034,9.0439,8.9255,8.9951,9.0208,9.0121,8.939,9.0067,9.1169,9.0493,9.1223,9.2271,9.1575,9.1338,9.1338,9.1338,9.1338,9.1508,9.2237,9.244,9.244,9.2406,9.1865,9.1372,9.1338,9.1338,9.1102,9.0377,9.0865,9.1135,9.0343,9.1425,9.217,9.144,9.1933,9.2136,9.1406,9.1338,9.1353,9.1338,9.1338,9.1677,9.2373,9.244,9.2778,9.3552,9.3586,9.3586,9.3586,9.3586,9.3586,9.3586,9.4315,9.4706,9.474,9.4011,9.4026,9.4706,9.3992,9.362,3.9849,0.0,0.0,0.0,0.0,0.0,5.6329,5.886,6.1688,6.661,6.8315,7.0007,7.3539,7.433,7.4659,7.5335,7.6198,7.6647,7.6198,7.6138,7.6138,7.6138,7.6138,7.6317,7.6766,7.6557,7.6604,7.7035,7.8416,8.0225,8.2425,8.4639,8.5475,8.4726,8.6841,8.7789,8.7304,8.9762,9.0899,9.071,9.1116,9.1575,9.2102,9.2305,9.2711,9.3233,9.2643,9.2609,9.2875,9.1541,9.1,9.1034,9.1203,9.1048,9.0642,9.0324,9.0527,9.0899,9.0154,9.0493,9.1338,9.1696,9.2068,9.2474,9.2841,9.2556,9.2102,9.2102,9.2102,9.2271,9.3064,9.3281,9.3131,9.2542,9.2692,9.2808,9.2203,9.2102,9.1865,9.1135,9.2063,9.2537,9.1203,9.1764,9.2324,9.2136,9.2271,9.2339,9.2136,9.259,9.2725,9.217,9.2624,9.3045,9.3248,9.3281,9.3349,9.3586,9.3586,9.3586,9.3586,9.3586,9.3586,9.3586,9.4315,9.4958,9.5499,9.5296,9.5296,9.5466,9.4755,9.4112,4.1494,4.315,4.5603,4.685,0.0,0.0,5.4209,5.6316,5.88,6.4096,6.6131,6.7986,7.1248,7.2056,7.2535,7.3479,7.451,7.524,7.5437,7.5467,7.5467,7.5467,7.5467,7.5617,7.5976,7.5929,7.6066,7.6407,7.825,8.0407,8.2796,8.5174,8.5736,8.4059,8.6036,8.7139,8.7139,8.9594,9.0696,9.0405,9.1305,9.1798,9.1967,9.2624,9.3165,9.3586,9.3098,9.3165,9.3518,9.2638,9.2049,9.1812,9.2116,9.186,9.1271,9.1155,9.1203,9.1237,9.0797,9.0932,9.1406,9.217,9.2392,9.2542,9.3349,9.303,9.2474,9.2827,9.2895,9.2996,9.3484,9.3586,9.3484,9.303,9.3267,9.3484,9.2996,9.2895,9.259,9.1508,9.2029,9.2266,9.1034,9.1696,9.2392,9.2392,9.2677,9.2895,9.2895,9.3315,9.3417,9.2962,9.3315,9.3586,9.3586,9.3586,9.3586,9.3586,9.3586,9.3586,9.3586,9.389,9.4045,9.4045,9.5093,9.5973,9.6717,9.6108,9.5635,9.533,9.4909,9.4315,4.4676,4.5125,4.692,5.0081,4.9022,0.0,5.5393,5.6256,5.703,6.1912,6.4276,6.5997,6.7687,6.8629,6.9496,7.0636,7.1787,7.3103,7.4676,7.4886,7.4886,7.4886,7.4886,7.4886,7.4886,7.5437,7.5796,7.5796,7.8082,8.0412,8.2588,8.4844,8.5329,8.3658,8.5301,8.63,8.648,8.889,8.9748,8.912,9.1189,9.1865,9.1338,9.2808,9.3518,9.3586,9.3586,9.3586,9.3586,9.3586,9.3165,9.2609,9.3315,9.2774,9.1609,9.2203,9.2034,9.1541,9.144,9.1474,9.1643,9.2305,9.2542,9.2677,9.3383,9.3098,9.2677,9.3417,9.3586,9.3586,9.3586,9.3586,9.3586,9.3586,9.3586,9.3586,9.3586,9.3518,9.3078,9.1677,9.1474,9.1305,9.058,9.1595,9.2542,9.2542,9.3131,9.3586,9.3586,9.3586,9.3586,9.3586,9.3586,9.3586,9.3586,9.3586,9.3586,9.3586,9.3586,9.3586,9.3586,9.4214,9.4605,9.4706,9.6157,9.7274,9.7987,9.6683,9.5669,9.4958,9.4958,9.4552,4.9411,5.023,5.1211,4.9325,5.078,0.0,4.9901,5.0828,5.2923,5.5568,5.6,5.7107,6.1118,6.3273,6.435,6.4066,6.7642,7.1501,7.4467,7.4886,7.4886,7.4886,7.4886,7.4886,7.4886,7.5006,7.5095,7.5095,7.8516,8.1027,8.2027,8.2983,8.2764,8.1163,8.3306,8.5149,8.6498,8.8353,8.9255,8.912,9.0154,9.085,9.1338,9.2237,9.2996,9.3586,9.3586,9.3586,9.3586,9.3586,9.3518,9.3383,9.3552,9.3417,9.3078,9.2575,9.2711,9.3078,9.2406,9.2624,9.318,9.3315,9.3383,9.3417,9.3552,9.3484,9.3417,9.3552,9.3586,9.3586,9.3586,9.3586,9.3586,9.3586,9.3586,9.3586,9.3586,9.3098,9.2542,9.2237,9.2692,9.2895,9.2102,9.2759,9.3383,9.3383,9.3484,9.3586,9.3586,9.3586,9.3586,9.3586,9.3586,9.3586,9.3586,9.3586,9.3586,9.3586,9.3586,9.3586,9.3586,9.3755,9.4079,9.4673,9.6157,9.7274,9.7987,9.7732,9.7191,9.6462,9.6462,9.609,5.3,5.2923,5.3443,5.2468,5.2737,0.0,0.0,5.1217,5.2133,5.5466,5.4581,5.4503,5.8813,5.9891,6.0429,6.1433,6.4889,6.8045,6.9722,7.2235,7.3881,7.3881,7.4197,7.4407,7.4407,7.4706,7.5231,7.6049,7.9084,8.0677,8.0109,8.1825,8.2477,8.1718,8.3194,8.5227,8.7781,8.8671,8.9086,8.912,8.985,9.0594,9.1338,9.2068,9.2846,9.3586,9.3586,9.3586,9.3586,9.3586,9.3586,9.3586,9.3586,9.3586,9.3552,9.3131,9.3233,9.3552,9.3131,9.3267,9.3586,9.3586,9.3586,9.3586,9.3586,9.3586,9.3586,9.3586,9.3586,9.3586,9.3586,9.3586,9.3586,9.3586,9.3586,9.3586,9.3586,9.3267,9.2996,9.2996,9.3315,9.3349,9.2542,9.2745,9.3131,9.3552,9.3586,9.3586,9.3586,9.3586,9.3586,9.3586,9.3586,9.3586,9.3586,9.3586,9.3586,9.3586,9.3586,9.3586,9.3586,9.3958,9.4654,9.577,9.6886,9.7631,9.7987,9.7987,9.7631,9.6902,9.6902,9.6496,5.6585,5.5884,5.6256,5.606,5.5222,5.4401,0.0,0.0,0.0,5.5765,5.4294,5.3426,5.6615,5.6526,5.6585,5.853,6.1658,6.3678,6.317,6.7552,7.0992,7.1501,7.2505,7.3193,7.3313,7.3479,7.4593,7.7098,7.8703,7.9126,7.8145,8.0823,8.2539,8.2778,8.3131,8.5157,8.9058,8.877,8.877,8.912,8.985,9.0594,9.1338,9.2068,9.2846,9.3586,9.3586,9.3586,9.3586,9.3586,9.3586,9.3586,9.3586,9.3586,9.3586,9.3586,9.3586,9.3586,9.3586,9.3586,9.3586,9.3586,9.3586,9.3586,9.3586,9.3586,9.3586,9.3586,9.3586,9.3586,9.3586,9.3586,9.3586,9.3586,9.3586,9.3586,9.3586,9.3586,9.3586,9.3586,9.3586,9.3383,9.2745,9.2643,9.2846,9.3484,9.3586,9.3586,9.3586,9.3586,9.3586,9.3586,9.3586,9.3586,9.3586,9.3586,9.3586,9.3586,9.3586,9.3586,9.3586,9.4315,9.533,9.6665,9.7394,9.7867,9.7987,9.7987,9.7698,9.7105,9.7105,9.68,6.1239,6.2017,6.2406,5.6735,5.9009,6.0416,5.1911,0.0,5.3174,5.0803,0.0,4.9887,5.0336,0.0,0.0,5.0774,5.579,5.8949,5.6645,6.0356,6.4186,6.6505,6.8944,7.0666,7.1188,6.9738,7.1147,7.6867,7.5673,7.5496,7.7325,7.9637,8.1292,8.2088,8.127,8.3482,8.9058,8.7572,8.7572,8.912,8.985,9.0594,9.1338,9.2068,9.2846,9.3586,9.3586,9.3586,9.3586,9.3586,9.3586,9.3586,9.3586,9.3586,9.3586,9.3586,9.3586,9.3586,9.3586,9.3586,9.3586,9.3586,9.3586,9.3586,9.3586,9.3586,9.3586,9.3586,9.3586,9.3586,9.3586,9.3586,9.3586,9.3586,9.3586,9.3586,9.3586,9.3586,9.3586,9.3586,9.3586,9.3586,9.3484,9.3451,9.3484,9.3586,9.3586,9.3586,9.3586,9.3586,9.3586,9.3586,9.3586,9.3586,9.3586,9.3586,9.3586,9.3586,9.3586,9.3586,9.3586,9.4315,9.5093,9.5905,9.6665,9.7341,9.7987,9.7987,9.7969,9.7867,9.7867,9.7818,6.1898,6.2735,6.3393,5.9113,5.9608,5.9668,5.3994,5.2306,5.1935,5.2097,0.0,0.0,0.0,0.0,0.0,0.0,5.3366,5.488,5.2623,5.5658,5.9368,6.2735,6.4156,6.5682,6.7867,6.7328,6.8402,7.2207,7.1731,7.214,7.4069,7.7079,7.9527,8.1321,8.0743,8.3003,8.8401,8.7149,8.7363,8.9086,8.9424,9.0154,9.1305,9.1609,9.2421,9.3586,9.3586,9.3586,9.3586,9.3586,9.3586,9.3586,9.3586,9.3586,9.3586,9.3586,9.3586,9.3586,9.3586,9.3586,9.3586,9.3586,9.3586,9.3586,9.3586,9.3586,9.3586,9.3586,9.3586,9.3586,9.3586,9.3586,9.3586,9.3586,9.3586,9.3586,9.3586,9.3586,9.3586,9.3586,9.3199,9.3064,9.3518,9.3586,9.3586,9.3586,9.3586,9.3586,9.3586,9.3586,9.3586,9.3586,9.3586,9.3586,9.3586,9.3586,9.3586,9.3586,9.3586,9.3586,9.3586,9.4721,9.5466,9.5804,9.692,9.7698,9.7987,9.7987,9.7987,9.7987,9.7987,9.7987,6.3244,6.4006,6.4605,6.034,5.9458,5.8667,5.494,5.3072,5.2432,5.3671,5.2486,0.0,0.0,0.0,5.0762,5.1128,0.0,5.2378,5.0009,5.2085,5.5017,5.8278,5.9774,6.1628,6.4381,6.3663,6.4485,6.7926,6.7611,6.8628,7.1722,7.4813,7.7635,8.0142,7.9536,8.1792,8.7259,8.615,8.6751,8.9086,8.9086,8.9763,9.1,9.1203,9.2015,9.3267,9.3484,9.3586,9.3586,9.3586,9.3586,9.3586,9.3586,9.3586,9.3586,9.3586,9.3586,9.3586,9.3586,9.3586,9.3586,9.3586,9.3586,9.3586,9.3586,9.3586,9.3586,9.3586,9.3586,9.3586,9.3586,9.3586,9.3586,9.3586,9.3586,9.3586,9.3586,9.3586,9.3518,9.33,9.2996,9.2846,9.3199,9.3267,9.3349,9.3552,9.3586,9.3586,9.3586,9.3586,9.3586,9.3586,9.3586,9.3586,9.3586,9.3586,9.3586,9.3586,9.3586,9.3687,9.389,9.4924,9.5702,9.609,9.7157,9.78,9.7987,9.7987,9.7987,9.7987,9.7987,9.7987,6.6909,6.7777,6.7792,5.9322,5.9115,5.9325,5.2791,5.4221,5.6179,5.3725,5.6179,5.8022,5.5581,5.4551,5.3431,0.0,5.2336,0.0,0.0,4.9512,5.0907,5.2306,5.6436,5.9727,6.112,5.7782,5.8471,6.5547,6.3456,6.4799,7.1542,7.3559,7.5727,7.8414,7.6908,7.9106,8.553,8.3957,8.5144,8.9086,8.9086,8.9492,9.0242,9.0966,9.1711,9.2474,9.3267,9.3586,9.3586,9.3586,9.3586,9.3586,9.3586,9.3586,9.3586,9.3586,9.3586,9.3586,9.3586,9.3586,9.3586,9.3586,9.3586,9.3586,9.3586,9.3586,9.3586,9.3586,9.3586,9.3586,9.3586,9.3586,9.3586,9.3586,9.3586,9.3586,9.3586,9.3586,9.3383,9.2575,9.3064,9.3315,9.2575,9.244,9.2711,9.3484,9.3586,9.3586,9.3586,9.3586,9.3586,9.3586,9.3586,9.3586,9.3586,9.3586,9.3586,9.3586,9.3586,9.3924,9.4639,9.4706,9.5398,9.6834,9.6902,9.7308,9.7987,9.7987,9.7987,9.7987,9.7987,9.7987,6.8345,6.9572,6.9708,6.3258,6.2046,6.0938,5.5149,5.5538,5.6359,5.3725,5.6359,5.8291,5.5688,5.464,5.3551,0.0,5.1206,5.0081,0.0,4.6681,4.7627,4.9415,5.3324,5.5688,5.5269,5.5209,5.6915,6.112,6.0932,6.2966,6.8362,7.1274,7.3854,7.6346,7.6062,7.8775,8.4698,8.3573,8.5051,8.9086,8.9086,8.9729,9.0932,9.1169,9.1981,9.3199,9.3484,9.3586,9.3586,9.3586,9.3586,9.3586,9.3586,9.3586,9.3586,9.3586,9.3586,9.3586,9.3586,9.3586,9.3586,9.3586,9.3586,9.3586,9.3586,9.3586,9.3586,9.3586,9.3586,9.3586,9.3586,9.3586,9.3586,9.3586,9.3586,9.3586,9.3586,9.3586,9.3518,9.3248,9.2996,9.2895,9.3131,9.2745,9.2677,9.3484,9.3586,9.3586,9.3586,9.3586,9.3586,9.3586,9.3586,9.3586,9.3586,9.3586,9.3586,9.3586,9.3586,9.3924,9.4673,9.5161,9.5872,9.6868,9.736,9.7766,9.7987,9.7987,9.7987,9.7987,9.7987,9.7987,7.0231,7.1128,7.1038,6.5981,6.462,6.3093,5.7782,5.8321,5.9099,5.6239,5.8245,6.0146,5.8919,5.6615,5.4491,0.0,0.0,4.9142,0.0,4.5873,4.6411,4.7459,5.0272,5.2037,5.1846,5.2187,5.4162,5.8427,5.8501,6.0878,6.6685,6.9662,7.2205,7.4446,7.518,7.7806,8.2577,8.2628,8.4498,8.8176,8.8799,8.9397,8.9986,9.0891,9.1608,9.2262,9.3214,9.3586,9.3586,9.3586,9.3586,9.3586,9.3586,9.3586,9.3586,9.3586,9.3586,9.3586,9.3586,9.3586,9.3586,9.3586,9.3586,9.3586,9.3586,9.3586,9.3586,9.3586,9.3586,9.3586,9.3586,9.3586,9.3586,9.3586,9.3586,9.3586,9.3586,9.3586,9.3518,9.3233,9.2996,9.2895,9.3131,9.2996,9.2996,9.3518,9.3586,9.3586,9.3586,9.3586,9.3586,9.3586,9.3586,9.3586,9.3586,9.3586,9.3586,9.3586,9.3586,9.406,9.506,9.5533,9.6277,9.7274,9.7766,9.7987,9.7987,9.7987,9.7987,9.7987,9.7987,9.7987]}]]